/8.20/game/data/particles/

File Name  ↓ File Size  ↓ Date  ↓ 
Parent directory/--
recalldecals/-2018-Aug-05 15:24
adopt/-2018-Aug-05 15:23
skin05/-2018-Aug-05 15:20
icon_ui_cc_disarm_01.png 612018-Dec-24 23:08
ping-omw-base-color.png 602018-Dec-24 23:08
taricgems.png 502018-Dec-24 23:08
typhoon_claws_blind_monk_blur_05.png 732018-Dec-24 23:07
temp_kassadin_r.png 562018-Dec-24 23:07
icon_ui_cc_root_01.png 592018-Dec-24 23:07
line01.png 472018-Dec-24 23:07
bilgewatermercenary11_ringparticle_pop_rgba.png 842018-Dec-24 23:07
icon_ui_cc_blind_01.png 602018-Dec-24 23:07
ping-mia-base-color.png 602018-Dec-24 23:07
lulutemplinemissilebase.png 642018-Dec-24 23:07
pox_arcana_color-poisonsmoke32.png 712018-Dec-24 23:07
ping-danger-base-color.png 632018-Dec-24 23:07
lulutemplinemissiletarget.png 662018-Dec-24 23:07
icon_ui_cc_charm_01.png 602018-Dec-24 23:07
bilgewatermercenary11_ringparticle_pop_dust_rgb..> 892018-Dec-24 23:07
ping-comehere-base-color.png 652018-Dec-24 23:07
icon_ui_cc_slow_01.png 592018-Dec-24 23:07
ping-mia-base-outer-color.png 662018-Dec-24 23:07
temp_summoner_energy_swirl.png 672018-Dec-24 23:07
asc_relicprism_sand.png 602018-Dec-24 23:07
temp_kassadin_r_inner.png 622018-Dec-24 23:07
icon_ui_cc_airborne_01.png 632018-Dec-24 23:07
poppydef_buf_crimson.png 612018-Dec-24 23:07
lines01.png 482018-Dec-24 23:07
bladerogue_shaodwoverlay.png 652018-Dec-24 23:07
temp_oracleelixirring.png 622018-Dec-24 23:07
mysticshot_mis.png 72002018-Dec-23 01:17
fireballcomp-hd32.png 3M2018-Dec-23 01:16
fireballcomp-order-hd32.png 3M2018-Dec-23 01:16
odin_explo_sucking_purple.png 967K2018-Dec-23 01:15
billowingcloud.png 3M2018-Dec-23 01:15
tt_turret_order.png 2M2018-Dec-23 01:15
nexusexplo5-ani-blue-hd.png 3M2018-Dec-23 01:15
tt_turret_chaos.png 2M2018-Dec-23 01:14
nexusexplo5-ani-hd.png 3M2018-Dec-23 01:14
odin_explo_sucking.png 831K2018-Dec-23 01:14
stairfx32.png 2M2018-Dec-23 01:14
siege_laseraffix_circularrangeindicator.png 42K2018-Dec-23 01:12
sru_razorbeak_feather2_8x8.png 155K2018-Dec-23 01:12
bw_ap_chaosturret_tx_cm.png 570K2018-Dec-23 01:12
smokedisc-strong.png 722K2018-Dec-23 01:12
piltover_customs_blitzcrank_tx_cm_v04.png 674K2018-Dec-23 01:11
nexusexplo5-ani.png 488K2018-Dec-23 01:11
sruap_turret_order1_tx_cm_red.png 578K2018-Dec-23 01:11
sruap_turret_order1_bm_tx_cm.png 583K2018-Dec-23 01:11
rainbow_poro_spawntext.png 731K2018-Dec-23 01:11
shop_base_tx_prop_v01.png 918K2018-Dec-23 01:11
snowdown_herogiftbox_diff.png 244K2018-Dec-23 01:11
sruap_turret_order1_tx_cm.png 582K2018-Dec-23 01:11
sruap_turret_order1_bm_tx_cm_red.png 586K2018-Dec-23 01:10
darkstarmode_thresh_skin05_translucent_tx_cm.png 441K2018-Dec-23 01:10
sru_razorbeak_feather1_8x8.png 145K2018-Dec-23 01:10
towercautionring_minimal_fountain_white.png 747K2018-Dec-23 01:10
towercautionring_minimal_fountain_icons3_white.png 870K2018-Dec-23 01:10
bw_ap_orderturret_tx_cm.png 428K2018-Dec-23 01:10
towerrange_danger_min.png 654K2018-Dec-23 01:10
towerrange_proximity_min.png 711K2018-Dec-23 01:10
struc_wall_brazier_a.png 147K2018-Dec-23 01:08
nnn.png 64912018-Dec-23 01:08
tt_ghost_guy.png 206K2018-Dec-23 01:08
siege_shieldgenerator_rangeringvoid_background.png 227K2018-Dec-23 01:08
global_stinger_trailglow_3x3.png 549K2018-Dec-23 01:08
sruap_turret_order1_snow_tx_cm.png 660K2018-Dec-23 01:08
siege_chaos_towerdefense_destroyed_tx_cm.png 634K2018-Dec-23 01:08
noxuspoppydef_max.png 724K2018-Dec-23 01:08
cho_battlecast_glow.png 834K2018-Dec-23 01:08
sruap_turret_chaos1_snow_tx_cm.png 739K2018-Dec-23 01:07
sruap_turret_chaos1_tx_cm.png 595K2018-Dec-23 01:07
noxuspoppydam_max.png 724K2018-Dec-23 01:07
siege_turret_chaos_destroyed_blue_tx_cm.png 644K2018-Dec-23 01:07
sruap_turret_chaos1_tx_cm_blue.png 608K2018-Dec-23 01:07
sruap_turret_chaos1_bm_tx_cm.png 666K2018-Dec-23 01:07
struc_wall_lane_a.png 64912018-Dec-23 01:07
siege_barracks_rangeringvoid_background.png 339K2018-Dec-23 01:06
kingporo_snaxeffect_barrage_bigarea_portrait.png 80K2018-Dec-23 01:06
crystal-shockwave-blue.png 531K2018-Dec-23 01:06
sruap_turret_chaos1_bm_tx_cm_blue.png 672K2018-Dec-23 01:06
siege_offenseteleporter_rangeringvoid_backgroun..> 227K2018-Dec-23 01:06
sruap_turret_order1_snow_tx_cm_red.png 721K2018-Dec-23 01:06
siege_turret_chaos_destroyed_tx_cm.png 634K2018-Dec-23 01:06
sruap_turret_chaos1_snow_tx_cm_blue.png 739K2018-Dec-23 01:05
lulu_ult_ring_05.png 122K2018-Dec-23 01:03
odin_relic_shield_pad_red.png 117K2018-Dec-23 01:03
capture_tower_lit_blue_tx.png 220K2018-Dec-23 01:03
sru_tower_explosion_magicmask.png 380K2018-Dec-23 01:03
tt_tree_ghost.png 103K2018-Dec-23 01:03
tt_alters_captured.png 58K2018-Dec-23 01:03
shield_beam_03.png 22K2018-Dec-23 01:03
global_bots_idle_nightmare_wisps_mask.png 115K2018-Dec-23 01:03
capture_tower_lit_purple_tx.png 215K2018-Dec-23 01:03
darkstarmode_roundendvacuumorianna_skin06_ball_..> 226K2018-Dec-23 01:03
siege_warppointdamage_taricearrow03.png 49K2018-Dec-23 01:03
doombots_summoningvisualmissilechildredchild_ri..> 102K2018-Dec-23 01:03
sruap_turret_order1_rubble_bm_tx_cm.png 113K2018-Dec-23 01:03
global_trinket_spotter_intro_2x5.png 69K2018-Dec-23 01:03
sruap_turret_chaos1_rubble_bm_tx_cm.png 245K2018-Dec-23 01:03
wavestar_fishthing_shieldbeamdarksov_force2.png 68K2018-Dec-23 01:03
tt_alters_chain.png 27K2018-Dec-23 01:03
galio_gatekeeper_spherewaves2.png 173K2018-Dec-23 01:03
capture_tower_tx_dm.png 206K2018-Dec-23 01:03
snowflakes_2x2.png 147K2018-Dec-23 01:03
lunarrevel_victory_z_smoke.png 46K2018-Dec-23 01:03
item_mirage_blade_ba_head_mis.png 54K2018-Dec-23 01:03
fireloop_aura.png 91K2018-Dec-23 01:03
sru_bluebuff_armclouds.png 131K2018-Dec-23 01:03
towerdustanim32.png 285K2018-Dec-23 01:03
sru_riftherald_summon_roll.png 43K2018-Dec-23 01:03
sru_inhibitor_chaos_tower_beam_outer.png 172K2018-Dec-23 01:03
sru_tower_explosion_smoke_2x2.png 129K2018-Dec-23 01:03
invis_wisp_01_alpha.png 37K2018-Dec-23 01:03
fiddlesticks_surpriseparty_locfear_face_4x4.png 175K2018-Dec-23 01:03
crest_skin05_02_tx.png 75K2018-Dec-23 01:03
sru_baron_slimestuff.png 104K2018-Dec-23 01:03
introbotaggroring.png 55K2018-Dec-23 01:03
megaadhesivepool.png 156K2018-Dec-23 01:03
ha_ap_order_basedoor_blue.png 232K2018-Dec-23 01:03
stone_red3.png 143K2018-Dec-23 01:03
sru_razorbeak_blood_4x1.png 49K2018-Dec-23 01:03
ha_ap_order_basedoor_red.png 215K2018-Dec-23 01:03
global_ss_teleport_wake_ring_red.png 62K2018-Dec-23 01:03
doombots_bardcurse_windupbard_base_r_decal_01.png 98K2018-Dec-23 01:03
zilean_desert _tx_cm.png 320K2018-Dec-23 01:03
dominion_crystal_blue32.png 366K2018-Dec-23 01:03
bw_ap_order_basedoor_red.png 216K2018-Dec-23 01:03
bw_ap_order_basedoor_blue.png 235K2018-Dec-23 01:03
kappasolar_tag.png 80K2018-Dec-23 01:03
siege_siegecannon_missileheimerdinger_base_z_el..> 58K2018-Dec-23 01:03
flashfreeze.png 59K2018-Dec-23 01:03
ezreal_pulsefire_essenceflux_mis_01.png 44K2018-Dec-23 01:03
poppy_blacksmith_max_tx_cm.png 297K2018-Dec-23 01:03
sru_krug_ba_23_bloodfly.png 228K2018-Dec-23 01:03
lifetap_ghost_green_03.png 25K2018-Dec-23 01:03
sruap_turret_chaos1_rubble_tx_cm.png 227K2018-Dec-23 01:03
ha_ap_wallwind_01.png 82K2018-Dec-23 01:03
siege_laseraffix_groundrectangle_reticle_lines.png 25992018-Dec-23 01:03
tutorial-arrow32.png 33K2018-Dec-23 01:03
chogath_battlecast_heal_uv.png 217K2018-Dec-23 01:03
sru_junglebuff_bluebuff_mana_softrays_4x1.png 37K2018-Dec-23 01:03
fallenangel01.png 91K2018-Dec-23 01:03
sg_chogath_feastindicatorillaoi_skin01_e_timera..> 115K2018-Dec-23 01:03
regeneration02.png 88K2018-Dec-23 01:03
global_summoner_death_ally_beam_fill.png 146K2018-Dec-23 01:03
arcade_brazier_corki_skin08_w_flame_4x3.png 26K2018-Dec-23 01:03
siege_laser_f1_land_glow.png 67K2018-Dec-23 01:03
bw_ironbackshield_avatar.png 321K2018-Dec-23 01:03
kingporo_snaxeffect_barrageaoe_leona_base_z_tea..> 48K2018-Dec-23 01:03
wavestar_warningmistutorial-arrow32.png 33K2018-Dec-23 01:03
sru_krug_death_dustspikes_6x1.png 117K2018-Dec-23 01:03
ring_aged_08.png 105K2018-Dec-23 01:03
treelinelanternlockcomplete.png 53K2018-Dec-23 01:03
global_item_elixirofiron_softrays_4x1.png 68K2018-Dec-23 01:03
spawnfx2.png 54K2018-Dec-23 01:03
hecarim_headless_spectral.png 251K2018-Dec-23 01:03
crest_skin06_02_tx.png 98K2018-Dec-23 01:03
siege_laseraffix_groundrectangle_reticle_bracke..> 26242018-Dec-23 01:03
tt_buffplat_chain_texture.png 71K2018-Dec-23 01:03
fiddle_terrify_ribbon.png 76K2018-Dec-23 01:03
rainbow_pixie_cloud_01.png 52K2018-Dec-23 01:03
lulu_dragon_flamewisps.png 72K2018-Dec-23 01:03
itm_toa_ring2.png 90K2018-Dec-23 01:03
blood_lord_tx_cm_q.png 184K2018-Dec-23 01:03
bw_order_turret_shot_trail.png 117K2018-Dec-23 01:03
projectmode17_killcredit_z_hex_02.png 88832018-Dec-23 01:03
global_ss_teleport_alphaslice_mesh.png 208K2018-Dec-23 01:03
global_ss_flash_flare_core_2x5.png 137K2018-Dec-23 01:03
malphite_glacial_obduracy_off.png 316K2018-Dec-23 01:03
doombots_towerchargezoneviktor_base_r_indicator..> 59K2018-Dec-23 01:03
cutlasstrail.png 15K2018-Dec-23 01:03
leona_flare_streak.png 91K2018-Dec-23 01:03
asc_wisps_mask.png 144K2018-Dec-23 01:03
bw_ocklepod_red_tx_cm.png 147K2018-Dec-23 01:03
siege_siegecannon_impactillaoi_base_r_impactfla..> 85K2018-Dec-23 01:02
item_blackcleaver_speed_wisps_2x2.png 54K2018-Dec-23 01:02
spirit_animal_spawn_shapes.png 134K2018-Dec-23 01:02
sru_tower_explosion_smokespikes_6x1.png 116K2018-Dec-23 01:02
lifetap_ghost_alpha_01.png 63K2018-Dec-23 01:02
zapball.png 19K2018-Dec-23 01:02
cog.png 26K2018-Dec-23 01:02
bw_chaos_turret_speedlines_mult.png 84K2018-Dec-23 01:02
0softtest_laserscan.png 83K2018-Dec-23 01:02
sru_bluebuff_buf_trail.png 50K2018-Dec-23 01:02
galio_gatekeeper_ult_lightning.png 54K2018-Dec-23 01:02
doombots_akali_smokebomb_redinfernalguardian04.png 118K2018-Dec-23 01:02
ezreal_lesnflare_a01.png 39K2018-Dec-23 01:02
asc_avatar_bluepulse.png 286K2018-Dec-23 01:02
sru_razorbeakmini_feathers_4x1.png 53K2018-Dec-23 01:02
white_lightbar_02.png 63K2018-Dec-23 01:02
waterfall_south_lefttoprock.png 154K2018-Dec-23 01:02
runes_red_circle_inner_empowered.png 20K2018-Dec-23 01:02
wavestar_riftherald_frenzyreksai_skin01_q_dark_..> 123K2018-Dec-23 01:02
doombots_brushfirebrand_base_p_fire_cas.png 100K2018-Dec-23 01:02
talon_blades.png 252K2018-Dec-23 01:02
tt_spiderspit.png 182K2018-Dec-23 01:02
asc_relic_timer_ring.png 21K2018-Dec-23 01:02
item_angelhand_buff_tendrils_alpha.png 15K2018-Dec-23 01:02
capture_crystal_red.png 212K2018-Dec-23 01:02
dominion_crystal_distort.png 68K2018-Dec-23 01:02
void_ball_energy.png 41K2018-Dec-23 01:02
wavestar_fishthing_shieldsolar_tag.png 80K2018-Dec-23 01:02
monkeyking_base_death_stone.png 396K2018-Dec-23 01:02
kingporo_snaxeffect_fire_hittowerbrand_base_p_f..> 100K2018-Dec-23 01:02
jollyroger32.png 62K2018-Dec-23 01:02
siege_obliterater_crystal_red.png 69K2018-Dec-23 01:02
sru_inhibitor_order_tower_beam_outer.png 173K2018-Dec-23 01:02
sru_sd_godray_mid_01.png 215K2018-Dec-23 01:02
darksov_orb_outlines_max.png 25K2018-Dec-23 01:02
galio_gatekeeper_spherewaves.png 136K2018-Dec-23 01:02
mp_invisible_spear.png 229K2018-Dec-23 01:02
wavestar_riftherald_frenzyreksai_skin01_q_elect..> 33K2018-Dec-23 01:02
snowblow_hex.png 30K2018-Dec-23 01:02
treelinelanternlockcompletep.png 54K2018-Dec-23 01:02
doombots_summoningvisualmissilechild_streamers_..> 128K2018-Dec-23 01:02
mos-sphere.png 124K2018-Dec-23 01:02
wavestar_fishthing_shielddarksov_forcebubble.png 58K2018-Dec-23 01:02
kingporo_snaxeffect_fireflames_flamethrower.png 30K2018-Dec-23 01:02
maokai_skin05_e_sapling.png 293K2018-Dec-23 01:02
darkstarmode_lanternzonepoppy_base_w_buff_groun..> 82K2018-Dec-23 01:02
destroyedbuilding_order01.png 59K2018-Dec-23 01:02
watersmash.png 155K2018-Dec-23 01:02
global_item_elixirofwrath_softrays_4x1.png 79K2018-Dec-23 01:02
bw_shadowshark_tx_cm.png 90K2018-Dec-23 01:02
taric_hammer_cm_tm.png 217K2018-Dec-23 01:02
sru_turret_ba_electricity_5x5.png 209K2018-Dec-23 01:02
projectmode17_scannerbot_z_cubesmult.png 154K2018-Dec-23 01:02
bw_seagull_tx_cm.png 133K2018-Dec-23 01:02
wavestar_portal_xerath_base_z_warpedsphere_tx.png 152K2018-Dec-23 01:02
firefade32.png 74K2018-Dec-23 01:02
red_orange_lightbar.png 57K2018-Dec-23 01:02
bw_ocklepod_tx_cm.png 156K2018-Dec-23 01:02
ferocioushowlcylinder01.png 76K2018-Dec-23 01:02
ward_ghost_ghosts.png 77K2018-Dec-23 01:02
spirit_animal_greentrail_01.png 48K2018-Dec-23 01:02
kingporo_snaxeffect_barrageaoe_leona_base_z_tea..> 53K2018-Dec-23 01:02
global_item_elixirofruin_softrays_4x1.png 72K2018-Dec-23 01:02
galio_gatekeeper_blast_wispring.png 75K2018-Dec-23 01:02
rallyingbanner03.png 200K2018-Dec-23 01:02
yellow_lightbar_02.png 59K2018-Dec-23 01:02
global_ss_smite_duel_shield_sheen_mask.png 133K2018-Dec-23 01:02
ezreal_pulsefire_arcaneshift_cylinder.png 70K2018-Dec-23 01:02
sru_godray_mid_mult_01.png 108K2018-Dec-23 01:02
wavestar_boss_dashindicatorgnarbig_base_w_pow_a..> 26K2018-Dec-23 01:02
sru_redbuff_z_footprint.png 344K2018-Dec-23 01:02
kingporo_snaxfeeding_readyflashsru_bluebuff_spa..> 305K2018-Dec-23 01:02
wavestar_fishthing_shieldbeamkarma_skin06_z_spi..> 32K2018-Dec-23 01:02
leona_passive_flares_02.png 71K2018-Dec-23 01:02
teemo_motiondetector.png 184K2018-Dec-23 01:02
twirls.png 39K2018-Dec-23 01:02
item_ardentcenser_buff_tendrils_alpha.png 15K2018-Dec-23 01:02
darkstarmode_lanternzonepoppy_base_w_buff_groun..> 130K2018-Dec-23 01:02
leona_base_shield32.png 12K2018-Dec-23 01:02
siege_roundendceremony_swapmissileredchild_ring..> 102K2018-Dec-23 01:02
whirlpool01.png 386K2018-Dec-23 01:02
sru_redbuff_ba1_swipe.png 77K2018-Dec-23 01:02
introbotaggroringfull.png 67K2018-Dec-23 01:02
dominion_crystal_red32.png 368K2018-Dec-23 01:02
morgana_blackthorn_bramble_stripes.png 25K2018-Dec-23 01:02
global_item_elixirofsorcery_softrays_4x1.png 81K2018-Dec-23 01:02
env_ice_sheen.png 85292018-Dec-23 01:02
tornadotrash.png 65K2018-Dec-23 01:02
poroking_dust_4x4.png 148K2018-Dec-23 01:02
slime_koth_capture.png 47K2018-Dec-23 01:02
doombots_towerchargewarnviktor_base_r_warningri..> 34K2018-Dec-23 01:02
sru_riverplane_south_mult_01.png 179K2018-Dec-23 01:02
kingporo_snaxeffect_barrageaoe_leona_base_z_tea..> 60K2018-Dec-23 01:02
cass_snakegas.png 80K2018-Dec-23 01:02
siege_laser_targetinglink_startelectricity_pan_..> 113K2018-Dec-23 01:02
global_trinket_icons.png 90K2018-Dec-23 01:02
cass_skn4_castglow.png 220K2018-Dec-23 01:02
capture_crystal_neutral.png 384K2018-Dec-23 01:02
temp_itemglacialspikeenemy_frostground_blur.png 63K2018-Dec-23 01:02
cursor_moveto.png 87962018-Dec-23 01:02
bw_chaos_turret_cas_flash_mesh_4x1.png 86K2018-Dec-23 01:02
darksov_orb_outlines.png 26K2018-Dec-23 01:02
siege_emergencyshield_scorchedshadow_ground_dec..> 274K2018-Dec-23 01:02
sru_krug_death_dustpuffs_2x2.png 133K2018-Dec-23 01:02
tt_speedplat_streaks.png 17K2018-Dec-23 01:02
darkstarmode_powerqvarus_skin06_idle_tendrils.png 74K2018-Dec-23 01:02
something_in_brush_grass.png 77K2018-Dec-23 01:02
darkstarmode_powerqvarus_skin06_buf_redtrail.png 48K2018-Dec-23 01:02
invis_wisp_01_alpha_02.png 71K2018-Dec-23 01:02
tt_buffplat_chain_texture_b.png 84K2018-Dec-23 01:02
siege_siegecannon_impactillaoi_base_r_impactfla..> 156K2018-Dec-23 01:02
doombots_bardcurse_windupbard_base_r_decal_02.png 19K2018-Dec-23 01:02
doombots_aurelion_hitaurelionsol_base_p_starglo..> 232K2018-Dec-23 01:02
rune_platform_tutorial32.png 169K2018-Dec-23 01:02
item_dusk_mark_all_add.png 79K2018-Dec-23 01:01
framecounter.png 46042018-Dec-23 01:01
siege_obliterater_crystal_blue.png 67K2018-Dec-23 01:01
cutlasstrail_02.png 12K2018-Dec-23 01:01
odin_relic_shield_pad_blue.png 119K2018-Dec-23 01:01
movement_indicator_red.png 35K2018-Dec-23 01:01
wavestar_spawningmonstervoidscroll32.png 491K2018-Dec-23 01:01
galio_gatekeeper_ult_lightning_vert.png 64K2018-Dec-23 01:01
crystal_tx_dm.png 218K2018-Dec-23 01:01
tt_buffplat_chain_texture_r.png 86K2018-Dec-23 01:01
wavestar_manaorb_tar2soraka_skin07_e_rune_starb..> 74K2018-Dec-23 01:01
darkstarmode_enterarenaendflashsru_bluebuff_spa..> 305K2018-Dec-23 01:01
rp_invisible_spear.png 228K2018-Dec-23 01:01
tears-waves.png 64K2018-Dec-23 01:01
tt_heal_platform.png 101K2018-Dec-23 01:01
capture_crystal_blue.png 240K2018-Dec-23 01:01
tt_speedplat_wisps.png 71K2018-Dec-23 01:01
singed_skin06_q_snow_fill_enemy.png 194K2018-Dec-23 01:01
sru_krug_ba_dustspikes_6x1.png 129K2018-Dec-23 01:01
itm_toa_ring.png 142K2018-Dec-23 01:01
jarvan_commando.png 230K2018-Dec-23 01:01
kingporo_snaxeffect_barrageaoe_leona_base_z_tea..> 45K2018-Dec-23 01:01
flame_ani.png 83K2018-Dec-23 01:01
sru_redbuff_buf_redtrail.png 51K2018-Dec-23 01:01
sru_baron_attack_bluralpha.png 55K2018-Dec-23 01:01
sg_chogath_feastindicatortahmkench_base_p_marke..> 96K2018-Dec-23 01:01
bw_order_turret_explosion_flat_tar.png 171K2018-Dec-23 01:01
sru_minionspawn_squarefade.png 100K2018-Dec-23 01:01
doombots_aurelion_hitaurelionsol_base_z_wisps.png 145K2018-Dec-23 01:01
siege_roundendceremony_swapmissilechild_streame..> 128K2018-Dec-23 01:01
sru_bluebuff_spawn_ready_color.png 305K2018-Dec-23 01:01
sru_gromp_death_pop_lines.png 36K2018-Dec-23 01:01
movement_indicator_colorblind.png 38K2018-Dec-23 01:01
sru_krug_ba_impactglow.png 37K2018-Dec-23 01:01
rotate_rays.png 81K2018-Dec-23 01:01
asc_relic_timer_spark.png 156K2018-Dec-23 01:01
cosmicruins_teemoastronaut_tx_cm.png 241K2018-Dec-23 01:01
sru_riftherald_bufftransfer_meshswipe.png 49K2018-Dec-23 01:01
skulls.png 68K2018-Dec-23 01:01
sru_bluebuff_buf_centerglow.png 85K2018-Dec-23 01:01
malphite_glacial_seismic_shard_text.png 326K2018-Dec-23 01:01
wavestar_warningmis-greenarrow.png 40K2018-Dec-23 01:01
bw_turret_explosion_flat_tar.png 167K2018-Dec-23 01:01
absolutezeroedges.png 16K2018-Dec-23 01:01
mikael_slow_immune_2x2.png 130K2018-Dec-23 01:01
dominion_crystal_black32.png 287K2018-Dec-23 01:01
sru_eastjungle_glowrocks_nexttowolves_mult_01.png 22K2018-Dec-23 01:01
poppy_lolli_max_tx_cm.png 251K2018-Dec-23 01:01
testing_vertexalpha_1.png 100K2018-Dec-23 01:01
kassadin_darkblade_glow.png 46K2018-Dec-23 01:01
crest_skin07_02_tx.png 119K2018-Dec-23 01:01
lifetap_ghost.png 24K2018-Dec-23 01:01
sru_tower_explosion_magicstrands.png 149K2018-Dec-23 01:01
sru_junglebuff_redbuff_health_cloudpuff.png 77K2018-Dec-23 01:01
kingporo_snaxeffect_barragexerath_base_z_warped..> 152K2018-Dec-23 01:01
wavestar_riftherald_screamreksai_base_q_ground_..> 158K2018-Dec-23 01:01
doombots_bossteemo_nukeincomingface.png 148K2018-Dec-23 01:01
spirit_animal_browntrail_01.png 80K2018-Dec-23 01:01
sruap_turret_chaos1_rubble_bm_tx_cm_blue.png 247K2018-Dec-23 01:01
poro_throw_mis_project_z_hex_02.png 88832018-Dec-23 01:01
bw_chaos_buildup_binding.png 78K2018-Dec-23 01:01
structure_shrine_base_02.png 946K2018-Dec-15 10:53
grnd_terrain_e.png 64932018-Dec-15 10:50
sruap_order_basedoor.png 229K2018-Dec-15 10:48
sru_shild_alphaslice.png 233K2018-Dec-15 10:48
sruap_chaos_basedoor.png 166K2018-Dec-15 10:48
sruap_order_basedoor_red.png 206K2018-Dec-15 10:48
chogath_base_q_teamring.png 12K2018-Dec-15 10:48
tristanashot_02.png 36K2018-Oct-16 18:24
jarvaniv_base_tx_cm.png 2M2018-Oct-15 20:09
rengar_base.png 3M2018-Oct-15 20:08
morgana_blackthorn_tx_cm.png 2M2018-Oct-15 20:07
global_item_sunfirecape_meshflame.png 30K2018-Oct-15 20:07
pantheon_dacian_spear_tx.png 2M2018-Oct-15 20:06
sru_redbuff.png 710K2018-Oct-15 19:58
billowingcloud2.png 364K2018-Oct-15 19:58
kogmaw_q_ampen_burst_anim_3x3.png 319K2018-Oct-15 19:58
projectmode17_scannerbot_danger.png 222K2018-Oct-15 19:58
blue-nexus-explo.png 470K2018-Oct-15 19:58
multilightning.png 52K2018-Oct-15 19:58
urf_death_heartsplosion_cloud.png 866K2018-Oct-15 19:58
kingporo_dropindicator_green.png 247K2018-Oct-15 19:58
kennen_dr_tx_cm.png 960K2018-Oct-15 19:58
sru_krug_ba_5_swipe.png 157K2018-Oct-15 19:58
sru_dragon_death.png 958K2018-Oct-15 19:58
iceblock.png 519K2018-Oct-15 19:58
rune_light_shards.png 261K2018-Oct-15 19:58
smoke02.png 1M2018-Oct-15 19:57
pantheon_spear_03.png 669K2018-Oct-15 19:57
urf_death_heartsplosion_shimmer.png 501K2018-Oct-15 19:57
tt_spider_web_aoe.png 535K2018-Oct-15 19:57
projectmode17_scannerbot_proximity.png 356K2018-Oct-15 19:56
kogmaw_q_ampen_shield.png 413K2018-Oct-15 19:56
tt_ghost_base.png 397K2018-Oct-15 19:56
pantheon_spear.png 854K2018-Oct-15 19:56
sru_vista_blockin_01.png 948K2018-Oct-15 19:56
kogmaw_q_ampen_slash_anim_3x3.png 149K2018-Oct-15 19:56
sru_baron_tail.png 362K2018-Oct-15 19:56
shen_sword_01.png 738K2018-Oct-15 19:56
kogmaw_q_ampen_starflash_anim_3x3.png 220K2018-Oct-15 19:56
sru_fish_01.png 19K2018-Oct-15 19:56
kogmaw_q_ampen_crackflash.png 150K2018-Oct-15 19:56
sru_krug_ba_1_swipe.png 114K2018-Oct-15 19:56
cloudring.png 119K2018-Oct-15 19:56
mordekaiser_destroyer_tx_cm.png 825K2018-Oct-15 19:55
hexakill_removedturretwebtt_spider_web_aoe.png 455K2018-Oct-15 19:55
kogmaw_q_ampen_shield_negative.png 482K2018-Oct-15 19:55
gragas_classy_tx_cm.png 831K2018-Oct-15 19:55
kingporo_dropindicator_red.png 241K2018-Oct-15 19:55
megabarrack.png 960K2018-Oct-15 19:55
rengar_ring.png 31K2018-Oct-15 19:55
singed_experiment_glue.png 882K2018-Oct-15 19:54
tt_ghost_girl.png 308K2018-Oct-15 19:54
siege_emergencyshield_override_blue.png 472K2018-Oct-15 19:54
projectmode17_scannerbot_proximity_5s.png 172K2018-Oct-15 19:47
hecarim_skn3_drain.png 25K2018-Oct-15 19:47
projectmode17_scannerbot_proximity_1s.png 230K2018-Oct-15 19:46
kogmawvoidooze_borderripples2.png 671K2018-Oct-15 19:46
urf_death_urf_mesh.png 1011K2018-Oct-15 19:46
siege_emergencyshield_override.png 503K2018-Oct-15 19:45
sru_peref_clouds_02_mult.png 282K2018-Oct-15 19:45
projectmode17_scannerbot_proximity_2s.png 258K2018-Oct-15 19:45
capturepointtext.png 47K2018-Oct-15 19:45
projectmode17_scannerbot_proximity_3s.png 189K2018-Oct-15 19:45
cosmicruins_starfield.png 1M2018-Oct-15 19:44
projectmode17_scannerbot_proximity_4s.png 168K2018-Oct-15 19:44
sru_redbuff_centerglow.png 56K2018-Oct-15 19:37
global_asc_teleport_beam.png 79K2018-Oct-15 19:37
explosion32.png 557K2018-Oct-15 19:37
global_item_elixirofiron_cloud.png 77K2018-Oct-15 19:37
poppydef_max.png 276K2018-Oct-15 19:37
pulverizecylinder20.png 22K2018-Oct-15 19:37
starburst-spectral.png 101K2018-Oct-15 19:37
clouddome2.png 84K2018-Oct-15 19:37
nocturne_cyber_w_shield_wisp_scroll.png 24K2018-Oct-15 19:37
heal02.png 65K2018-Oct-15 19:37
poro_snowflake_tagged.png 89K2018-Oct-15 19:37
global_item_boc_shield.png 303K2018-Oct-15 19:37
zed_w_groundshadow.png 23K2018-Oct-15 19:37
orianna_base_z_shockwave.png 54K2018-Oct-15 19:37
malphite_glacial_enrrage_buff_text.png 314K2018-Oct-15 19:37
bw_order_wispies.png 191K2018-Oct-15 19:37
darksov_force2.png 68K2018-Oct-15 19:37
snowball_avatar_sand.png 261K2018-Oct-15 19:37
sru_baron_death.png 330K2018-Oct-15 19:37
bw_chaos_inhibitor_runecountdown.png 83K2018-Oct-15 19:37
sru_wolfden_cloudgroundcover_01.png 89K2018-Oct-15 19:37
ring_red_06.png 78K2018-Oct-15 19:37
starburst.png 116K2018-Oct-15 19:37
ezreal_pulsefire_hud_shapes_01.png 177K2018-Oct-15 19:37
bw_rollingfog_01.png 175K2018-Oct-15 19:37
flames_green.png 41K2018-Oct-15 19:37
sru_riftherald_deadbits.png 31K2018-Oct-15 19:37
mastery_crest_07.png 218K2018-Oct-15 19:37
siege_laser_defending_eye_flame_blue.png 135K2018-Oct-15 19:37
morgana_skin05_r_tar_firering.png 123K2018-Oct-15 19:37
sru_river_reflectionisland_01.png 122K2018-Oct-15 19:37
sru_baron_acidball_pool.png 134K2018-Oct-15 19:37
steamgolem.png 285K2018-Oct-15 19:37
ha_chaos_nexus_inhibitorsuck.png 117K2018-Oct-15 19:37
item_blackcleaver_shield_fullglow.png 43K2018-Oct-15 19:37
sru_river_vshapewake_01.png 85K2018-Oct-15 19:37
dravenhead_af.png 176K2018-Oct-15 19:37
item_ardentcenser_buff_tendrils.png 36K2018-Oct-15 19:37
malphite_obsidian_damaged_tx_cm.png 284K2018-Oct-15 19:37
sru_dragon_ba1_fire.png 78K2018-Oct-15 19:37
kassadin_base_q_shieldblast_02.png 82K2018-Oct-15 19:37
fb_explosion_groundburn.png 171K2018-Oct-15 19:37
rock.png 188K2018-Oct-15 19:37
sru_waterfall_test_small_mult_01.png 53K2018-Oct-15 19:37
pantheon_perseus_tx_cm.png 262K2018-Oct-15 19:37
doombots_rollingfog_02.png 170K2018-Oct-15 19:37
sru_dragon_drool_4x4.png 103K2018-Oct-15 19:37
sru_riftherald_dash_wake.png 106K2018-Oct-15 19:37
sru_braziers_fire_blueside_01.png 79K2018-Oct-15 19:37
zilean_base_e_stun.png 67K2018-Oct-15 19:37
webpurple32.png 288K2018-Oct-15 19:37
env_mb_bridgewind_se_02.png 213K2018-Oct-15 19:37
global_ss_flash_cloudpuff.png 277K2018-Oct-15 19:37
volibear_runewars_lightning_12.png 69K2018-Oct-15 19:37
ziggs_skn4_snowballtx.png 325K2018-Oct-15 19:37
jarvanrock.png 183K2018-Oct-15 19:37
siege_emergencyshield_barrel_smoke.png 107K2018-Oct-15 19:37
bloodring.png 160K2018-Oct-15 19:37
sruap_chaos_nexus_inhibitorsuck.png 117K2018-Oct-15 19:37
projectmode17_scannerbot_proximity_7s.png 132K2018-Oct-15 19:37
reefmalphite_glow.png 331K2018-Oct-15 19:37
tt_chaos_laser.png 135K2018-Oct-15 19:37
fj_ap_chaosnexus.png 291K2018-Oct-15 19:37
morgana_skin05_w_tar_green.png 57K2018-Oct-15 19:37
diana_death.png 211K2018-Oct-15 19:37
rebirthegg.png 221K2018-Oct-15 19:37
test_clamping.png 24K2018-Oct-15 19:37
icering.png 288K2018-Oct-15 19:37
ghosts_03.png 41K2018-Oct-15 19:37
giftbarrel.png 168K2018-Oct-15 19:37
urf_death_orbitallaser_shockwave.png 167K2018-Oct-15 19:36
kassadin_base_q_shieldblast.png 89K2018-Oct-15 19:36
wavestar_fishthing_shieldbeamkarma_skin06_w_bea..> 22K2018-Oct-15 19:36
env_mb_shopsouth_smokeswirl.png 44K2018-Oct-15 19:36
sru_razorbeak_ba1_praxis.png 36K2018-Oct-15 19:36
snow_chunks.png 89K2018-Oct-15 19:36
jinx_base_e_tar_flash.png 66K2018-Oct-15 19:36
darksov_forcebubble.png 58K2018-Oct-15 19:36
zed_shadowwisps.png 59K2018-Oct-15 19:36
sightward_eos_04_cloud_01.png 188K2018-Oct-15 19:36
netherblade_glow.png 55K2018-Oct-15 19:36
bw_riverplaine_01.png 64K2018-Oct-15 19:36
global_ss_revive_wisps.png 137K2018-Oct-15 19:36
kayle_skin07_e_spark.png 140K2018-Oct-15 19:36
sru_baron_grasp_target2.png 375K2018-Oct-15 19:36
asc_avatar_sand.png 260K2018-Oct-15 19:36
sru_baron_spawn_wave_mult.png 89K2018-Oct-15 19:36
brand_frost_plasma_blue_01.png 214K2018-Oct-15 19:36
siege_generator_unbuiltoutline_smokeymask.png 229K2018-Oct-15 19:36
ha_ap_explosion_groundburn.png 90K2018-Oct-15 19:36
siege_crystal_brazier_red.png 57K2018-Oct-15 19:36
disgustingsneeze01.png 38K2018-Oct-15 19:36
team_ring_red_defocus.png 39K2018-Oct-15 19:36
sru_riverplane_south_01.png 144K2018-Oct-15 19:36
sru_cloudsuck.png 66K2018-Oct-15 19:36
lifetap_ghost_02.png 22K2018-Oct-15 19:36
teleport.png 40K2018-Oct-15 19:36
stone.png 344K2018-Oct-15 19:36
tt_fire_blue.png 96K2018-Oct-15 19:36
kogmaw_q_ampen_shield_magic.png 168K2018-Oct-15 19:36
tt_order_inhibitor_runecountdown.png 48K2018-Oct-15 19:36
invisible_spear.png 287K2018-Oct-15 19:36
asc_avatar_pulse.png 218K2018-Oct-15 19:36
skarner_exoskeleton_scorpion.png 280K2018-Oct-15 19:36
sg_velkoz_base_q_core_ring_mis.png 223K2018-Oct-15 19:36
doombots_giantdart_misteemo_skin14_e_dartend.png 84K2018-Oct-15 19:36
asc_avatar_glimmer.png 52K2018-Oct-15 19:36
twilight_02.png 57K2018-Oct-15 19:36
tt_order_flash.png 141K2018-Oct-15 19:36
malphite_glow.png 297K2018-Oct-15 19:36
sru_raptornest_glow_1.png 165K2018-Oct-15 19:36
orderhqball.png 91K2018-Oct-15 19:36
env_mb_brazierfire_flipbook_01.png 83K2018-Oct-15 19:36
sru_tower_explosion_groundburn.png 90K2018-Oct-15 19:36
bw_item_trickstersglass_shadowwisps.png 127K2018-Oct-15 19:36
jinx_explosion_smoke.png 152K2018-Oct-15 19:36
branddeathash.png 145K2018-Oct-15 19:36
bw_peref_clouds.png 134K2018-Oct-15 19:36
waves.png 57K2018-Oct-15 19:36
sru_river_longwhitewavyfoam_mult_02.png 170K2018-Oct-15 19:36
sru_peref_clouds_01.png 66K2018-Oct-15 19:36
mastery_crest_04.png 187K2018-Oct-15 19:36
item_trueice_icepatch.png 336K2018-Oct-15 19:36
plasma-ani.png 166K2018-Oct-15 19:36
siegemode_timebubble_shield.png 96K2018-Oct-15 19:36
darksov_outlines.png 22K2018-Oct-15 19:36
projectmode17_sru_order_groundscorch.png 151K2018-Oct-15 19:36
lifetap_ghost_08.png 25K2018-Oct-15 19:36
sru_bluebuff_centerglow.png 56K2018-Oct-15 19:36
domeshield.png 145K2018-Oct-15 19:36
fb_grass.png 44K2018-Oct-15 19:36
sru_order_softglow.png 62K2018-Oct-15 19:36
ascxerathrelic.png 170K2018-Oct-15 19:36
sru_redbuffsub_death.png 284K2018-Oct-15 19:36
recall_ranked_wisps.png 187K2018-Oct-15 19:36
sru_redbuff_redtrail.png 46K2018-Oct-15 19:36
darkstarmode_khazix_e_weapontrails_colorblur.png 72K2018-Oct-15 19:36
xerath_base_z_energy_4x4_blur.png 45K2018-Oct-15 19:36
doombotsplayerdarksidedebuff_face.png 148K2018-Oct-15 19:36
flare-rainbow.png 118K2018-Oct-15 19:36
siege_laser_defending_eye_flame.png 138K2018-Oct-15 19:36
darkpathfrost32.png 246K2018-Oct-15 19:36
nocturne_cyber_alphaslice.png 355K2018-Oct-15 19:36
skarner_exoskeleton_base.png 251K2018-Oct-15 19:36
eveflames01.png 38K2018-Oct-15 19:36
blast_nova_22.png 91K2018-Oct-15 19:36
bilgewatermercenary11_ringparticle_pop_slice.png 208K2018-Oct-15 19:36
mastery_crest_06.png 200K2018-Oct-15 19:36
doombots_towerchargesparksviktor_base_r_electri..> 137K2018-Oct-15 19:36
sru_chaos_nexus_cloudsuck.png 62K2018-Oct-15 19:36
doombots_aurelionstarsaurelionsol_base_z_wisps.png 145K2018-Oct-15 19:36
item_frozengauntlet_icesheen.png 294K2018-Oct-15 19:36
bm_sru_riverplane_south_01.png 146K2018-Oct-15 19:36
orianna_assassin_tx_cm.png 259K2018-Oct-15 19:36
sru_baron_tell.png 270K2018-Oct-15 19:36
darkstarmode_z_firealpha.png 35K2018-Oct-15 19:36
ring_teal_01.png 117K2018-Oct-15 19:36
sru_chaos_wispies.png 187K2018-Oct-15 19:36
projectmode17_scannerbot_proximity_6s.png 124K2018-Oct-15 19:36
wavestar_betweenround_forcefieldekko_skin11_w_i..> 70K2018-Oct-15 19:36
color-acidpool.png 13K2018-Oct-15 19:36
sru_baron_tailattack_watersplash.png 63K2018-Oct-15 19:36
sru_tower_explosion_distort.png 139K2018-Oct-15 19:36
poroking_z_fireglow.png 61K2018-Oct-15 19:36
global_summoner_recall_groundlights.png 29K2018-Oct-15 19:36
sru_waterfall_test_small_01.png 102K2018-Oct-15 19:36
tt_fire_04.png 86K2018-Oct-15 19:36
sru_krug_ba_impactsparks_4x4.png 59K2018-Oct-15 19:36
mfx_pow.png 99K2018-Oct-15 19:36
skarner_exoskeleton_rune.png 216K2018-Oct-15 19:36
global_ss_smite_duel_shield_sheen.png 51K2018-Oct-15 19:36
doombots_summoningvisualmissilechild_wisps.png 187K2018-Oct-15 19:36
projectmode17_plant_satchel_ring.png 224K2018-Oct-15 19:36
global_trinket_spotter.png 156K2018-Oct-15 19:36
fb_explosion_cloud.png 165K2018-Oct-15 19:36
global_bots_idle_nightmare_avatar.png 130K2018-Oct-15 19:36
hecarim_spectralrider.png 219K2018-Oct-15 19:36
kogmaw_skin05_q_mis_cannonstreamer.png 137K2018-Oct-15 19:36
recall_ranked_crater_cracks.png 266K2018-Oct-15 19:36
hieroglyphdisc32.png 31K2018-Oct-15 19:36
bw_mirageblade_ground.png 321K2018-Oct-15 19:36
global_ss_clarity_swoosh_2x2.png 86K2018-Oct-15 19:36
sru_order_nexus_cloudsuck.png 72K2018-Oct-15 19:36
explosion01.png 134K2018-Oct-15 19:36
blitzcrank_boxer_tx_cm.png 249K2018-Oct-15 19:35
renekton_runewars_red_tx.png 91K2018-Oct-15 19:35
sru_murkwolf_bite_teeth.png 60K2018-Oct-15 19:35
drmundo_skin08_tx_cm.png 253K2018-Oct-15 19:35
env_mb_fire_01.png 204K2018-Oct-15 19:35
urf_death_heartsplosion_bubble.png 249K2018-Oct-15 19:35
cp_city_antenna_glow.png 62K2018-Oct-15 19:35
sru_baron_roar.png 86K2018-Oct-15 19:35
malphite_glacial_dry_ice_smoke.png 300K2018-Oct-15 19:35
bw_mirageblade_burst.png 163K2018-Oct-15 19:35
forcefield.png 84K2018-Oct-15 19:35
malphite_molten.png 298K2018-Oct-15 19:35
amumu_skin08_ba_tar_splat.png 40K2018-Oct-15 19:35
luxcrashingblitz_holder.png 40K2018-Oct-15 19:35
doombots_towerchargezoneviktor_base_r_electrici..> 137K2018-Oct-15 19:35
sruap_order_nexus_inhibitorsuck.png 120K2018-Oct-15 19:35
sru_razorbeakmini_ba1_trail.png 33K2018-Oct-15 19:35
sru_river_longwhitewavyfoam_mult_01.png 46K2018-Oct-15 19:35
kappanami_skin02_z_sliceshapes.png 120K2018-Oct-15 19:35
siege_roundendceremony_swapmissilechild_wisps.png 187K2018-Oct-15 19:35
darksov_electricity.png 50K2018-Oct-15 19:35
fb_explosion_firering.png 132K2018-Oct-15 19:35
tt_mist_02.png 221K2018-Oct-15 19:35
checkers.png 13K2018-Oct-15 19:35
sru_dragon_drool.png 168K2018-Oct-15 19:35
snowball_mis_snowtrail.png 160K2018-Oct-15 19:35
centipede.png 11K2018-Oct-15 19:35
desecrate.png 285K2018-Oct-15 19:35
ha_chaos_softglow.png 64K2018-Oct-15 19:35
siegemode_flash_electricarcs.png 85K2018-Oct-15 19:35
orianna_goth_tx_cm.png 261K2018-Oct-15 19:35
ground.png 202K2018-Oct-15 19:35
morgana_skin05_ba_tar_cloud.png 163K2018-Oct-15 19:35
skarner_slash_shockwave_orange.png 48K2018-Oct-15 19:35
itemavalanche_shield.png 235K2018-Oct-15 19:35
drmundo_orc_tx_cm.png 273K2018-Oct-15 19:35
darksov_forcetrail.png 152K2018-Oct-15 19:35
amumu_sadrobot_electricity.png 66K2018-Oct-15 19:35
tornado.png 215K2018-Oct-15 19:35
sru_baron_grasp_target.png 404K2018-Oct-15 19:35
sru_wolfden_cloudgroundcover_02.png 86K2018-Oct-15 19:35
sru_krug_ba_impactpuffs_2x2.png 151K2018-Oct-15 19:35
doombots_akali_smokebomb_redakali_base_w_teamri..> 12K2018-Oct-15 19:35
blast_nova_08.png 192K2018-Oct-15 19:35
orange_lightbar.png 58K2018-Oct-15 19:35
ping-mia-base-outer.png 53K2018-Oct-15 19:35
projectmode17_energy_courier_spawn_transition.png 280K2018-Oct-15 19:35
item_dreadnaughtwarplate_trail.png 113K2018-Oct-15 19:35
global_item_healthpotion_cloudpuff.png 77K2018-Oct-15 19:35
tt_chaos_inhibitor_runecountdown_glow.png 29K2018-Oct-15 19:35
ghosts_04.png 50K2018-Oct-15 19:35
sona_base_q_target_hit_beams_4x1.png 35K2018-Oct-15 19:35
sg_chogath_feastbeamillaoi_base_e_beamdamagelig..> 182K2018-Oct-15 19:35
recall_ranked_gradient_gold.png 18742018-Oct-15 19:35
lifebar-mockup.png 37K2018-Oct-15 19:35
starboss_cagevelkoz_skin01_e_tar_firewisps.png 27K2018-Oct-15 19:35
sru_baron_ba1_groundburn.png 145K2018-Oct-15 19:35
victory_light.png 38K2018-Oct-15 19:35
mordekaiser_destroyer_idle_tendrils.png 149K2018-Oct-15 19:35
recall_ranked_energyshot.png 14K2018-Oct-15 19:35
global_ss_smite_aoestun_damagebeam.png 182K2018-Oct-15 19:35
sru_razorbeak_ba1_swoosh.png 43K2018-Oct-15 19:35
alphaslice_mesh.png 150K2018-Oct-15 19:35
arcade_turret_death_corki_skin08_z_dust01.png 54292018-Oct-15 19:35
summoner_battlecry_circle.png 42K2018-Oct-15 19:35
sru_braziers_smoke_blueside_01_mult.png 185K2018-Oct-15 19:35
drmundo_corporate_tx_cm.png 266K2018-Oct-15 19:35
siege_siegecannon_prefirekassadin_skin05_z_star..> 187K2018-Oct-15 19:35
global_item_manapotion_cloudpuff.png 94K2018-Oct-15 19:35
sru_junglebuff_redbuff_health_wisps_2x2.png 61K2018-Oct-15 19:35
pantheon_skin06_z_firealpha.png 35K2018-Oct-15 19:35
siege_emergencyshield_explosion_edgeglow.png 50K2018-Oct-15 19:35
sru_sjungle_redbuff_ambient.png 44K2018-Oct-15 19:35
icechunks_03.png 130K2018-Oct-15 19:35
nocturne_cyber_alphaslice_noise.png 148K2018-Oct-15 19:35
malphite_rockmonster_molten_tx_cm.png 388K2018-Oct-15 19:35
leona_passive_rays.png 25K2018-Oct-15 19:35
bw_river_wateredge_01.png 144K2018-Oct-15 19:35
syndra_skin06_z_sparkles02.png 104K2018-Oct-15 19:35
tristana_skin12_z_lighting_03.png 104K2018-Oct-15 19:35
bw_order_inhibitor_runecountdown_glow.png 39K2018-Oct-15 19:35
siege_emergencyshield_grounddisk.png 95K2018-Oct-15 19:35
hunterscall01.png 51K2018-Oct-15 19:35
sru_river_longwhitewavyfoam_01.png 77K2018-Oct-15 19:35
global_trinket_yellow_greaterplant.png 157K2018-Oct-15 19:35
drmundo_mundo_tx_cm.png 231K2018-Oct-15 19:35
global_ss_heal_wisps_2x2.png 61K2018-Oct-15 19:35
jinx_muzzle_flash.png 44K2018-Oct-15 19:35
xenziou_wind.png 29K2018-Oct-15 19:35
recall_ranked_gradient_blue.png 17222018-Oct-15 19:35
bw_peref_fog_distant.png 72K2018-Oct-15 19:35
item_dusk_mark_all.png 83K2018-Oct-15 19:35
sru_godray_mid_01.png 219K2018-Oct-15 19:35
kogmaw_q_ampen_wisps.png 127K2018-Oct-15 19:35
global_ss_clarity_softrays_4x1.png 37K2018-Oct-15 19:35
ringflare.png 168K2018-Oct-15 19:35
asc_prism_yellow.png 102K2018-Oct-15 19:35
ha_chaos_canm_centerglow.png 56K2018-Oct-15 19:35
item_mirage_blade_main.png 140K2018-Oct-15 19:35
gangplank_base_cast_muzzleflash.png 67K2018-Oct-15 19:35
env_mb_bridgesnow_se_hole_01.png 28K2018-Oct-15 19:35
bm_brazier_flame_temp_01.png 75K2018-Oct-15 19:35
exploshockdust.png 81K2018-Oct-15 19:35
leviathan_01.png 197K2018-Oct-15 19:35
darkpathghost32.png 232K2018-Oct-15 19:35
item_3193_active_overlay.png 200K2018-Oct-15 19:35
global_ss_cleanse_alphaslice.png 208K2018-Oct-15 19:35
bloodring_vlad_bloodking.png 163K2018-Oct-15 19:35
solar_tag.png 80K2018-Oct-15 19:34
global_ss_teleport_core.png 194K2018-Oct-15 19:34
global_stinger_radialgradient.png 145K2018-Oct-15 19:34
siege_crystal_brazier.png 87K2018-Oct-15 19:34
global_ss_clarity_cloudpuff.png 93K2018-Oct-15 19:34
global_ss_revive_glow.png 243K2018-Oct-15 19:34
bw_order_inhibitor_runecountdown.png 155K2018-Oct-15 19:34
anivia_skn5_fog.png 60K2018-Oct-15 19:34
fiora_musketeer.png 299K2018-Oct-15 19:34
poro_explosion_snowpuffs.png 144K2018-Oct-15 19:34
ziggs_skin05_r_edgeglow.png 50K2018-Oct-15 19:34
global_asc_avatar.png 136K2018-Oct-15 19:34
doombots_summoning_teleport_wisp.png 78K2018-Oct-15 19:34
pulverizecylinder02.png 108K2018-Oct-15 19:34
steamgolemshield.png 23K2018-Oct-15 19:34
poppydam_max.png 272K2018-Oct-15 19:34
drmundo_skin08_q_wooddebris.png 57K2018-Oct-15 19:34
sru_waterripple_01.png 262K2018-Oct-15 19:34
diana_skin11_q_smokemult.png 260K2018-Oct-15 19:34
absolutezero05.png 185K2018-Oct-15 19:34
irelia_hitenstyle_passive.png 260K2018-Oct-15 19:34
chaoshqball.png 101K2018-Oct-15 19:34
lifetap_ghost_10.png 37K2018-Oct-15 19:34
poro_shadowisle_aura.png 118K2018-Oct-15 19:34
ring_highres.png 14K2018-Oct-15 19:34
global_trinket_itemclairvoyance_core.png 143K2018-Oct-15 19:34
global_ss_teleport_ring_red.png 82K2018-Oct-15 19:34
assassinmode_kalista_skin01_r_indicator_ring_mu..> 360K2018-Oct-15 19:34
sru_order_wispies.png 195K2018-Oct-15 19:34
global_ss_teleport_flash_red_2x2.png 114K2018-Oct-15 19:34
globalcamouflageshimmer_glow.png 28K2018-Oct-15 19:34
webblood32.png 219K2018-Oct-15 19:34
towershot01.png 206K2018-Oct-15 19:34
global_ss_heal_flash_core_2x2.png 216K2018-Oct-15 19:34
iceshards.png 74K2018-Oct-15 19:34
malphite_obsidian_enraged_tx_cm.png 285K2018-Oct-15 19:34
team_ring.png 39K2018-Oct-15 19:34
waterfall.png 299K2018-Oct-15 19:34
sru_chaos_softglow.png 61K2018-Oct-15 19:34
darkstarmode_energyarcs.png 25K2018-Oct-15 19:34
doombots_bossteemo_nuke_exploteemo_skin08_r_tar..> 51K2018-Oct-15 19:34
wavestar_bomb_explosionziggs_skin05_r_edgeglow.png 50K2018-Oct-15 19:34
fizzshark_skin05_tx_cm.png 173K2018-Oct-15 19:34
kappanami_skin02_z_watertexture.png 92K2018-Oct-15 19:34
darksov_electricityylw.png 50K2018-Oct-15 19:34
darkpath32.png 202K2018-Oct-15 19:34
soraka_cleric_death_ash.png 249K2018-Oct-15 19:34
globalcamouflage_smoke.png 222K2018-Oct-15 19:34
morgana_skin05_w_groundburn_tar.png 246K2018-Oct-15 19:34
bw_peref_windowglow_01.png 89K2018-Oct-15 19:34
sru_baron_grasp_hand.png 190K2018-Oct-15 19:34
global_ss_teleport_glow.png 36K2018-Oct-15 19:34
ha_chaos_wispies.png 192K2018-Oct-15 19:34
pantheon_metal_tx_cm.png 215K2018-Oct-15 19:34
global_bots_idle_nightmare_pulse.png 176K2018-Oct-15 19:34
global_indicator_shafts.png 36K2018-Oct-15 19:34
electricarcs.png 85K2018-Oct-15 19:34
bw_order_puddles.png 112K2018-Oct-15 19:34
morgana_blackthorn_bramble_stripes6.png 35K2018-Oct-15 19:34
ezreal_pulsefire_arcaneshift_cylinder_rainbow.png 64K2018-Oct-15 19:34
sru_krug_ba_4_swipe.png 32K2018-Oct-15 19:34
global_ss_heal_vortex.png 182K2018-Oct-15 19:34
sru_braziers_fire_blueside_02.png 91K2018-Oct-15 19:34
poro_explosion_snowspear.png 124K2018-Oct-15 19:34
akali_merc_blade.png 301K2018-Oct-15 19:34
snowball_snowpuffs.png 144K2018-Oct-15 19:34
celticmalphite_glow.png 263K2018-Oct-15 19:34
blast_nova_spell32.png 236K2018-Oct-15 19:34
fiora_zorro.png 240K2018-Oct-15 19:34
kingporo_snaxeffect_barragebuffsejuani_passive_..> 138K2018-Oct-15 19:34
odin_lock_chain_effects.png 42K2018-Oct-15 19:34
siege_siegecannon_rangetotowerindicator.png 15K2018-Oct-15 19:34
testing_texturebug.png 38K2018-Oct-15 19:34
alphaslice_mesh2.png 208K2018-Oct-15 19:34
sru_river_reflectionisland_mult_01.png 152K2018-Oct-15 19:34
siege_laseraffix_targetconejhin_base_r_viewcone..> 49K2018-Oct-15 19:34
ha_chaos_canm_redtrail.png 47K2018-Oct-15 19:34
darkpath.png 122K2018-Oct-15 19:34
env_mb_wallwind_01.png 85K2018-Oct-15 19:34
global_trinket_greaterspotter.png 167K2018-Oct-15 19:34
sru_fog_groundcover_mult_01.png 140K2018-Oct-15 19:34
tt_order_inhibitor_runecountdown_glow.png 29K2018-Oct-15 19:34
wavestar_riftherald_missileblastbackkassadin_ba..> 89K2018-Oct-15 19:34
jinx_explosion_flat.png 95K2018-Oct-15 19:34
env_mb_shopsouth_itemstuff.png 199K2018-Oct-15 19:34
celticmalphite_molten.png 290K2018-Oct-15 19:34
global_trinket_spotter_dots.png 225K2018-Oct-15 19:34
lulu_skin04_z_coldwisps.png 74K2018-Oct-15 19:34
shockwaveedge-red.png 75K2018-Oct-15 19:34
siegelauncher_galaxyring.png 124K2018-Oct-15 19:34
doombots_summoning_teleport_beam.png 79K2018-Oct-15 19:34
morgana_skin05_r_tar_groundburn.png 170K2018-Oct-15 19:34
orianna_base_tx_cm.png 261K2018-Oct-15 19:34
amumu_sadrobot_oilwaves.png 154K2018-Oct-15 19:34
item_angelhand_buff_tendrils.png 36K2018-Oct-15 19:34
odin_centerrelic_capture_red.png 23K2018-Oct-15 19:34
malphite_glacial_frostsmoke.png 269K2018-Oct-15 19:34
akali_base_w_teamring.png 12K2018-Oct-15 19:34
firehoop.png 79K2018-Oct-15 19:34
malphite_rockmonster_glow_tx_cm.png 371K2018-Oct-15 19:34
tf_light.png 38K2018-Oct-15 19:33
smoke_clouds_2x2_hc.png 254K2018-Oct-15 19:33
sru_riftherald_deadbits_mult.png 74582018-Oct-15 19:33
global_ss_teleport_wake_ring.png 114K2018-Oct-15 19:33
leviathan_03.png 191K2018-Oct-15 19:33
wolfman_arm.png 226K2018-Oct-15 19:33
sru_texturetesting_04.png 28K2018-Oct-15 19:33
kappanami_skin02_z_watertextureadd.png 118K2018-Oct-15 19:33
recall_ranked_gradient_gold_2.png 17202018-Oct-15 19:33
morgana_skin06_q_mis_wispy1x8.png 65K2018-Oct-15 19:33
global_lifesteal_meshswipe.png 69K2018-Oct-15 19:33
void_background.png 342K2018-Oct-15 19:33
bw_order_flashcore.png 61K2018-Oct-15 19:33
quinn_w_falconsharp.png 89K2018-Oct-15 19:33
sru_krugmini_death_mesh.png 422K2018-Oct-15 19:33
bw_peref_waterfall_sidefoam_01.png 111K2018-Oct-15 19:33
ghosts_07.png 51K2018-Oct-15 19:33
alistar_base_r_shield.png 172K2018-Oct-15 19:33
death01.png 37K2018-Oct-15 19:33
siegemode_timebubble_barrier.png 142K2018-Oct-15 19:33
global_ss_flash_godray.png 39K2018-Oct-15 19:33
sru_peref_clouds_02.png 125K2018-Oct-15 19:33
explosion32_02.png 608K2018-Oct-15 19:33
sru_baron_ba_mis_trail.png 50K2018-Oct-15 19:33
env_mb_shopsouth_smokegeo.png 52K2018-Oct-15 19:33
sru_tower_explosion_glow.png 61K2018-Oct-15 19:33
kogmaw_q_ampen_shield_armor.png 163K2018-Oct-15 19:33
energywaves.png 60K2018-Oct-15 19:33
morgana_blackthorn_bramble_stripes4.png 49K2018-Oct-15 19:33
sru_texturetesting_03.png 18K2018-Oct-15 19:33
fiora_base.png 284K2018-Oct-15 19:33
heal01.png 49K2018-Oct-15 19:33
smoky_wisps_bw32.png 56K2018-Oct-15 19:33
fb_lavabase_01.png 129K2018-Oct-15 19:33
lens-halo-sun.png 160K2018-Oct-15 19:33
puppeteer_beam.png 20K2018-Oct-15 19:33
env_mb_bridgewind_se_01.png 34K2018-Oct-15 19:33
bw_peref_godrays.png 207K2018-Oct-15 19:33
zettasmanamanipulator01.png 139K2018-Oct-15 19:33
leviathan_02.png 42K2018-Oct-15 19:33
sg_chogath_feastbeamillaoi_skin01_e_spiritlinka..> 64K2018-Oct-15 19:33
yellow_lightbar.png 59K2018-Oct-15 19:33
pantheon_skin06_z_fire.png 29K2018-Oct-15 19:33
teleporthoop.png 94642018-Oct-15 19:33
gragas_vandals_tx_cm.png 328K2018-Oct-15 19:33
white_lightbar.png 71K2018-Oct-15 19:33
wavestar_roomendexplosionjanna_skin07_z_glow.png 143K2018-Oct-15 19:33
mastery_crest_05.png 189K2018-Oct-15 19:33
kingporo_dropindicator_mult.png 75K2018-Oct-15 19:33
sru_order_groundscorch.png 151K2018-Oct-15 19:33
sru_baron_spawn.png 265K2018-Oct-15 19:33
sru_waterripple_mult_01.png 225K2018-Oct-15 19:33
global_trinket_yellow_miniplant.png 159K2018-Oct-15 19:33
jax_immortal_staff_03.png 143K2018-Oct-15 19:33
global_asc_lightbeams_1x4.png 35K2018-Oct-15 19:33
singed_skin06_q_snow_chunk.png 102K2018-Oct-15 19:33
vayne_skin06_r_buf_trail.png 104K2018-Oct-15 19:33
sru_murkwolf_eyeglow.png 67K2018-Oct-15 19:33
sru_peref_godrays.png 216K2018-Oct-15 19:33
blast_nova_26.png 275K2018-Oct-15 19:33
singed_skin06_q_snow_fill.png 196K2018-Oct-15 19:33
tt_ghosts.png 75K2018-Oct-15 19:33
global_ss_smite_duel_player_beam.png 180K2018-Oct-15 19:33
morgana_skin06_q_tar_cage1x8.png 74K2018-Oct-15 19:33
amumu_sadrobot_emotering.png 30K2018-Oct-15 19:33
sru_dragon_conebreath_curl_01.png 45K2018-Oct-15 19:33
sru_spiritwolf.png 262K2018-Oct-15 19:33
item_blackcleaver_shield_bright.png 50K2018-Oct-15 19:33
hieroglyphdisc.png 54K2018-Oct-15 19:33
lightning_red.png 95K2018-Oct-15 19:33
team_ring_green_defocus.png 39K2018-Oct-15 19:33
anivia_skn5_iceshards_tx.png 90K2018-Oct-15 19:33
katarina_xmas_tx_cm.png 288K2018-Oct-15 19:33
darksov_force.png 24K2018-Oct-15 19:33
sona_pax_pixelaura.png 63K2018-Oct-15 19:33
leona_passive_ringflare.png 110K2018-Oct-15 19:33
fizzbait_skin04_tx_cm.png 244K2018-Oct-15 19:33
tt_fire_purple.png 94K2018-Oct-15 19:33
bilgewatermercenary11_ringparticle_chalkline.png 14K2018-Oct-15 19:33
fizz_fisherman_lobster_tx_cm.png 188K2018-Oct-15 19:33
doombots_towerchargehitviktor_base_r_electricit..> 137K2018-Oct-15 19:33
sru_peref_clouds_05.png 92K2018-Oct-15 19:33
lightbeams.png 24K2018-Oct-15 19:33
reefmalphite_molten.png 360K2018-Oct-15 19:33
sru_waterfall_test_small_02.png 26K2018-Oct-15 19:33
malphite_skin06_z_smoke_01.png 148K2018-Oct-15 19:33
doombots_towerchargebeamviktor_base_r_beam_bolt..> 150K2018-Oct-15 19:33
sru_braziers_smoke_blueside_01.png 28K2018-Oct-15 19:33
odin_centerrelic_capture_blue.png 38K2018-Oct-15 19:33
global_ss_teleport_flash_blue_2x2.png 138K2018-Oct-15 19:33
sru_junglebuff_bluebuff_mana_cloudpuff.png 93K2018-Oct-15 19:33
coin.png 138K2018-Oct-15 19:33
globalinvisibility_smoke.png 157K2018-Oct-15 19:33
waterripple.png 41K2018-Oct-15 19:33
sru_razorbeak_feather.png 69K2018-Oct-15 19:33
siege_swapteamsceremony_ryze_base_w_prison_mult..> 215K2018-Oct-15 19:33
tt_ghost_hair.png 149K2018-Oct-15 19:33
sru_baron_ba1_grounddirt.png 186K2018-Oct-15 19:33
morgana_skin05_w_groundcracks_tar.png 164K2018-Oct-15 19:33
pox_arcana_infernalguardian02.png 105K2018-Oct-15 19:33
sapling_01.png 298K2018-Oct-15 19:33
absolutezero01.png 149K2018-Oct-15 19:33
env_mb_snow_01.png 70162018-Oct-15 19:33
disintegrate02_frost.png 67K2018-Oct-15 19:33
pulverizecylinder10.png 29K2018-Oct-15 19:33
corki_urfrider_tx_cm.png 246K2018-Oct-15 19:33
sg_velkoz_base_taunt_math.png 16K2018-Oct-15 19:33
itemzhonyas_wispcolor.png 211K2018-Oct-15 19:33
global.png 43K2018-Oct-15 19:33
global_ss_teleport_beam_red.png 60K2018-Oct-15 19:33
poro_mis_snowtrail.png 171K2018-Oct-15 19:33
bw_chaos_puddles.png 76K2018-Oct-15 19:33
doombots_bossteemo_nuke_exploteemo_skin08_r_tar..> 146K2018-Oct-15 19:32
sru_redbuffsub.png 284K2018-Oct-15 19:32
bubbles.png 124K2018-Oct-15 19:32
icechunks.png 52K2018-Oct-15 19:32
sru_krug_ba_impactsparks_2x2.png 112K2018-Oct-15 19:32
wisp.png 205K2018-Oct-15 19:32
volibear_runewars_lightning_graphic.png 72K2018-Oct-15 19:32
kogmaw_q_ampen_softrays_4x1.png 37K2018-Oct-15 19:32
tt_spider_web_beam.png 225K2018-Oct-15 19:32
singed_base_w_root_slime.png 269K2018-Oct-15 19:32
global_item_bloodthirster_shield.png 262K2018-Oct-15 19:32
kayle_skin07_e_electric1.png 80K2018-Oct-15 19:32
wavestar_roomendexplosionjanna_skin07_q_galaxy.png 224K2018-Oct-15 19:32
sru_regentowershield_avatar.png 327K2018-Oct-15 19:32
zekes_enraged.png 317K2018-Oct-15 19:32
lens-rainbow.png 109K2018-Oct-15 19:32
morgana_blackthorn_petal.png 91K2018-Oct-15 19:32
sru_riveredging_01.png 43K2018-Oct-15 19:32
sru_baron_rockshards.png 122K2018-Oct-15 19:32
waterripple32.png 33K2018-Oct-15 19:32
global_asc_teleport_wisp.png 78K2018-Oct-15 19:32
recall_ranked_wisp_panner.png 134K2018-Oct-15 19:32
evelynn_bloodball.png 33K2018-Oct-15 19:32
tt_chaos_inhibitor_runecountdown.png 53K2018-Oct-15 19:32
twilight_01.png 77K2018-Oct-15 19:32
kassadin_base_z_glow.png 22462018-Oct-15 19:28
sand_05.png 168K2018-Oct-15 19:28
item_dusk_glow.png 31142018-Oct-15 19:28
darkstarmode_energylinesvert.png 11K2018-Oct-15 19:28
hecarimfirelight_headless.png 51172018-Oct-15 19:28
item_trueice_missile_shard.png 43K2018-Oct-15 19:28
siege_laseraffix_targetconejhin_base_r_viewcone..> 29K2018-Oct-15 19:28
doombots_towerchargezoneviktor_base_r_cas_retic..> 12K2018-Oct-15 19:28
ocklepod_color-bellcurve32.png 3002018-Oct-15 19:28
siege_warppointdamage_tarsaucer01.png 28K2018-Oct-15 19:28
color-ordershop.png 5752018-Oct-15 19:28
project_ring_01.png 28332018-Oct-15 19:28
siegemissilebarrage_missile_rgb.png 9772018-Oct-15 19:28
global_ss_clarity_sparkle2_2x2.png 94142018-Oct-15 19:28
rendingshot04.png 39K2018-Oct-15 19:28
sru_chaos_shopkeeper_ash_orange.png 73722018-Oct-15 19:28
color-bearfiredark.png 30212018-Oct-15 19:28
sru_baron_ba_miss_trail.png 57K2018-Oct-15 19:28
siege_emergencyshield_explosion_centerflare_blu..> 19K2018-Oct-15 19:28
sru_dragon_ba1_centerflare.png 44472018-Oct-15 19:28
sru_eastjungle_waterfall_topfoam_01.png 78452018-Oct-15 19:28
wavestar_betweenround_warningoverlaypurple.png 61522018-Oct-15 19:28
projectmode17_scannerbot_proxy_mult.png 38372018-Oct-15 19:28
silver_rings_02.png 14K2018-Oct-15 19:28
puppeteer_stringdark.png 41K2018-Oct-15 19:28
hydra_cloudy_energy.png 26K2018-Oct-15 19:28
color-hymnofvalor.png 84712018-Oct-15 19:28
bw_item_martyrsgambit_beam.png 59K2018-Oct-15 19:28
sruap_chaos_inhibitor_runecountdown_glow.png 91772018-Oct-15 19:28
shen_sword_05.png 84K2018-Oct-15 19:28
sru_dragon_ba1_centerflare2.png 48682018-Oct-15 19:28
color-hecarimflame.png 3942018-Oct-15 19:28
plasmatrail.png 16K2018-Oct-15 19:28
pantheon_skin06_z_fireflicker.png 50392018-Oct-15 19:28
dirtbits_02.png 18K2018-Oct-15 19:28
gangplank_base_e_ground_shadow.png 14K2018-Oct-15 19:28
poroking_z_avatarcube.png 3902018-Oct-15 19:28
color-blackblink.png 4372018-Oct-15 19:28
morgana_skin05_q_wisps_mis.png 60K2018-Oct-15 19:28
ha_ap_praxiswave_geo_mult.png 13K2018-Oct-15 19:28
evelyn_ability_indicator_01.png 11K2018-Oct-15 19:28
kassadin-darkflame-purple.png 2522018-Oct-15 19:28
sru_braziers_fire_blueside_mult_03.png 17K2018-Oct-15 19:28
sg_velkoz_base_z_rampdown_rgb.png 3132018-Oct-15 19:28
bigglow02.png 26K2018-Oct-15 19:28
doombots_bardcurse_stasis_fullbard_base_r_up_cy..> 42K2018-Oct-15 19:28
sru_junglebuff_dragon_activation_flames01_4x2.png 96612018-Oct-15 19:28
item_blackcleaver_firering.png 31K2018-Oct-15 19:28
global_summoner_lvlup_swirlybeam.png 94082018-Oct-15 19:28
poro_throw_mis_project_particles.png 94142018-Oct-15 19:28
puppeteer_stringdark_mult.png 59092018-Oct-15 19:28
sog_ceremony_barrier_fireline.png 19K2018-Oct-15 19:28
bloodlustup.png 35K2018-Oct-15 19:28
veigar_badsanta_cookie_bits_01.png 76562018-Oct-15 19:28
waypoint_ring_03.png 31K2018-Oct-15 19:28
globaltargethitcircle.png 13K2018-Oct-15 19:28
zephyr.png 17K2018-Oct-15 19:28
electricity.png 26K2018-Oct-15 19:28
doombots_bardcurse_stasis_fullbard_base_q_mis_s..> 15K2018-Oct-15 19:28
sru_riftherald_buff_tentacles_light.png 42K2018-Oct-15 19:28
sru_riftherald_directionalblood_4x2.png 61K2018-Oct-15 19:28
global_item_elixirofsorcery_glow.png 16K2018-Oct-15 19:28
kapparainbowring32.png 14K2018-Oct-15 19:28
global_miss.png 17K2018-Oct-15 19:28
flare-rainbow_white_01.png 35K2018-Oct-15 19:28
flare-sun_12.png 36K2018-Oct-15 19:28
sru_riftherald_portalopen_flaremult.png 18K2018-Oct-15 19:28
coin01.png 2072018-Oct-15 19:28
doombots_bossteemo_nuke_incomingziggs_skin05_z_..> 32K2018-Oct-15 19:28
doombots_bossteemo_nuke2_incomingteemomushroom_..> 13K2018-Oct-15 19:28
color-lightning-darkgreen.png 11862018-Oct-15 19:28
cp_windowglow_02.png 10K2018-Oct-15 19:28
icicle.png 44K2018-Oct-15 19:28
sg_sparks.png 18522018-Oct-15 19:28
gemglow.png 28K2018-Oct-15 19:28
sru_baron_skin02_tailattack_tail.png 16K2018-Oct-15 19:28
sru_peref_clouds.png 5982018-Oct-15 19:28
sru_chaos_turret1_godrays.png 27K2018-Oct-15 19:28
color-dragonattack.png 3412018-Oct-15 19:28
tristanamissle.png 15K2018-Oct-15 19:28
color-electricity.png 3302018-Oct-15 19:28
wavestar_channelteleportjanna_skin07_bokeh_colo..> 66K2018-Oct-15 19:28
swain_grand_shadowgrasp_swirl_red.png 12K2018-Oct-15 19:28
sru_chaos_shaperay.png 10K2018-Oct-15 19:28
wavestar_roomendexplosionjanna_skin07_r_nebula_..> 82382018-Oct-15 19:28
color-fuzzyshad.png 3612018-Oct-15 19:28
color_singed_skin06_r_snow.png 8052018-Oct-15 19:28
orbarrow.png 18K2018-Oct-15 19:28
wavestar_spawningmonsterempty32.png 12072018-Oct-15 19:28
blank.png 752018-Oct-15 19:28
doombots_curse_ryze_base_r_start_enemyryze_base..> 1992018-Oct-15 19:28
siege_glow_distort.png 30K2018-Oct-15 19:28
assassinmode_buf_stack_blendt.png 11K2018-Oct-15 19:28
sru_chaos_cracks.png 16K2018-Oct-15 19:28
siegemode_obliterator_narrowbeam_blue.png 25K2018-Oct-15 19:28
zekes_base_r_red_overlay.png 2072018-Oct-15 19:28
sru_chaos_cm_ba_tar_tex.png 10K2018-Oct-15 19:28
timebombsphere-green.png 32932018-Oct-15 19:28
global_ss_cleanse_color-slice.png 5572018-Oct-15 19:28
recall_ranked_energyswoosh.png 14K2018-Oct-15 19:28
quest_buf_ring_04.png 20K2018-Oct-15 19:28
morgana_skin06_ba_mis_bluetrail.png 37K2018-Oct-15 19:28
sru_tower_explosion_ring.png 14K2018-Oct-15 19:28
hunterscall_eff2__base__p-rgba.png 7862018-Oct-15 19:28
hotshot.png 93752018-Oct-15 19:28
wavestar_shopkeeperspawnsightward_skin63_rainbo..> 94372018-Oct-15 19:28
projectmode17_teleportpad_trianglewhole.png 14K2018-Oct-15 19:28
poro_throw_mis_project_z_blur_01.png 15K2018-Oct-15 19:28
siege_laser_defending_eye_glow.png 91282018-Oct-15 19:28
headbutt08.png 23K2018-Oct-15 19:28
flare-sun_27.png 20K2018-Oct-15 19:28
bilgewatermercenary11_ringparticle_flash.png 25122018-Oct-15 19:28
urf_death_orbitallaser_beam.png 49412018-Oct-15 19:28
missfortune_skin07_w_debuff_dripblack.png 1652018-Oct-15 19:28
color-lulu_dragontrainer_bluepurp.png 32762018-Oct-15 19:28
ocklepod_aura_self.png 54482018-Oct-15 19:28
bw_foglow_01.png 25K2018-Oct-15 19:28
shadow_step_poison_01.png 99692018-Oct-15 19:28
flesheater_blast_nova_crystal.png 51K2018-Oct-15 19:28
ziggs_skin05_r_aoering.png 23362018-Oct-15 19:28
sru_crab_spawn_wave_mult.png 83072018-Oct-15 19:28
drmundo_skin08_w_sun.png 39K2018-Oct-15 19:28
doombots_towerchargehitflare-sun_02.png 80552018-Oct-15 19:28
project_bowel_01.png 23572018-Oct-15 19:28
doombots_curse_ryze_base_r_start_enemyryze_base..> 33052018-Oct-15 19:28
blast_ring_05.png 76222018-Oct-15 19:28
urf_death_urf_sparkles.png 53652018-Oct-15 19:28
shield-map.png 42392018-Oct-15 19:28
chaos_inhibit_gem_inside.png 12K2018-Oct-15 19:28
flicker_04.png 13K2018-Oct-15 19:28
waypoint_ring_01.png 33K2018-Oct-15 19:28
doombotsplayerdarksidedebuff_circleground.png 66K2018-Oct-15 19:28
kappanami_skin02_z_firefly.png 25762018-Oct-15 19:28
kingporo_snaxeffect_barrageflare-omnimax.png 24K2018-Oct-15 19:28
lightning_10.png 90022018-Oct-15 19:28
sg_starsprite.png 86792018-Oct-15 19:28
deathgrasp_02.png 37K2018-Oct-15 19:28
sru_gromp_ba_orb.png 30162018-Oct-15 19:28
global_ss_teleport_beam.png 85362018-Oct-15 19:28
tricksters_glass_flare-sun_10.png 17K2018-Oct-15 19:28
sru_regentowershield_lines_color-trail.png 17002018-Oct-15 19:28
chaosturretfire_trail.png 18K2018-Oct-15 19:28
morgana_skin05_w_lightfog_tar.png 31K2018-Oct-15 19:28
spirit-trail02.png 36102018-Oct-15 19:28
swain_grand_plasma_scroll.png 24K2018-Oct-15 19:28
crystal_overlay_02.png 104K2018-Oct-15 19:28
color_tt_firefly_glow_b.png 2402018-Oct-15 19:28
nocturne_cyber_q_galaxy_trail.png 23K2018-Oct-15 19:28
rayfire.png 11K2018-Oct-15 19:28
color-buildingflash.png 24012018-Oct-15 19:28
sru_riftherald_relic_sheen_avatar.png 41K2018-Oct-15 19:28
smokechim01.png 60502018-Oct-15 19:28
sru_njungle_leaves.png 27922018-Oct-15 19:28
color-bloodpool-proj.png 5152018-Oct-15 19:28
global_item_boc_glow.png 64K2018-Oct-15 19:28
zilean_base_p_beam.png 25K2018-Oct-15 19:28
global_summoner_death_ally_fill_rgba.png 17922018-Oct-15 19:28
sru_river_wake_01.png 16162018-Oct-15 19:28
projectmode17_energycourier_spawn_readyflash.png 28K2018-Oct-15 19:28
mm_shrine_spark.png 14K2018-Oct-15 19:28
beacontrail32.png 37K2018-Oct-15 19:28
darkstarmode_lanternzonepoppy_base_w_shield_edg..> 36K2018-Oct-15 19:28
evelynn_groundspikes.png 42K2018-Oct-15 19:28
lunarrevel_victory_z_glowstar_01.png 18362018-Oct-15 19:28
doombots_towerchargesparksviktor_base_r_bolts.png 22K2018-Oct-15 19:28
doombots_towerchargebeamcolor-rampdown32_03.png 2802018-Oct-15 19:28
color-candleflame.png 10162018-Oct-15 19:28
anivia_skn5_softshockwave.png 75302018-Oct-15 19:28
wavestar_fishthing_shieldbeamcolor-hold.png 792018-Oct-15 19:28
global_item_bloodthirster_spinners.png 80212018-Oct-15 19:28
malphite_skin06_z_ring_01.png 32K2018-Oct-15 19:28
morgana_skin05_ba_wisps_mis.png 60K2018-Oct-15 19:28
vertlines.png 15K2018-Oct-15 19:28
sg_velkoz_base_z_bellramp_rgba.png 21942018-Oct-15 19:28
ring02.png 81282018-Oct-15 19:28
headbutt01.png 27K2018-Oct-15 19:28
akali_base_w_ring.png 29K2018-Oct-15 19:28
ward_s3champ_idle_spark.png 14K2018-Oct-15 19:28
doombots_bardcurse_stasis_fullbard_base_r_cosmi..> 57K2018-Oct-15 19:28
item_ardentcenser_buff_glow_ramp.png 3242018-Oct-15 19:28
global_summoner_recall_streak_02.png 53952018-Oct-15 19:28
doombotsplayerdarkside_fakemushroombufteemo_ski..> 57K2018-Oct-15 19:28
siege_emergencyshield_speed_flash.png 23K2018-Oct-15 19:28
singed_megaadhesive_color32.png 13702018-Oct-15 19:28
ring_white.png 30K2018-Oct-15 19:28
env_mb_bridgewind_trail_01.png 23K2018-Oct-15 19:28
ezreal_pulsefire_upgraydd_flares_vert.png 88122018-Oct-15 19:28
bw_order_turret_sparks_4x1.png 27K2018-Oct-15 19:28
dodger.png 11K2018-Oct-15 19:28
morgana_base_q_tar_color_cib.png 16752018-Oct-15 19:28
sru_baron_deathbreath_breath_goop.png 16K2018-Oct-15 19:28
dead_shards_02.png 12K2018-Oct-15 19:28
defaultfalloff.png 1182018-Oct-15 19:28
malphite_glacial_blasthole_slice.png 72K2018-Oct-15 19:28
siege_missileshards_2x2_blue.png 10K2018-Oct-15 19:28
talon_tri_blade_02.png 42K2018-Oct-15 19:28
chogath_battlecast_decal.png 21K2018-Oct-15 19:28
sru_explosion_smoke.png 15K2018-Oct-15 19:28
chogath_battlecast_bullet.png 46312018-Oct-15 19:28
amumu_sadrobot_ultcables.png 10K2018-Oct-15 19:28
order_turret_boom.png 37K2018-Oct-15 19:28
global_asc_lightbeams_sprite.png 25K2018-Oct-15 19:28
butterfly01.png 88712018-Oct-15 19:28
crystalball.png 54K2018-Oct-15 19:28
tiamat_cloudy_energy.png 26K2018-Oct-15 19:28
sg_velkoz_base_ba_sparks_rgba.png 18512018-Oct-15 19:28
wavestar_channellux_skin06_r_radialwisps.png 42492018-Oct-15 19:28
color-greenlightning.png 12422018-Oct-15 19:28
sru_river_sparkle_mult_01.png 93K2018-Oct-15 19:28
color-waterfallmist32.png 21962018-Oct-15 19:28
doombots_yasuo_warningyasuo_passive_distort.png 32K2018-Oct-15 19:28
global_item_elixirofruin_dustcloud.png 40K2018-Oct-15 19:28
sru_krug_mis_mesh.png 69K2018-Oct-15 19:28
sru_gromp_death_sporetex.png 29K2018-Oct-15 19:28
global_silence.png 86532018-Oct-15 19:28
cable.png 12472018-Oct-15 19:28
singed_experiment_poisoncolor.png 43232018-Oct-15 19:28
global_stinger_deathexplo_purple.png 90102018-Oct-15 19:28
sru_eastjungle_waterfall_shoretopedge_01.png 74742018-Oct-15 19:28
fang_spike_red.png 36K2018-Oct-15 19:28
zilean_skin05_ba_mis_glow.png 14612018-Oct-15 19:28
doombots_towerchargezoneviktor_base_r_cas_groun..> 4612018-Oct-15 19:28
sru_sjungle_wispfly.png 24972018-Oct-15 19:28
color-waterfade32_02.png 11K2018-Oct-15 19:28
firebeam.png 42872018-Oct-15 19:28
voidbeam.png 23K2018-Oct-15 19:28
spawn_project_boweltop_01.png 22432018-Oct-15 19:28
chaosturretfire_blackhole.png 23482018-Oct-15 19:28
ocklepod_attack_missile.png 28K2018-Oct-15 19:28
sru_baron_deathbreath_poolbright.png 11K2018-Oct-15 19:28
chaos_nexus_gem_inside.png 11K2018-Oct-15 19:28
sg_velkoz_base_z_white.png 792018-Oct-15 19:28
color-orange.png 6272018-Oct-15 19:28
hex_buf_01.png 34082018-Oct-15 19:28
siege_emergencyshield_explosion_energylinesvert..> 11K2018-Oct-15 19:28
color-blood_taric.png 19862018-Oct-15 19:28
wavestar_roomendexplosionjanna_skin07_r_lensfla..> 35K2018-Oct-15 19:28
sru_inhibitor_chaos_tower_beam.png 71K2018-Oct-15 19:28
blowdart04.png 17K2018-Oct-15 19:28
global_item_spiritthorn_flare01.png 15K2018-Oct-15 19:28
siege_emergencyshield_explosion_sphere.png 50K2018-Oct-15 19:28
doombots_akali_smokebomb_redcolor-smoke32_02.png 2972018-Oct-15 19:28
order_nexus_wipe.png 10462018-Oct-15 19:28
global_ss_heal_swirl.png 22K2018-Oct-15 19:28
sru_order_basedoor_arearing.png 24K2018-Oct-15 19:28
kingporo_snaxeffect_barrageaoe_leona_base_z_col..> 10262018-Oct-15 19:28
color-firecolumn.png 12942018-Oct-15 19:28
soundwave_blue_hit_tar_p-rgba.png 6962018-Oct-15 19:28
global_ss_teleport_rampin.png 5142018-Oct-15 19:28
waterwake.png 86632018-Oct-15 19:28
tt_capture_alters.png 37752018-Oct-15 19:28
darkstarmode_energybackvert.png 18352018-Oct-15 19:28
slowtrail.png 59382018-Oct-15 19:28
auras.png 13K2018-Oct-15 19:28
darkstarmode_roundendpowerbeammorgana_skin11_z_..> 70K2018-Oct-15 19:28
sru_junglebuff_raptor_buff_ring.png 26K2018-Oct-15 19:28
sru_riftherald_buff_isolation_tentacles_mult.png 23K2018-Oct-15 19:28
siegetestminionflashmodelred.png 38K2018-Oct-15 19:28
doombots_bardcurse_explobard_base_r_explo_symbo..> 2722018-Oct-15 19:28
sru_dragon_ba2_mesh_spikes.png 28K2018-Oct-15 19:28
color-bandages.png 3012018-Oct-15 19:28
sru_fog_whispies_01.png 13K2018-Oct-15 19:28
bw_sparkle.png 8032018-Oct-15 19:28
doombotsplayerdarkside_fakemushroombufteemo_ski..> 14K2018-Oct-15 19:28
sword_02.png 22K2018-Oct-15 19:28
zed_shadowswirls.png 52K2018-Oct-15 19:28
wavestar_riftherald_missileexplosionball32_02.png 23K2018-Oct-15 19:28
recalltimer.png 61042018-Oct-15 19:28
marqueelights.png 86612018-Oct-15 19:28
doombots_bardcurse_stasis_quietbard_base_r_cosm..> 57K2018-Oct-15 19:28
ha_ap_healthicon_diff.png 12K2018-Oct-15 19:28
sru_riftherald_portalring.png 12K2018-Oct-15 19:28
doombots_giantdart_exploclouds32.png 39K2018-Oct-15 19:28
sru_riftherald_spinattack_swipespikes.png 29K2018-Oct-15 19:28
siege_order_deployableteleporter_idle_glow_blue..> 3362018-Oct-15 19:28
bw_plundercrab_ba_smoketrail.png 39K2018-Oct-15 19:28
ziggs_skin05_z_praxis.png 13K2018-Oct-15 19:28
kappaahri_castlight.png 68572018-Oct-15 19:28
gragascask.png 23K2018-Oct-15 19:28
fb_brazierfire_ash_01.png 71372018-Oct-15 19:28
item_trueice_hit_matoverride.png 28K2018-Oct-15 19:28
mastery_sparks_06.png 30262018-Oct-15 19:28
color-ring_gold.png 17K2018-Oct-15 19:28
global_asc_teleport_glow.png 82342018-Oct-15 19:28
doombots_curse_karthus_base_p_override.png 101K2018-Oct-15 19:28
wavestar_revive_invulntaric_base_r_outerring.png 21K2018-Oct-15 19:28
barrelpiece.png 33K2018-Oct-15 19:28
color-brandblaze.png 35862018-Oct-15 19:28
sru_waterring.png 40K2018-Oct-15 19:28
mist_trail2.png 46K2018-Oct-15 19:28
sru_chaos_ringtexture.png 69142018-Oct-15 19:28
soraka_cleric_idle.png 15K2018-Oct-15 19:28
urf_death_orbitallaser_glow_blue.png 12K2018-Oct-15 19:28
blue_turret_crystal_glow.png 16K2018-Oct-15 19:28
sru_tower_explosion_spherediff.png 10K2018-Oct-15 19:28
dominion_crystal_blue_in32.png 30K2018-Oct-15 19:28
item_blackcleaver_shield_new.png 28K2018-Oct-15 19:28
theyarecoming_mark_distort_rgba.png 3082018-Oct-15 19:28
color-reddown32.png 17992018-Oct-15 19:28
sru_baron_cm_ba_mis_tex.png 50732018-Oct-15 19:28
sru_sigil_speed_blur_01.png 41352018-Oct-15 19:28
sound_waves_styled_01.png 24K2018-Oct-15 19:28
wave04.png 99K2018-Oct-15 19:28
guardianangel04.png 30K2018-Oct-15 19:28
barracksballcenter.png 17K2018-Oct-15 19:28
doombots_towerchargehitcolor-hold.png 792018-Oct-15 19:28
amumu_skin08_color_streamers.png 9392018-Oct-15 19:28
color-zed_skn1_lightningflicker.png 45392018-Oct-15 19:28
tiamat_impact_flare.png 27502018-Oct-15 19:28
color-wellfog.png 99372018-Oct-15 19:28
sru_grounddirt.png 14K2018-Oct-15 19:28
galio_base_e_wind_mis.png 28K2018-Oct-15 19:28
graves_skin05_q_return_wave_texures.png 19K2018-Oct-15 19:28
color-fogpurple.png 10522018-Oct-15 19:28
ghost_overlay_20.png 49K2018-Oct-15 19:28
alpha_02_fade.png 12452018-Oct-15 19:28
stipple.png 168K2018-Oct-15 19:28
wavestar_boss_dashindicatorgnar_base_w_big_beam..> 2752018-Oct-15 19:28
orbarrow32.png 3722018-Oct-15 19:28
zap-reticle.png 72682018-Oct-15 19:28
sru_junglebuff_wolf_marker_2x2.png 74632018-Oct-15 19:28
alpha_20_04.png 32542018-Oct-15 19:28
wavestar_riftherald_missileexplosionvoidslash.png 79082018-Oct-15 19:28
color-mejaissoulsteeler.png 14722018-Oct-15 19:28
global_item_sunfirecape_indicator_noise.png 16K2018-Oct-15 19:28
sg_bokeh_color.png 54K2018-Oct-15 19:28
waterspot.png 16K2018-Oct-15 19:28
runeprison.png 17K2018-Oct-15 19:28
morgana_skin06_e_tar_sphere.png 86822018-Oct-15 19:28
global_ss_cleanse_color-bellcurve32.png 3002018-Oct-15 19:28
sg_trail_wisp.png 47852018-Oct-15 19:28
sru_waterfall_plane_01.png 12K2018-Oct-15 19:28
lava01.png 37K2018-Oct-15 19:28
seismicshard.png 40K2018-Oct-15 19:28
sru_brightsparks_teal.png 37282018-Oct-15 19:28
color-flamejump-blue.png 76512018-Oct-15 19:28
kingporo_snaxeffect_firerumble_skin03_r_flames_..> 24K2018-Oct-15 19:28
crystal_shards.png 17K2018-Oct-15 19:28
color-terrorize.png 6462018-Oct-15 19:28
eyeline64.png 6632018-Oct-15 19:28
irelia_frostblade_color_iceshards.png 40432018-Oct-15 19:28
kingporo_snaxeffect_barragecolor-hold.png 792018-Oct-15 19:28
flare-sun_15.png 28K2018-Oct-15 19:28
sru_baron_acidball_ballpraxis.png 20K2018-Oct-15 19:28
mfx_hiteffect.png 88702018-Oct-15 19:28
doombots_curse_ryze_base_r_character_finderryze..> 23K2018-Oct-15 19:28
darkstarmode_energylines2side.png 14K2018-Oct-15 19:28
wavestar_shopkeeperoverlaykassadin_skin05_z_sta..> 58K2018-Oct-15 19:28
sru_chaos_flashcore.png 65902018-Oct-15 19:28
color-anivia_skn5_quickramp.png 8272018-Oct-15 19:28
color-blink.png 2302018-Oct-15 19:28
malphite_glacial_rockbits.png 31K2018-Oct-15 19:28
rockbits.png 21K2018-Oct-15 19:28
color-redflash.png 2602018-Oct-15 19:28
sru_dragon_death_mult.png 13K2018-Oct-15 19:28
color-aura-green.png 9142018-Oct-15 19:28
siege_emergencyshield_barragespark_rampdown_rgb..> 1732018-Oct-15 19:28
doombots_yasuo_wallyasuo_base_w_windwall_groud_..> 57692018-Oct-15 19:28
doombots_bardcurse_windupbard_base_w_glow_mult.png 54K2018-Oct-15 19:28
annie.png 59K2018-Oct-15 19:28
color-blackfluid32.png 16472018-Oct-15 19:28
sru_order_turret1_blastwave.png 25K2018-Oct-15 19:28
sru_order_flashcore.png 61882018-Oct-15 19:28
flesheater_skarner_plasma_electricity_01.png 11K2018-Oct-15 19:28
fn_universal_bellcurve_blue_001.png 8102018-Oct-15 19:28
projectmode17_aura_self.png 54482018-Oct-15 19:28
bw_ironback_spear_03.png 84K2018-Oct-15 19:28
sru_junglebuff_redbuff_marker_2x2.png 73102018-Oct-15 19:28
sru_turret_ba_sparkle_2x2.png 15K2018-Oct-15 19:28
swain_grand_morph_color.png 3572018-Oct-15 19:28
morgana_skin05_q_tar_disintegrate.png 24K2018-Oct-15 19:28
cp_tree_leaves_blue.png 36942018-Oct-15 19:28
darkstarmode_shockwave.png 75302018-Oct-15 19:28
darkstarmode_roundendvacuumillaoi_skin01_z_soft..> 34242018-Oct-15 19:28
bloodlust_cas.png 23K2018-Oct-15 19:28
arrow_directional_red.png 7132018-Oct-15 19:28
sru_baron_tail_flash.png 2972018-Oct-15 19:28
nocturne_cyber_passive.png 49K2018-Oct-15 19:28
global_ss_smite_duel_shield_sheildflat.png 45K2018-Oct-15 19:28
hex_rings_01.png 14K2018-Oct-15 19:28
bw_chaos_startingplatform_bluegem.png 9272018-Oct-15 19:28
color_singed_skin06_q_snow_fill.png 26882018-Oct-15 19:28
order_nexus_gem_inside.png 11K2018-Oct-15 19:28
sru_cloud_explosion_mult.png 23K2018-Oct-15 19:28
deathcard.png 46K2018-Oct-15 19:28
darkstarmode_powerqtest_varus_tentacles_light_m..> 48K2018-Oct-15 19:28
siege_warppoint_minionscoredball32_02.png 23K2018-Oct-15 19:28
siege_warppointdamage_beamcolor-holyfervor.png 21742018-Oct-15 19:28
edgeline.png 8712018-Oct-15 19:28
sru_riftherald_eye_wisps.png 37K2018-Oct-15 19:28
empty32.png 12072018-Oct-15 19:28
rhyzesparks01.png 50352018-Oct-15 19:28
arrow_indicator_02.png 14502018-Oct-15 19:28
flare-rainbow_blue_05.png 96842018-Oct-15 19:28
sg_velkoz_base_z_rampdown_rgba.png 14422018-Oct-15 19:28
siege_laser_defending_dots.png 13K2018-Oct-15 19:28
sru_baron_rune_1.png 20K2018-Oct-15 19:28
witsend01.png 15K2018-Oct-15 19:28
sru_dragon_ba2_flash.png 68352018-Oct-15 19:28
sru_chaos_squar.png 51172018-Oct-15 19:28
headbutt09.png 24K2018-Oct-15 19:28
wow_base_z_orbglow.png 16K2018-Oct-15 19:28
kassadin_base_z_voidbackground_02.png 53K2018-Oct-15 19:28
doombots_curse_ryze_base_r_being_teleportedryze..> 23K2018-Oct-15 19:28
sru_chaos_laserturret_banner.png 14K2018-Oct-15 19:28
color-exhaustflame.png 5942018-Oct-15 19:28
wavestar_bomb_explosionflare-omnimax.png 24K2018-Oct-15 19:28
trailfire.png 81K2018-Oct-15 19:28
sru_spawn_readyflash.png 28K2018-Oct-15 19:28
kogmaw_q_ampen_color-hold.png 792018-Oct-15 19:28
projectmode17_sru_chaos_brightspikes_3x1.png 15K2018-Oct-15 19:28
sru_eastjungle_waterfall_swirlsteam_mult_01.png 10K2018-Oct-15 19:28
color-bellcurve3.png 3512018-Oct-15 19:28
dark_energy_01.png 56182018-Oct-15 19:28
projectmode17_overcharge_speedbuff_trail.png 10K2018-Oct-15 19:28
kingporo_snaxeffect_firerumble_skin03_r_flameme..> 59992018-Oct-15 19:28
global_ss_ignite_burst.png 20K2018-Oct-15 19:28
item_dusk_mark_circle_weapon.png 16K2018-Oct-15 19:28
halo.png 82552018-Oct-15 19:28
ball.png 13K2018-Oct-15 19:28
sru_baron_death_groundflare.png 96502018-Oct-15 19:28
snowball_sparkle.png 33832018-Oct-15 19:28
color-rainbow.png 3032018-Oct-15 19:28
ziggs_icicle_tx.png 53K2018-Oct-15 19:28
siege_siegecannon_missileheimerdinger_base_r_me..> 22K2018-Oct-15 19:28
zeke_frostmult.png 58K2018-Oct-15 19:28
doombotsplayerdarksidedebuff_smoke_mult.png 22K2018-Oct-15 19:28
mastery_sparks_05.png 30972018-Oct-15 19:28
waypoint_symbol_01.png 88912018-Oct-15 19:28
sru_order_basedoor_groundglow_top.png 24K2018-Oct-15 19:28
sru_fog_largepillow_mult_01.png 82K2018-Oct-15 19:28
spike_03.png 14K2018-Oct-15 19:28
sru_riftherald_portal_stars.png 83K2018-Oct-15 19:28
summoner_banish.png 98652018-Oct-15 19:28
sru_bluebuff_sparks.png 53832018-Oct-15 19:28
color-tt_speedplat_streaks.png 31632018-Oct-15 19:28
sru_waterfall_plane_mult_01.png 23K2018-Oct-15 19:28
hunterscall02.png 23K2018-Oct-15 19:28
wavestar_riftherald_frenzyreksai_skin01_burrowe..> 37K2018-Oct-15 19:28
sru_chaos_nexus_crystal.png 47K2018-Oct-15 19:28
darkstarmode_powerqvarus_skin06_q_mis_ribbon.png 97932018-Oct-15 19:28
hecarim_weapontrail_q.png 18K2018-Oct-15 19:28
color-rampdown32_04.png 2722018-Oct-15 19:28
wavestar_bomb_explosionziggs_skin05_z_ash.png 29592018-Oct-15 19:28
morgana_skin05_r_tar_centerflare.png 21K2018-Oct-15 19:28
hungeringstrike02_red.png 25K2018-Oct-15 19:28
color-explosion.png 9382018-Oct-15 19:28
sg_riftherald_explosion1_color_hold.png 862018-Oct-15 19:28
color-explosiondark.png 13492018-Oct-15 19:28
sru_order_turret1_smokeclouda01.png 58K2018-Oct-15 19:28
eyeball01.png 15K2018-Oct-15 19:28
sruap_chaosturret1_rubble_crack_mult.png 10K2018-Oct-15 19:28
siege_emergencyshield_barragespark_trench.png 33K2018-Oct-15 19:28
wood_shards_03.png 13K2018-Oct-15 19:28
voidtile2.png 38K2018-Oct-15 19:28
nut_02.png 31062018-Oct-15 19:28
wavestar_bomb_explosionziggs_skin05_z_energylin..> 11K2018-Oct-15 19:28
destinypupil.png 42352018-Oct-15 19:28
color-healrune_cross.png 47652018-Oct-15 19:28
sru_snowdown_firefly.png 33K2018-Oct-15 19:28
color-armordillospin.png 38692018-Oct-15 19:28
maokaipassiveready.png 98442018-Oct-15 19:28
sru_razorbeak_spit_4x4.png 92782018-Oct-15 19:28
kingporo_snaxeffect_firerumble_skin03_r_flameme..> 11K2018-Oct-15 19:28
leaf_rot_01.png 74682018-Oct-15 19:28
mana_flare_01.png 11K2018-Oct-15 19:28
ezreal_pulsefire_acrane_lines.png 10K2018-Oct-15 19:28
color-celticslag.png 16202018-Oct-15 19:28
sru_tower_explosion_ringsuck_mult.png 30K2018-Oct-15 19:28
color-cib.png 19942018-Oct-15 19:28
ring_blue_07.png 31K2018-Oct-15 19:28
fire_energy_01.png 49922018-Oct-15 19:28
sru_dragonfly_tx_cm.png 42K2018-Oct-15 19:28
forcepulseready.png 98442018-Oct-15 19:28
sru_shardquick.png 61K2018-Oct-15 19:28
aura_add.png 35K2018-Oct-15 19:28
item_dusk_mark2_add.png 40K2018-Oct-15 19:28
darkstarmode_crabalanchewarningaura_self.png 54482018-Oct-15 19:28
bowglow.png 92942018-Oct-15 19:28
righteousfurycircle.png 11K2018-Oct-15 19:28
sru_baron_avalanche_fade.png 3702018-Oct-15 19:28
env_mb_highwind_01.png 46K2018-Oct-15 19:28
wavestar_bomb_explosionziggs_skin05_r_bookdisso..> 11K2018-Oct-15 19:28
doombots_yasuo_wallyasuo_wind_mult_text.png 23K2018-Oct-15 19:28
temp_itemblackout_2x2.png 13K2018-Oct-15 19:28
streamer.png 13K2018-Oct-15 19:28
circularchampionindicator.png 15K2018-Oct-15 19:28
doombots_summoningvisualmissile_white.png 792018-Oct-15 19:28
doombots_bardcurse_explobard_base_q_sparks.png 46K2018-Oct-15 19:28
shieldswipe.png 17K2018-Oct-15 19:28
env_mb_brazier_dust.png 20K2018-Oct-15 19:28
shadow_step_23.png 99442018-Oct-15 19:28
sruap_chaos_basedoor_blue.png 56K2018-Oct-15 19:28
alpha_06.png 26382018-Oct-15 19:28
color-darkpath32.png 11282018-Oct-15 19:28
sru_junglebuff_baron_meleemin_shield.png 77082018-Oct-15 19:28
sru_wjungle_magic_01.png 18K2018-Oct-15 19:28
sru_order_inhibitor_brightflash.png 35972018-Oct-15 19:28
sru_river_longwhitewavyfoam_fat_01.png 15K2018-Oct-15 19:28
obj_em_shard06.png 8402018-Oct-15 19:28
global_item_bloodthirster_glow.png 64K2018-Oct-15 19:28
projectmode17_scannerbot_proximity_circle.png 29K2018-Oct-15 19:28
rebirthready.png 17K2018-Oct-15 19:28
env_mb_shopsouth_black_ground.png 18K2018-Oct-15 19:28
color-snowball_frostbrand.png 12992018-Oct-15 19:28
sorakasparks02.png 34K2018-Oct-15 19:28
sru_chaos_laserturret_chestglow.png 26K2018-Oct-15 19:28
wavestar_betweenround_warningoverlay.png 63322018-Oct-15 19:28
sru_waterdragon_rune.png 34K2018-Oct-15 19:28
darkstarmode_lanternzonepoppy_base_w_shield_woo..> 71K2018-Oct-15 19:28
sru_baroncrackdark_swirl_01.png 57K2018-Oct-15 19:28
zilean_skin05_ba_tar_wispmult.png 101K2018-Oct-15 19:28
sru_fire_blueside_fireglow.png 43K2018-Oct-15 19:28
wavestar_channelteleportjanna_skin07_w_hit_rgb.png 5672018-Oct-15 19:28
item_trueice_chunk.png 104K2018-Oct-15 19:28
global_trinket_itemclairvoyance_meshwingmask01.png 44K2018-Oct-15 19:28
sru_butterfly_tx_cm.png 13K2018-Oct-15 19:28
darkstarmode_r_sphere.png 50K2018-Oct-15 19:28
evelynnring.png 31K2018-Oct-15 19:28
color-cardfade.png 9092018-Oct-15 19:28
color-blueincinerate.png 24812018-Oct-15 19:28
sru_wjungle_bluecenterglow_2.png 13K2018-Oct-15 19:28
item_blackcleaver_shield.png 29K2018-Oct-15 19:28
sru_junglebuff_redbuff_health_flash_core_2x2.png 39K2018-Oct-15 19:28
ezreal_pulsefire_rays_shaft.png 30K2018-Oct-15 19:28
sru_river_waterlily_01.png 19K2018-Oct-15 19:28
sru_razorbeakmini_skin01_chickenfeathers.png 92942018-Oct-15 19:28
color-ordershild-flash.png 7742018-Oct-15 19:28
poof_02.png 90K2018-Oct-15 19:28
zilean_skin05_q_indicator_outerring_mult.png 20962018-Oct-15 19:28
global_ss_teleport_ring.png 85132018-Oct-15 19:28
siege_laser_defending_eye_sparkle_blue.png 74622018-Oct-15 19:28
global_debilitate_slash.png 87222018-Oct-15 19:28
square-mask.png 26K2018-Oct-15 19:28
global_item_elixirofiron_sparkle_4x4.png 12K2018-Oct-15 19:28
sru_bluedeath_dustcloud.png 24K2018-Oct-15 19:28
siege_laser_f1_ball32_02.png 23K2018-Oct-15 19:28
doombots_curse_karthus_base_p_suckin_ground.png 50K2018-Oct-15 19:28
fiora_weapontrail.png 13K2018-Oct-15 19:28
wavestar_riftherald_missileblastbackkassadin_ba..> 24022018-Oct-15 19:28
alphaslice_circle.png 24K2018-Oct-15 19:28
multipleuvsets_test.png 22462018-Oct-15 19:28
red_set_01.png 80K2018-Oct-15 19:28
sru_order_rollingfog_mult_01.png 18K2018-Oct-15 19:28
ha_pororay_groundmesh.png 53K2018-Oct-15 19:28
sru_spacebar_godray_softray.png 20K2018-Oct-15 19:28
light_flare_blue.png 13K2018-Oct-15 19:28
color-hecarimflame2.png 3572018-Oct-15 19:28
doombots_bardcurse_stasis_fullbard_base_r_explo..> 2722018-Oct-15 19:28
arcane_nature_energy_red.png 13K2018-Oct-15 19:28
projectmode17_digislash.png 89572018-Oct-15 19:28
sru_fountain_heal_01.png 13K2018-Oct-15 19:28
darkstarmode_distort-soft-shockwave.png 32K2018-Oct-15 19:28
tt_capture_alters_solid.png 11262018-Oct-15 19:28
obj_em_shard10.png 6732018-Oct-15 19:28
fizztrident_arctic.png 22K2018-Oct-15 19:28
untitled-1.png 23K2018-Oct-15 19:28
urf_death_heartsplosion_column.png 27K2018-Oct-15 19:28
wavestar_revive_invulntaric_base_q_star.png 51122018-Oct-15 19:28
sru_order_trail.png 12K2018-Oct-15 19:28
color-darkblood.png 14422018-Oct-15 19:28
sru_order_turret_activation_verticalglow.png 22K2018-Oct-15 19:28
morgana_skin05_w_tarpool_tar.png 98232018-Oct-15 19:28
sru_ambientglow.png 26K2018-Oct-15 19:28
ezreal_pulsefire_essenceflux_mis_color.png 25112018-Oct-15 19:28
boil01.png 38K2018-Oct-15 19:28
darkstarmode_lantern_ring_01.png 45K2018-Oct-15 19:28
wavestar_shopkeeperspawnsightward_skin63_slicer..> 20K2018-Oct-15 19:28
ha_chaos_inhibitor_respawn_glow.png 92492018-Oct-15 19:28
spike_test.png 20K2018-Oct-15 19:28
darkstarmode_lanternzoneglobal_ss_heal_glow-sof..> 13K2018-Oct-15 19:28
sru_riftherald_deadbits_pieces.png 11K2018-Oct-15 19:28
sru_river_sparke_stars_01.png 23K2018-Oct-15 19:28
siege_barracks_buff_color-flame-red.png 28922018-Oct-15 19:28
swain_grand_uvtrans.png 21112018-Oct-15 19:28
bounty32.png 26572018-Oct-15 19:28
trans-vladnbladeback.png 36202018-Oct-15 19:28
sru_riftherald_portal_shadow.png 14K2018-Oct-15 19:28
doombots_bardcurse_explobard_base_p_speed_flash..> 23K2018-Oct-15 19:28
morgana_base_q_tar_color_shafts.png 25312018-Oct-15 19:28
edgetrail.png 2582018-Oct-15 19:28
sru_junglebuff_dragon_activation_dragon_trail.png 37K2018-Oct-15 19:28
sru_waterfall_test_small_highlight_01.png 86372018-Oct-15 19:28
enemycircle.png 18K2018-Oct-15 19:28
darkstarmode_energymote.png 13K2018-Oct-15 19:28
asc_avatar_sparkle.png 70572018-Oct-15 19:28
absolutezerowind01.png 25K2018-Oct-15 19:28
ziggs_skin05_q_scroll.png 13K2018-Oct-15 19:28
projectmode17_distortionbubble_normal.png 45752018-Oct-15 19:28
sru_chaos_laserturret_banner_blue.png 18K2018-Oct-15 19:28
trailgivehaste.png 16K2018-Oct-15 19:28
sru_riftherald_smoke_dust_gray.png 68K2018-Oct-15 19:28
kingporo_snaxeffect_firecolor-flamethrower.png 11K2018-Oct-15 19:28
kingporo_snaxeffect_firerumble_skin03_r_flameme..> 21K2018-Oct-15 19:28
sruap_chaosturret1_ambientglow.png 19K2018-Oct-15 19:28
color-rampdown03.png 3182018-Oct-15 19:28
tt_junglebuff_wolf_marker_2x2.png 76242018-Oct-15 19:28
direction-arrow.png 23K2018-Oct-15 19:28
sru_order_nexus_magic_2.png 59K2018-Oct-15 19:28
darkstarmode_enterarenaendflashsru_spawn_readyf..> 28K2018-Oct-15 19:28
global_ss_smite_player_beamup.png 17K2018-Oct-15 19:28
porosnack_glow.png 17772018-Oct-15 19:28
hungeringstrike03red.png 45K2018-Oct-15 19:28
env_mb_highwind_belowbridge_01.png 34K2018-Oct-15 19:28
doombots_curse_ryze_base_r_start_enemyaura_self..> 54482018-Oct-15 19:28
wavestar_roomendexplosionjanna_skin07_z_stargri..> 11K2018-Oct-15 19:28
sru_baron_deathbreath_pool.png 41K2018-Oct-15 19:28
kayle_skn6_bubble.png 34K2018-Oct-15 19:28
doombots_yasuo_warningcolor_yasuo_base_passvive..> 18822018-Oct-15 19:28
siege_siegecannon_lasersight_beam.png 16K2018-Oct-15 19:28
color-fogblue.png 11622018-Oct-15 19:28
sru_baron_tentacle_active_rgb.png 1482018-Oct-15 19:28
gore.png 91K2018-Oct-15 19:28
ziggs_skin05_z_energy.png 33442018-Oct-15 19:28
sru_baroncrack_clouds_01.png 89K2018-Oct-15 19:28
item_junglelichbane_ring.png 33902018-Oct-15 19:28
color-bubbleripples.png 4912018-Oct-15 19:28
global_ss_teleport-color_red.png 5642018-Oct-15 19:28
wavestar_riftherald_missileexplosioncolor-rampd..> 3092018-Oct-15 19:28
global_item_elixirofwrath_darkglow.png 26K2018-Oct-15 19:28
color-orderwave.png 20282018-Oct-15 19:28
ocillate32.png 96082018-Oct-15 19:28
chogath_battlecast_dirtspike.png 59K2018-Oct-15 19:28
darkstarmode_z_distort.png 54482018-Oct-15 19:28
slow_fade_in_out_p-rgba.png 31742018-Oct-15 19:28
teammarker01.png 86492018-Oct-15 19:28
sru_njungle_airclouds.png 17K2018-Oct-15 19:28
voidballadd.png 31212018-Oct-15 19:28
purify02.png 34K2018-Oct-15 19:28
doombots_towerchargezoneviktor_base_r_cas_retic..> 25152018-Oct-15 19:28
color-rampdown.png 3092018-Oct-15 19:28
color-bugs.png 32K2018-Oct-15 19:28
color-darkdust.png 37232018-Oct-15 19:28
projectmode17_scannerbot_proximity_circleglow.png 21K2018-Oct-15 19:28
color-bloodspray32_02.png 11K2018-Oct-15 19:28
check.png 15K2018-Oct-15 19:28
talon_bone_02.png 19K2018-Oct-15 19:28
sru_dragonpit_watersplashes_01.png 39K2018-Oct-15 19:28
item_mirage_blade_sandmound_shapemult.png 44K2018-Oct-15 19:28
poro_shadowisle_puffs.png 36K2018-Oct-15 19:28
sru_eastjungle_waterfall_plane_mult_01.png 23K2018-Oct-15 19:28
sru_crab_speedbuff_color.png 155K2018-Oct-15 19:28
test-dot.png 26922018-Oct-15 19:28
siege_siegecannon_impactillaoi_base_r_braum_bas..> 31K2018-Oct-15 19:28
sru_river_shore_01.png 18K2018-Oct-15 19:27
sonicring.png 56962018-Oct-15 19:27
sru_river_sparke_stars_01_mult.png 21K2018-Oct-15 19:27
sru_bluebuff_armclouds2.png 22K2018-Oct-15 19:27
tiamat03.png 39K2018-Oct-15 19:27
morgana_skin05_w_groundcracks_tar_mult.png 42K2018-Oct-15 19:27
bw_wispfly_01.png 19892018-Oct-15 19:27
snowflake_sam_02.png 10K2018-Oct-15 19:27
zilean_skin05_q_timebomb_centerpiece.png 17K2018-Oct-15 19:27
siege_siegecannon_missileheimerdinger_base_q_tu..> 29K2018-Oct-15 19:27
projectmode17_augfrag_get5.png 19002018-Oct-15 19:27
doombots_akali_smokebomb_redcolor-smack.png 2582018-Oct-15 19:27
poro_shadowisle_puffs_mult.png 65K2018-Oct-15 19:27
global_lifesteal_strands_2x2.png 24K2018-Oct-15 19:27
temp_itemglacialspikeenemy_w_praxiswave_tex.png 21K2018-Oct-15 19:27
color-hunterscall2.png 18702018-Oct-15 19:27
gembeam_red_fire.png 33K2018-Oct-15 19:27
siege_bard_base_r_up_cylinder.png 42K2018-Oct-15 19:27
mm_glow.png 70202018-Oct-15 19:27
beamlong.png 37692018-Oct-15 19:27
sru_eastjungle_waterfall_splashedge_01.png 53K2018-Oct-15 19:27
sorakaba.png 88342018-Oct-15 19:27
projectmode17_distort-shockwave.png 22K2018-Oct-15 19:27
ringswirl_blur.png 11K2018-Oct-15 19:27
gembeam_blue.png 19K2018-Oct-15 19:27
leaf_dead_02.png 16K2018-Oct-15 19:27
global_trinket_itemclairvoyance_funnel.png 76292018-Oct-15 19:27
kappadistort-heat.png 32K2018-Oct-15 19:27
sru_riftherald_relic_lightcracks.png 65K2018-Oct-15 19:27
shockwaves_02.png 22552018-Oct-15 19:27
tree.png 11K2018-Oct-15 19:27
ha_chaos_canm_sparks.png 75132018-Oct-15 19:27
zeke_fireswirl.png 25K2018-Oct-15 19:27
bw_ship_movement_crest.png 20K2018-Oct-15 19:27
sru_order_explosion_smoke.png 13K2018-Oct-15 19:27
sru_chaos_sparkles.png 12K2018-Oct-15 19:27
sru_junglebuff_baron_siegemin_tar_praxiswave.png 13K2018-Oct-15 19:27
item_questcomplete_stars1.png 13012018-Oct-15 19:27
doombots_curse_ryze_base_r_start_enemyryze_base..> 27K2018-Oct-15 19:27
talon_dagger_04.png 13K2018-Oct-15 19:27
color-vladhealtrail.png 2662018-Oct-15 19:27
fn_universal_lightswipe.png 27K2018-Oct-15 19:27
sonatrail.png 84962018-Oct-15 19:27
color-songofdiscord.png 60442018-Oct-15 19:27
chodino_dust.png 19K2018-Oct-15 19:27
globalcamouflage_smoke_mult.png 80K2018-Oct-15 19:27
mummy02.png 59K2018-Oct-15 19:27
chogath_base_w_mask.png 39922018-Oct-15 19:27
eh_noxus_explosion_smoke_mult.png 23K2018-Oct-15 19:27
color-bearfire.png 26722018-Oct-15 19:27
global_trinket_spotter_color-radar.png 4852018-Oct-15 19:27
doombotsplayerdarksidedebuff_praxis.png 47K2018-Oct-15 19:27
siege_order_teleporter_idle_glow_blue.png 3362018-Oct-15 19:27
swain_grand_color_aboveray.png 3802018-Oct-15 19:27
monkeyking_skin05_cloud_tx_cm.png 48K2018-Oct-15 19:27
voidline.png 13522018-Oct-15 19:27
color-rampdownsmoke32.png 3392018-Oct-15 19:27
darkstarmode_roundendpowerbeammorgana_skin11_z_..> 22062018-Oct-15 19:27
global_ss_cleanse_flakes.png 95202018-Oct-15 19:27
wavestar_riftherald_screamreksai_base_q_electri..> 32K2018-Oct-15 19:27
sru_junglebuff_dragon_activation.png 15K2018-Oct-15 19:27
wavestar_roomendexplosionjanna_skin07_r_slicest..> 22K2018-Oct-15 19:27
dimension.png 47K2018-Oct-15 19:27
amumu_skin08_r_edge_mult.png 32122018-Oct-15 19:27
sru_firedragon_rune_shimmer.png 60K2018-Oct-15 19:27
global_ss_ghost_linger.png 60K2018-Oct-15 19:27
sru_order_platform_godraysparkles.png 38682018-Oct-15 19:27
color-waterbug_brown.png 18942018-Oct-15 19:27
timebombsphere-red.png 31452018-Oct-15 19:27
doombots_bossteemo_portalteemo_skin14_r_lensfla..> 57K2018-Oct-15 19:27
ha_ap_sphere_diff.png 36932018-Oct-15 19:27
global_summoner_death_sphere_rgba.png 8002018-Oct-15 19:27
sru_order_color.png 1132018-Oct-15 19:27
demonblade_wind_black.png 19K2018-Oct-15 19:27
ping-defend.png 16K2018-Oct-15 19:27
puppeteer_string_mult.png 58512018-Oct-15 19:27
dust01.png 20642018-Oct-15 19:27
sru_baron_death_smoke_mult.png 17K2018-Oct-15 19:27
color-tears.png 22042018-Oct-15 19:27
global_summoner_recall_color_fade.png 2962018-Oct-15 19:27
global_stealth_eye_open_new.png 47K2018-Oct-15 19:27
poisongascloud.png 33K2018-Oct-15 19:27
wavestar_fishthing_shieldcolor-hold.png 792018-Oct-15 19:27
blast_ring_gold.png 27K2018-Oct-15 19:27
wavestar_riftherald_missile_tarvoidslash.png 79082018-Oct-15 19:27
invis_runes_01.png 24K2018-Oct-15 19:27
color-doomcandle.png 25442018-Oct-15 19:27
amumu_skin08_r_edge_mult2.png 33K2018-Oct-15 19:27
color-holdhalf.png 2082018-Oct-15 19:27
doombots_akali_smokebomb_redakali_base_w_teamri..> 5192018-Oct-15 19:27
color-c-red32.png 2062018-Oct-15 19:27
slash01.png 21K2018-Oct-15 19:27
global_ss_ignite_ashes.png 88652018-Oct-15 19:27
spellflux-light.png 97052018-Oct-15 19:27
aracde_floatingpixel_corki_skin08_z_glowpixel.png 7832018-Oct-15 19:27
sru_njungle_nh_magic.png 60K2018-Oct-15 19:27
item_questcomplete_stars5.png 22442018-Oct-15 19:27
projectmode17_blastcone_tar_trail.png 67922018-Oct-15 19:27
orianna_base_z_color-distortbell32.png 9982018-Oct-15 19:27
global_item_spiritthorn_blastring.png 18K2018-Oct-15 19:27
hextech_buf_01.png 30312018-Oct-15 19:27
mfx_orb_trail_blue.png 24K2018-Oct-15 19:27
doombots_curse_ryze_base_r_unit_destinationryze..> 77812018-Oct-15 19:27
tt_chaos_supertrail.png 13K2018-Oct-15 19:27
lux-colorblitz.png 5672018-Oct-15 19:27
mortal_strike.png 86072018-Oct-15 19:27
assassinmode_oni_alert.png 42K2018-Oct-15 19:27
sru_baron_deathbreath_breath_goop_mult.png 24K2018-Oct-15 19:27
lifeforce.png 12K2018-Oct-15 19:27
ashe_freljord_sparkle.png 33832018-Oct-15 19:27
siege_barracks_buff_avataroverlay-blue.png 43082018-Oct-15 19:27
doombots_towerchargesparkscolor-flicker.png 40K2018-Oct-15 19:27
projectmode17_bw_chaos_buildup_mult.png 70K2018-Oct-15 19:27
theyarecoming_mark_normal.png 45K2018-Oct-15 19:27
lunarrevel_victory_glowstar_02.png 85952018-Oct-15 19:27
poro_battlecast_idle_smoke_01.png 96972018-Oct-15 19:27
destinyiris32_green.png 51K2018-Oct-15 19:27
sru_crab_ba1_clumps.png 15582018-Oct-15 19:27
relic_shield.png 29952018-Oct-15 19:27
kingporo_snaxeffect_barragefuzzyshad.png 66872018-Oct-15 19:27
fountainheal01.png 14K2018-Oct-15 19:27
weaponstreak11.png 10K2018-Oct-15 19:27
ezreal_pulsefire_arcane_squares_01.png 78622018-Oct-15 19:27
sru_dragon_death_groundburn.png 17K2018-Oct-15 19:27
waterripples.png 66K2018-Oct-15 19:27
sru_river_watercaustics_01_mult.png 30K2018-Oct-15 19:27
kingporo_spit_splash_2x2.png 33K2018-Oct-15 19:27
sg_velkoz_base_z_distort_pinch.png 31K2018-Oct-15 19:27
irelia_wisps.png 97542018-Oct-15 19:27
sog_ceremony_barrier_areasphere_mult.png 31K2018-Oct-15 19:27
color-icewind32.png 30062018-Oct-15 19:27
projectmode17_sru_chaos_explosion_smoke.png 14K2018-Oct-15 19:27
global_ss_smite_steal_monster_base.png 54K2018-Oct-15 19:27
assassinmode_oni_alert_pulse.png 96122018-Oct-15 19:27
pantheon_skin06_z_helix.png 50K2018-Oct-15 19:27
chogath_battlecast_eye_glow.png 57162018-Oct-15 19:27
bw_piratesymbol_tagged.png 11K2018-Oct-15 19:27
darkstarmode_khazix_e_weapontrails_galaxy.png 57K2018-Oct-15 19:27
ha_ap_explosion_clumps.png 39642018-Oct-15 19:27
cannonbarrage_x_red.png 11K2018-Oct-15 19:27
sru_baron_acidball_indicator.png 34K2018-Oct-15 19:27
sru_pebbles_4x4.png 37K2018-Oct-15 19:27
doombots_yasuo_warningcolor_yasuo_skin01_tornad..> 45822018-Oct-15 19:27
darkstarmode_roundendpowerbeammorgana_skin11_z_..> 18992018-Oct-15 19:27
doombots_bardcurse_stasis_quietbard_base_p_shri..> 14K2018-Oct-15 19:27
itemzhonyas_glow.png 39K2018-Oct-15 19:27
bw_chaos_inhibitor_runecountdown_glow.png 95812018-Oct-15 19:27
recall_ranked_helix.png 45K2018-Oct-15 19:27
siege_emergencyshield_explosionball32_02.png 23K2018-Oct-15 19:27
morgana_skin06_q_mis_trail.png 56492018-Oct-15 19:27
anivia_skn5_wisps.png 20K2018-Oct-15 19:27
purplecapotecell.png 46002018-Oct-15 19:27
disintegratehit.png 47K2018-Oct-15 19:27
rengar_ult_base.png 782018-Oct-15 19:27
sru_eastjungle_waterfall_shoretop_01.png 86322018-Oct-15 19:27
flesheater_glows.png 23692018-Oct-15 19:27
blue.png 42752018-Oct-15 19:27
sru_baron_death_fire.png 81232018-Oct-15 19:27
color-bluedust32.png 24552018-Oct-15 19:27
lunarrevel_victory_emptyspawner.png 692018-Oct-15 19:27
darkstarmode_sog_ceremony_barriersru_chaos_base..> 19K2018-Oct-15 19:27
sru_sigil_motes_01.png 11K2018-Oct-15 19:27
poroking_energymult.png 57K2018-Oct-15 19:27
siege_siegecannon_impactillaoi_skin01_q_smoke_v..> 97012018-Oct-15 19:27
ha_ap_ringtexture.png 14K2018-Oct-15 19:27
global_summoner_recall_color_purplefade.png 2092018-Oct-15 19:27
voidblade_glow.png 17K2018-Oct-15 19:27
global_item_elixirofruin_nova.png 34K2018-Oct-15 19:27
bigglow.png 72042018-Oct-15 19:27
ha_chaos_sparks.png 57152018-Oct-15 19:27
leona_color_rampdown.png 3372018-Oct-15 19:27
sru_riftherald_relic_pieces_pink.png 96492018-Oct-15 19:27
endlessrage03.png 17K2018-Oct-15 19:27
vayne_skin06_r_buf_trail2.png 21K2018-Oct-15 19:27
sg_velkoz_base_z_flare_purp.png 83442018-Oct-15 19:27
sru_waterfall_test_small_highlight_mult_01.png 26K2018-Oct-15 19:27
renekton_r_ground_darken_14.png 28K2018-Oct-15 19:27
purplewizball.png 30K2018-Oct-15 19:27
darkstarmode_enterarenaendflashcolor-bellcurve7..> 3452018-Oct-15 19:27
sru_airdragon_rune.png 36K2018-Oct-15 19:27
doombots_curse_ryze_base_r_teleport_readyryze_b..> 84362018-Oct-15 19:27
item_dusk_brightsparks.png 31572018-Oct-15 19:27
flare-sun_lightblue.png 28K2018-Oct-15 19:27
kingporo_heal_ring_color.png 6482018-Oct-15 19:27
color-fogtan.png 15782018-Oct-15 19:27
mastery_sparks_02.png 25752018-Oct-15 19:27
diana_skin11_q_glow.png 39K2018-Oct-15 19:27
ziggs_skin05_z_energymult.png 57K2018-Oct-15 19:27
amumu_skin08_q_mis_tip.png 48652018-Oct-15 19:27
nocturne_cyber_tail_glow2.png 10K2018-Oct-15 19:27
ha_ap_dust_small_mult_buildings.png 10K2018-Oct-15 19:27
kassadin_base_q_chargemask.png 24022018-Oct-15 19:27
sog_ceremony_barrier_areasphere.png 58K2018-Oct-15 19:27
color-browndust.png 14822018-Oct-15 19:27
ha_chaos_nexus_dustspikes_3x1.png 18K2018-Oct-15 19:27
global_summoner_recall_pulsering.png 15K2018-Oct-15 19:27
doombots_brushfirecolor-hotsparks.png 18682018-Oct-15 19:27
airspirit_blue.png 54K2018-Oct-15 19:27
color-hecarimenergydust_headless.png 3322018-Oct-15 19:27
doombots_summoning_teleport_glow.png 82342018-Oct-15 19:27
color-energywaves-red.png 26642018-Oct-15 19:27
item_trueice_hit_matoverridetrans.png 4142018-Oct-15 19:27
boots_captain_slice.png 30K2018-Oct-15 19:27
pantheon_skin06_z_spear_tx.png 23422018-Oct-15 19:27
katarina_pirate.png 78K2018-Oct-15 19:27
projectmode17_color-rampdown32.png 2652018-Oct-15 19:27
bubble.png 39482018-Oct-15 19:27
sru_dragon_firebreath_trail.png 13K2018-Oct-15 19:27
global_trinket_itemclairvoyance_coreglow.png 82K2018-Oct-15 19:27
sru_baron_tailattack_tail.png 18K2018-Oct-15 19:27
purple_turret_crystal_glow.png 16K2018-Oct-15 19:27
wavestar_channelteleportjanna_skin07_z_stargrid..> 42K2018-Oct-15 19:27
global_item_boc_spinners.png 80392018-Oct-15 19:27
siege_laser_ring_cas.png 13K2018-Oct-15 19:27
sru_dustcloud_mult.png 30K2018-Oct-15 19:27
coinshadow.png 17K2018-Oct-15 19:27
alpha_16.png 24452018-Oct-15 19:27
doombots_curse_ryze_base_r_end_enemyryze_base_r..> 55K2018-Oct-15 19:27
shockwaveedge-blue.png 22K2018-Oct-15 19:27
multivfx_pass_test_mult.png 25K2018-Oct-15 19:27
color-colorbells32.png 3782018-Oct-15 19:27
doombots_akali_smokebomb_redflare-rainbow_yello..> 82702018-Oct-15 19:27
fountain01.png 42K2018-Oct-15 19:27
blowdart01.png 22K2018-Oct-15 19:27
global_asc_teleport_blowingsand_rgba.png 56302018-Oct-15 19:27
kassadin_base_z_praxiswave.png 13K2018-Oct-15 19:27
bw_waterring.png 17K2018-Oct-15 19:27
sru_forest_polen_needles_01.png 67072018-Oct-15 19:27
amumu_skin08_w_cloud_mult.png 93302018-Oct-15 19:27
ring_green_02.png 44K2018-Oct-15 19:27
acidbubbles.png 4632018-Oct-15 19:27
global_ss_smite_player_damagebeam.png 15K2018-Oct-15 19:27
color-bloodsmoke32.png 1952018-Oct-15 19:27
doombots_curse_ryze_base_r_end_enemyryze_base_z..> 33052018-Oct-15 19:27
sru_dragon_ba2_impact_grounddirt.png 44K2018-Oct-15 19:27
color-hecarim_skn3_spectrum.png 3062018-Oct-15 19:27
flarepurple.png 31K2018-Oct-15 19:27
siege_siegecannon_impactillaoi_base_w_softalpha..> 63392018-Oct-15 19:27
siege_emergencyshield_sparks.png 26K2018-Oct-15 19:27
bw_chaos_turret_sparks_4x1.png 28K2018-Oct-15 19:27
doombots_curse_ryze_base_r_being_teleportedryze..> 80722018-Oct-15 19:27
sruap_chaos_nexus_crackglow.png 68K2018-Oct-15 19:27
smoke_fade_01.png 5982018-Oct-15 19:27
env_hermitbot_exhaust.png 51K2018-Oct-15 19:27
doombots_aurelionstarsaurelionsol_base_p_smalls..> 39K2018-Oct-15 19:27
weaponstreak16.png 15K2018-Oct-15 19:27
siege_emergencyshield_speed_swirl_mult.png 72K2018-Oct-15 19:27
color-nexus-explo.png 12232018-Oct-15 19:27
sru_order_basedoor_groundglow_bottom_red.png 26K2018-Oct-15 19:27
darkstarmode_color-rampdown32.png 2652018-Oct-15 19:27
tt_order_poolglow.png 45K2018-Oct-15 19:27
darkstarmode_roundendpowerbeammorgana_skin11_z_..> 12K2018-Oct-15 19:27
amumu_sadrobot_oilwaves2.png 44K2018-Oct-15 19:27
sru_dragon_ba1_flames_4x4.png 28K2018-Oct-15 19:27
doombots_towerchargehitflare-sun.png 24K2018-Oct-15 19:27
rite_of_ruin_radialhalo_sat.png 44102018-Oct-15 19:27
wavestar_roomendexplosionlux_skin06_q_mis_spark..> 16K2018-Oct-15 19:27
hecarim_skn4_rainbowarc.png 56K2018-Oct-15 19:27
siege_roundendceremony_swapmissilechild_backbla..> 21K2018-Oct-15 19:27
urf_death_heartsplosion_ring.png 12K2018-Oct-15 19:27
sru_chaos_shopkeeper_weaponrack_sparkle.png 9032018-Oct-15 19:27
wavestar_manaorb_tarchildlulu_skin06_w_trail_03..> 17K2018-Oct-15 19:27
hungeringstrike02.png 23K2018-Oct-15 19:27
sru_chaos_turret1_crackray.png 32112018-Oct-15 19:27
item_dusk_mark_circle_sub.png 45622018-Oct-15 19:27
talon_base_w_mis_02_spark.png 48592018-Oct-15 19:27
bow-essenceflux.png 38K2018-Oct-15 19:27
color-bombground.png 3122018-Oct-15 19:27
sru_bluebuff_dustspikes_6x1.png 35K2018-Oct-15 19:27
doombots_giantdart_mis2color-cib.png 19942018-Oct-15 19:27
sru_junglebuff_bluebuff_marker_2x2.png 96462018-Oct-15 19:27
sru_riftherald_portal_stars_mesh.png 76K2018-Oct-15 19:27
sg_velkoz_base_r_darkglow.png 32K2018-Oct-15 19:27
evelynn_yelloweye.png 57322018-Oct-15 19:27
temp_item_healtrail_color.png 17002018-Oct-15 19:27
darksov_crushwave.png 15K2018-Oct-15 19:27
color-fireballtrail.png 15672018-Oct-15 19:27
ha_chaos_poolglow.png 12K2018-Oct-15 19:27
sword_01.png 24K2018-Oct-15 19:27
bm_sru_river_waterlily_01.png 18K2018-Oct-15 19:27
sru_junglebuff_dragon_activation_buff_01.png 55K2018-Oct-15 19:27
clairvoyance_eye_red.png 27K2018-Oct-15 19:27
arcade_turret_death_corki_skin08_z_hiteffect.png 15K2018-Oct-15 19:27
color-cleanse.png 14472018-Oct-15 19:27
iceblock01.png 93K2018-Oct-15 19:27
wavestar_riftherald_missile_tarcolor-rampdown.png 3092018-Oct-15 19:27
asc_relic_timer_ring_mult.png 11372018-Oct-15 19:27
dustpuffs.png 71K2018-Oct-15 19:27
wavestar_shopkeeperoverlaykassadin_base_z_voidb..> 25K2018-Oct-15 19:27
global_item_elixirofruin_glow.png 16K2018-Oct-15 19:27
global_asc_teleport_transition.png 69K2018-Oct-15 19:27
sru_spacebar_godray_arrowmult.png 23K2018-Oct-15 19:27
sru_groundburn.png 15K2018-Oct-15 19:27
doombots_bardcurse_stasis_fullbard_base_r_spark..> 26K2018-Oct-15 19:27
sru_waterfall_topfoam_01.png 78512018-Oct-15 19:27
ha_ap_praxis_geo.png 25K2018-Oct-15 19:27
ezreal_pulsefire_hexagon.png 63582018-Oct-15 19:27
dirtbits_marble_02.png 30K2018-Oct-15 19:27
doombots_curse_ryze_base_r_start_enemyryze_base..> 69032018-Oct-15 19:27
global_ss_smite_4x4_embers.png 11K2018-Oct-15 19:27
ezreal_pulsefire_minion_death_lines.png 98302018-Oct-15 19:27
sru_junglebuff_monsterburn_fire_3x3.png 33K2018-Oct-15 19:27
sru_order_poolglow.png 11K2018-Oct-15 19:27
porotoss_spinup_arrows_ice02.png 101K2018-Oct-15 19:27
sru_peref_clouds_03.png 36K2018-Oct-15 19:27
netherstride_grimoire.png 17K2018-Oct-15 19:27
axis.png 2212018-Oct-15 19:27
kingporo_snaxeffect_barragexerath_skin04_z_impa..> 93K2018-Oct-15 19:27
poroking_z_dustring_geo_tex.png 10K2018-Oct-15 19:27
darkstarmode_lanternzonepoppy_base_p_beams_4x1.png 13K2018-Oct-15 19:27
global_asc_teleport_matoverride.png 50K2018-Oct-15 19:27
na_universal_spikeray_blue_001.png 17K2018-Oct-15 19:27
color-rodofages.png 15232018-Oct-15 19:27
syndra_justicar_corruptglow.png 23K2018-Oct-15 19:27
ping-areaiswarded-base.png 16K2018-Oct-15 19:27
hex_blade_01.png 82K2018-Oct-15 19:27
ha_ambientglow_purple.png 97432018-Oct-15 19:27
flareblue.png 30K2018-Oct-15 19:27
sru_crab_dashflare-rainbow_purp_01.png 72952018-Oct-15 19:27
siege_laser_defending_glowring.png 72K2018-Oct-15 19:27
doombotsplayerdarksidedebuff_lensflare2.png 13K2018-Oct-15 19:27
slow01.png 30K2018-Oct-15 19:27
sru_chaos_activation_flash.png 29K2018-Oct-15 19:27
color-darkbound.png 18282018-Oct-15 19:27
wavestar_shopkeeperoverlaycolor-hold.png 792018-Oct-15 19:27
sru_order_platform_godrays.png 29K2018-Oct-15 19:27
wavestar_channellux_skin06_bokeh_color.png 54K2018-Oct-15 19:27
sru_order_fogbase_01.png 30K2018-Oct-15 19:27
monkeyking_skin05_cube.png 3902018-Oct-15 19:27
evravage.png 10K2018-Oct-15 19:27
galio_gatekeeper_shieldtex.png 52K2018-Oct-15 19:27
timebombsphere.png 34632018-Oct-15 19:27
ha_clouds_purple.png 10K2018-Oct-15 19:27
kogmaw_q_ampen_color-bellcurve32.png 3002018-Oct-15 19:27
allycircle.png 16K2018-Oct-15 19:27
divineblessing02.png 25K2018-Oct-15 19:27
shatter_ice.png 12K2018-Oct-15 19:27
urf_death_orbitallaser_groundspears.png 70K2018-Oct-15 19:27
global_ss_heal_beam.png 40722018-Oct-15 19:27
global_item_healthpotion_4x4_sparkle.png 84312018-Oct-15 19:27
ziggs_general.png 89K2018-Oct-15 19:27
darkstarmode_roundendvacuum_novavarus_skin04_z_..> 12K2018-Oct-15 19:27
circle-flares.png 13K2018-Oct-15 19:27
sru_gromp_death_whisps2.png 93472018-Oct-15 19:27
swain_base_tx_cm.png 85K2018-Oct-15 19:27
wavestar_riftherald_missileexplosioncircle-flar..> 13K2018-Oct-15 19:27
color-celticbeam.png 17712018-Oct-15 19:27
dagger_02.png 18772018-Oct-15 19:27
sru_raptornest_sparkles_01.png 11K2018-Oct-15 19:27
trans-stone-bell.png 5302018-Oct-15 19:27
ball04.png 12K2018-Oct-15 19:27
siegemode_timebubble_indicator.png 13K2018-Oct-15 19:27
global_ss_teleport_pulse.png 13K2018-Oct-15 19:27
env_mb_snow_flakes_2.png 13862018-Oct-15 19:27
nocturne_cyber_q_lensflare1.png 61052018-Oct-15 19:27
wow_base_z_glow.png 68572018-Oct-15 19:27
morgana_base_q_tar_darkbase.png 25K2018-Oct-15 19:27
urf_death_orbitallaser_beamdetail.png 44K2018-Oct-15 19:27
siege_emergencyshield_barragespark_soft_glow_bl..> 34K2018-Oct-15 19:27
sru_riftherald_relic_glow.png 13K2018-Oct-15 19:27
doombots_curse_ryze_base_r_directional_indicato..> 792018-Oct-15 19:27
spirit_animal_leaves_01.png 12K2018-Oct-15 19:27
fang_spike_dino.png 34K2018-Oct-15 19:27
global_ss_smite_damagebeam.png 16K2018-Oct-15 19:27
sru_baroncrackdark_swirl_mult_01.png 18K2018-Oct-15 19:27
assassinmode_oni_alert_flash.png 48592018-Oct-15 19:27
siege_barracks_buff_avataroverlay-red.png 39762018-Oct-15 19:27
icechunks_02.png 86522018-Oct-15 19:27
color-flames.png 34912018-Oct-15 19:27
doombots_bardcurse_stasis_fullbard_base_p_speed..> 23K2018-Oct-15 19:27
ziggs_green_indicator.png 24472018-Oct-15 19:27
flare-rainbow_purp_07.png 12K2018-Oct-15 19:27
sru_regentower_shield_glow_4x1.png 27K2018-Oct-15 19:27
wavestar_shopkeeperoverlayahri_skin14_tails_fad..> 12112018-Oct-15 19:27
doombots_bossteemo_nuke_incoming_groundcircle.png 69K2018-Oct-15 19:27
dpa_universal_skyraysoftdds.png 10K2018-Oct-15 19:27
sru_chaos_crystaltex.png 52922018-Oct-15 19:27
siege_laser_targetinglink_startw_tar_wisps_4x1.png 53K2018-Oct-15 19:27
wavestar_fishthing_shieldkayle_skn6_bubble.png 34K2018-Oct-15 19:27
nocturne_cyber_flares.png 51552018-Oct-15 19:27
color-hold.png 792018-Oct-15 19:27
godcloud01.png 30K2018-Oct-15 19:27
monolith_02.png 51K2018-Oct-15 19:27
sru_riftherald_death_erosion.png 106K2018-Oct-15 19:27
treelinelanternlockcomplete2.png 32K2018-Oct-15 19:27
rock04.png 57K2018-Oct-15 19:27
doombots_aurelionstarsaurelionsol_base_z_stars0..> 56812018-Oct-15 19:27
siege_roundendceremony_swapmissilechild_shards.png 24K2018-Oct-15 19:27
projectmode_cube_mult.png 47712018-Oct-15 19:27
sru_dragon_ba1_firering.png 22K2018-Oct-15 19:27
ping-danger.png 67142018-Oct-15 19:27
sru_junglebuff_baron_meleemin_avataroverlay.png 51392018-Oct-15 19:27
blue_green_rings_01.png 15K2018-Oct-15 19:27
doombots_yasuo_wallcolor_yasuo_base_w_crack_hot..> 27732018-Oct-15 19:27
wavestar_channellux_skin06_ba_mult1.png 57K2018-Oct-15 19:27
kingporo_snaxeffect_jump_shieldazir_base_e_shie..> 78K2018-Oct-15 19:27
leaf_dead.png 16K2018-Oct-15 19:27
sru_chaos_clouds.png 10K2018-Oct-15 19:27
darkstarmode_thresh_qtagbackblockfiora_base_w_b..> 13K2018-Oct-15 19:27
sru_riftherald_death_wisps.png 24K2018-Oct-15 19:27
sru_order_sparkles.png 11K2018-Oct-15 19:27
sru_riftherald_death_void_bits_2x2.png 19K2018-Oct-15 19:27
doombots_bardcurse_stasis_quietbard_base_w_upwa..> 39K2018-Oct-15 19:27
blast_ring_15.png 73752018-Oct-15 19:27
item_3193_active_ringglow.png 89672018-Oct-15 19:27
doombots_soul_fire.png 39K2018-Oct-15 19:27
doombots_yasuo_wallyasuo_e_dash_smoke.png 66K2018-Oct-15 19:27
theyarecoming_spark.png 16K2018-Oct-15 19:27
doombots_giantdart_mis2blowdart04.png 15K2018-Oct-15 19:27
mundopaper.png 12K2018-Oct-15 19:27
doombots_bardcurse_windupbard_base_r_distort.png 48K2018-Oct-15 19:27
wavestar_bomb_explosionziggs_skin05_z_lightning..> 2662018-Oct-15 19:27
color-ziggsburp.png 3342018-Oct-15 19:27
eyeofthestormswipe_frost.png 26K2018-Oct-15 19:27
kingporo_snaxeffect_barragexerath_skin04_z_airh..> 45K2018-Oct-15 19:27
darkstarmode_endofround_orianna_skin07_z_lensfl..> 76082018-Oct-15 19:27
akali_blade_03.png 13K2018-Oct-15 19:27
global_ss_flash_sparkle_2x2.png 81592018-Oct-15 19:27
sg_velkoz_base_q_cas.png 75K2018-Oct-15 19:27
sog_order_ceremony_barrier_areasphere.png 54K2018-Oct-15 19:27
color_singed_skin06_recall_snow.png 6112018-Oct-15 19:27
lulu_dragontrainer_celtic1.png 25K2018-Oct-15 19:27
doombots_curse_ryze_base_r_end_enemyryze_base_r..> 84362018-Oct-15 19:27
bufsphere.png 45212018-Oct-15 19:27
poro_battlecast_idle_flare.png 23K2018-Oct-15 19:27
global_trinket_yellow_coreglow.png 62K2018-Oct-15 19:27
siege_siegecannon_impactillaoi_skin01_z_softdot..> 34242018-Oct-15 19:27
item_mirage_blade_wind2.png 22K2018-Oct-15 19:27
syndra_skin02_q_water_lv5.png 14K2018-Oct-15 19:27
sru_wolfden_blueside_godrays_mult_01.png 18K2018-Oct-15 19:27
amumu_skin08_w_rain_drop.png 22362018-Oct-15 19:27
tarpool.png 98212018-Oct-15 19:27
smoke_aqua.png 51242018-Oct-15 19:27
sru_baron_ba1_clumps.png 15582018-Oct-15 19:27
doombots_yasuo_wallyasuo_base_w_windwall_indica..> 60392018-Oct-15 19:27
siege_emergencyshield_barrel_spikes_blue.png 22K2018-Oct-15 19:27
wavestar_fishthing_shieldnidalee_glowspecks.png 27K2018-Oct-15 19:27
color-pulse.png 3232018-Oct-15 19:27
mastery_glow_07.png 23K2018-Oct-15 19:27
yorickphwallorange.png 59K2018-Oct-15 19:27
malphite_glacial_trench.png 72K2018-Oct-15 19:27
global_debuff_ampen_glow.png 10K2018-Oct-15 19:27
sru_baron_spit_mouth.png 59K2018-Oct-15 19:27
sru_junglebuff_dragon_activation_firehelix.png 50K2018-Oct-15 19:27
darkstarmode_hookhitsstarthresh_skin05_z_radial..> 49K2018-Oct-15 19:27
sru_eastjungle_waterfall_sidefoam_mult_01.png 63392018-Oct-15 19:27
sru_river_watercaustics_01.png 53K2018-Oct-15 19:27
sru_chaos_nexus_dustspikes_3x1.png 18K2018-Oct-15 19:27
color-crystal32.png 17952018-Oct-15 19:27
flower_star_sprite.png 72182018-Oct-15 19:27
global_summoner_lvlup_beamup.png 58902018-Oct-15 19:27
cylinder06.png 31K2018-Oct-15 19:27
mistswirl.png 60K2018-Oct-15 19:27
sru_chaos_brightspikes_3x1.png 15K2018-Oct-15 19:27
doombotsplayerdarksidedebuff_ghostbro.png 53332018-Oct-15 19:27
kingporo_snaxeffect_barragesparks32.png 13612018-Oct-15 19:27
sru_dustspikes_3x1.png 14K2018-Oct-15 19:27
sru_chaos_sparklesmult.png 25K2018-Oct-15 19:27
color-redflame.png 31802018-Oct-15 19:27
missile_txt_opt.png 30K2018-Oct-15 19:27
sru_crab_speedbuff_linger.png 60K2018-Oct-15 19:27
kappacolor-rampdown32.png 2652018-Oct-15 19:27
color-fireglow.png 3582018-Oct-15 19:27
tt_firefly_glow.png 20202018-Oct-15 19:27
ezreal_pulsefire_flares_b02.png 13K2018-Oct-15 19:27
doombots_curse_ryze_base_r_start_enemyryze_base..> 20492018-Oct-15 19:27
sru_brazier_glow_01.png 14K2018-Oct-15 19:27
icecube.png 21K2018-Oct-15 19:27
projectmode17_killcreditparticles.png 47672018-Oct-15 19:27
bloodscent04.png 40K2018-Oct-15 19:27
kingporo_snaxeffect_barrageball32_02.png 23K2018-Oct-15 19:27
spirit-trail.png 10K2018-Oct-15 19:27
sru_dustcloud.png 40K2018-Oct-15 19:27
siege_laser_targetinglink_beam_out_color_red.png 33932018-Oct-15 19:27
corki_base_q_indicator_green.png 87172018-Oct-15 19:27
doombots_curse_ryze_base_r_directional_indicato..> 77812018-Oct-15 19:27
kogmaw_skin05_ba_tar_flashramp.png 4342018-Oct-15 19:27
doombots_towerchargehitviktor_base_r_hit_alphas..> 59K2018-Oct-15 19:27
doombots_bossteemo_nuke_exploteemo_skin14_r_pra..> 47K2018-Oct-15 19:27
ahri_skin14_z_background01.png 52K2018-Oct-15 19:27
zilean_skin05_ba_mis_glowtrail.png 31042018-Oct-15 19:27
stunready-sub.png 24K2018-Oct-15 19:27
sru_riftherald_death.png 101K2018-Oct-15 19:27
poppydef_buf.png 11K2018-Oct-15 19:27
siege_emergencyshield_ash_01.png 71372018-Oct-15 19:27
flame03.png 29K2018-Oct-15 19:27
sru_krug_death_mesh.png 110K2018-Oct-15 19:27
tutorial_arrow_down_red.png 6822018-Oct-15 19:27
mastery_sparks_04.png 32072018-Oct-15 19:27
casssnakering.png 69222018-Oct-15 19:27
swain_grand_feathers.png 42322018-Oct-15 19:27
color-rampdown32_06.png 1322018-Oct-15 19:27
uvclampwrap_test_geo_tex.png 45242018-Oct-15 19:27
item_dusk_mark_ring.png 38K2018-Oct-15 19:27
color-lifeaura.png 3552018-Oct-15 19:27
wavestar_riftherald_summonbeamcolor-rampdown.png 3092018-Oct-15 19:27
sru_order_brightspikes_3x1.png 18K2018-Oct-15 19:27
wavestar_bomb_explosioncolor-rampdown.png 3092018-Oct-15 19:27
env_mb_shopsouth_wisp_mult.png 53K2018-Oct-15 19:27
sru_wolfden_blueside_glow_01.png 34K2018-Oct-15 19:27
wavestar_healthpickup.png 15K2018-Oct-15 19:27
darksov_justicar_ball.png 14K2018-Oct-15 19:27
global_ss_flash_godray_color.png 3852018-Oct-15 19:27
flesheater_color-blue-nexus-explo.png 25712018-Oct-15 19:27
hex_shards_01.png 11K2018-Oct-15 19:27
orianna_base_ba_color-bloodfade32.png 3652018-Oct-15 19:27
sru_raptornest_magic_01.png 63K2018-Oct-15 19:27
env_mb_shopsouth_groundglow_mult.png 53K2018-Oct-15 19:27
sru_river_longwhitewavyfoam_02.png 23K2018-Oct-15 19:27
disintegrate.png 24K2018-Oct-15 19:27
flare-rainbow_blue_green_03.png 14K2018-Oct-15 19:27
color-onthehunt.png 19012018-Oct-15 19:27
global_item_righteousglory_ghostramp.png 24442018-Oct-15 19:27
doombots_aurelion_ringaurelionsol_base_p_aoeind..> 26K2018-Oct-15 19:27
color-elixirbell.png 16162018-Oct-15 19:27
projectmode17_sru_chaos_flash.png 43K2018-Oct-15 19:27
kingporo_snaxeffect_barrage_bigarea_ziggs_skin0..> 44K2018-Oct-15 19:27
item_dusk_brightsparks_hollow.png 33132018-Oct-15 19:27
fn_universal_praxis_red_001.png 73712018-Oct-15 19:27
wind_streaks_03.png 46K2018-Oct-15 19:27
kingporo_snaxeffect_barragedistort-heat.png 32K2018-Oct-15 19:27
color-lillypad32.png 85042018-Oct-15 19:27
akali_base_w_teamring_red_rgba.png 5192018-Oct-15 19:27
urf_death_orbitallaser_groundmesh.png 77K2018-Oct-15 19:27
sru_rockshards.png 16K2018-Oct-15 19:27
monkeyking_skin05_i_flame.png 11K2018-Oct-15 19:27
shieldgrid-bits.png 82962018-Oct-15 19:27
sg_velkoz_base_taunt_board.png 10462018-Oct-15 19:27
sru_baron_death_fire_mult.png 12K2018-Oct-15 19:27
irelia_frostblade_fog.png 34672018-Oct-15 19:27
sru_duck_splash_2x2.png 42K2018-Oct-15 19:27
color-hecarimflame2_headless.png 3752018-Oct-15 19:27
sru_baron_acidball_pooltex.png 31K2018-Oct-15 19:27
temp_itemglacialspikeenemy_nova_ground.png 23K2018-Oct-15 19:27
global_debuff_ampen_burst_anim_3x3.png 30K2018-Oct-15 19:27
sru_junglebuff_krug_dustring_geo_tex.png 10K2018-Oct-15 19:27
tt_spider_dirt_spike_rgb.png 15322018-Oct-15 19:27
cassiopeia_snakecircle_pan.png 37K2018-Oct-15 19:27
zeke_frost_line.png 51812018-Oct-15 19:27
projectmode17_teleportpad_triangle.png 16K2018-Oct-15 19:27
doombots_summoning_teleport_pulse.png 18K2018-Oct-15 19:27
color-healtrail.png 7352018-Oct-15 19:27
hexes.png 69552018-Oct-15 19:27
wavestar_portal_skybeam.png 50112018-Oct-15 19:27
global_ss_cleanse_color.png 17272018-Oct-15 19:27
color-teleportbeam.png 3372018-Oct-15 19:27
doombots_bardcurse_explobard_base_q_stun_swirl.png 18K2018-Oct-15 19:27
spirit_animal_brownwispies.png 67K2018-Oct-15 19:27
sru_riftherald_spikes.png 11K2018-Oct-15 19:27
rampage.png 43K2018-Oct-15 19:27
blurdrops_water_clear.png 50132018-Oct-15 19:27
potionglow01.png 10K2018-Oct-15 19:27
hecarim_skin04_r_fearswirl.png 13212018-Oct-15 19:27
morgana_skin06_q_tar_flash.png 30K2018-Oct-15 19:27
sru_order_ringtexture.png 14K2018-Oct-15 19:27
flame01.png 28K2018-Oct-15 19:27
permission_ability_indicator_06.png 11K2018-Oct-15 19:27
sru_chaos_basedoor_barrier.png 66K2018-Oct-15 19:27
graves_grenadesmoke_eyex.png 76332018-Oct-15 19:27
darkstarmode_thresh_qtagbackblockfiora_base_w_a..> 54482018-Oct-15 19:27
sru_junglebuff_krug_marker_2x2.png 75652018-Oct-15 19:27
hydra_shockwaveinner.png 15K2018-Oct-15 19:27
sru_junglebuff_gromp_flash_core.png 53K2018-Oct-15 19:27
darkstarmode_lanternzonesru_chaosnexus_bokeh_do..> 94712018-Oct-15 19:27
doombots_summoningvisualmissilechild_glowdust.png 77762018-Oct-15 19:27
sru_eastjungle_waterfall_shoretopedge_mult_01.png 48352018-Oct-15 19:27
wavestar_betweenround_forcefieldekko_skin11_w_d..> 51K2018-Oct-15 19:27
doombots_curse_ryze_base_r_being_teleportedryze..> 24K2018-Oct-15 19:27
kappaflareblue.png 30K2018-Oct-15 19:27
frost_sprites_01.png 78K2018-Oct-15 19:27
nexus-blast.png 13K2018-Oct-15 19:27
diana_base_r_flash.png 77652018-Oct-15 19:27
global_death_effect_ring.png 34K2018-Oct-15 19:27
sruap_chaosturret1_rubble_crack.png 13K2018-Oct-15 19:27
spawnbeaconbase.png 98952018-Oct-15 19:27
sg_chogath_feastbeamillaoi_skin01_e_spiritlinkb..> 18K2018-Oct-15 19:27
sru_ordernexus_bokeh_dots_1_4x4.png 95802018-Oct-15 19:27
siege_siegecannon_color-lasersight_02.png 862018-Oct-15 19:27
doombots_bossteemo_nuke_exploball32_02.png 23K2018-Oct-15 19:27
projectmode17_sru_cloud_explosion.png 12K2018-Oct-15 19:27
doombots_giantdart_misteemo_skin14_e_trail_02.png 14K2018-Oct-15 19:27
xerath_darkiron_magmadecal.png 63K2018-Oct-15 19:27
doombots_bossteemo_nuke_incomingziggs_skin05_z_..> 84K2018-Oct-15 19:27
wavestar_shopkeeperoverlaysphere_z_01.png 15K2018-Oct-15 19:27
item_blackcleaver_shield_laser.png 20K2018-Oct-15 19:27
sru_snowdown_treelights.png 11K2018-Oct-15 19:27
color-steam.png 3752018-Oct-15 19:27
nocturne_cyber_w_inward_flare.png 24K2018-Oct-15 19:27
kappanami_skin02_z_softcircle.png 74352018-Oct-15 19:27
empathize02.png 19K2018-Oct-15 19:27
bw_snowball_toss.png 32K2018-Oct-15 19:27
sg_slicering.png 20K2018-Oct-15 19:27
color-hieroglyphs32.png 7922018-Oct-15 19:27
odin_centerbuff_avatar2.png 55K2018-Oct-15 19:27
sru_chaos_cm_ba_mis_tex.png 40382018-Oct-15 19:27
tiamat_swirl.png 30K2018-Oct-15 19:27
siege_swapteamsceremony_blueweaponstreak15.png 85102018-Oct-15 19:27
doombots_aurelionstarsaurelionsol_base_p_larges..> 24K2018-Oct-15 19:27
sphere1.png 73K2018-Oct-15 19:27
tt_chaos_turret1_flare.png 85332018-Oct-15 19:27
diamond1.png 21K2018-Oct-15 19:27
radialhalo.png 41922018-Oct-15 19:27
wavestar_manaorb_tarlulu_skin06_z_stargrid_03.png 11K2018-Oct-15 19:27
doombots_swirl_scroll.png 21K2018-Oct-15 19:27
singed_experiment_poisonflicker_red.png 44392018-Oct-15 19:27
wavestar_bomb_explosionball32_01.png 12K2018-Oct-15 19:27
sorakasparks01.png 50342018-Oct-15 19:27
kassadin_base_z_glow-soft.png 15K2018-Oct-15 19:27
evelynn_ribbons.png 18K2018-Oct-15 19:27
item_blackcleaver_smoke2x2_blue.png 64292018-Oct-15 19:27
ward_season3_idle_spark.png 20K2018-Oct-15 19:27
item_angelhand_buff_glow.png 13042018-Oct-15 19:27
smoke07.png 23K2018-Oct-15 19:27
darkstarmode_ball01.png 12K2018-Oct-15 19:27
sru_baron_rune_3.png 19K2018-Oct-15 19:27
morgana_skin06_ba_mis_cap.png 22K2018-Oct-15 19:27
odin_centerbuff_glowcolor.png 32252018-Oct-15 19:27
sg_starsprite_lulu.png 90232018-Oct-15 19:27
elixirvision.png 21K2018-Oct-15 19:27
morgana_skin05_q_black_mis.png 17K2018-Oct-15 19:27
doombots_yasuo_wallyasuo_base_w_windwall_groud_..> 56K2018-Oct-15 19:27
bw_wooddebris.png 30322018-Oct-15 19:27
sru_riftherald_blood_4x4.png 58K2018-Oct-15 19:27
blast_ring_big.png 20K2018-Oct-15 19:27
deathgrasp_11.png 12K2018-Oct-15 19:27
global_item_spiritthorn_meshwipe.png 79802018-Oct-15 19:27
victory_rgb.png 3402018-Oct-15 19:27
sg_slicestar.png 12K2018-Oct-15 19:27
wow_base_w_orbswirl.png 96242018-Oct-15 19:27
sru_riftherald_portal_highlight.png 18K2018-Oct-15 19:27
bw_ship.png 65K2018-Oct-15 19:27
ziggs_base.png 63K2018-Oct-15 19:27
siege_laser_targetinglink_dots_color.png 10582018-Oct-15 19:27
global_item_thornmail_blastring.png 20K2018-Oct-15 19:27
darkstarmode_endofround_orianna_skin07_r_gradie..> 36K2018-Oct-15 19:27
darkstarmode_endofround_orianna_skin07_z_glow_0..> 12K2018-Oct-15 19:27
global_indicator_ring_bright.png 7872018-Oct-15 19:27
bw_rollingfog_mult_01.png 12K2018-Oct-15 19:27
empathize03.png 39962018-Oct-15 19:27
global_ss_smite_duel_challenged.png 35K2018-Oct-15 19:27
ha_ap_wisp.png 74K2018-Oct-15 19:27
staff_glow_01.png 44762018-Oct-15 19:27
morgana_skin06_e_tar_sphere_cubemap.png 15K2018-Oct-15 19:27
item_bladeoftheruinedking_trail.png 11K2018-Oct-15 19:27
ping-command_02.png 12K2018-Oct-15 19:27
global_ss_exhaust_bars.png 14K2018-Oct-15 19:27
sunray.png 51642018-Oct-15 19:27
sg_chogath_feastbeamillaoi_base_e_beamflashsmok..> 41K2018-Oct-15 19:27
animeflash.png 26K2018-Oct-15 19:27
siege_emergencyshield_explosion_energylines2sid..> 14K2018-Oct-15 19:27
soraka_starcall_burst.png 12K2018-Oct-15 19:27
dirtbits_frost_02.png 22K2018-Oct-15 19:27
sunspots32.png 112K2018-Oct-15 19:27
ha_pororay_porosnack.png 32422018-Oct-15 19:27
global_asc_teleport_skybeam.png 23K2018-Oct-15 19:27
bw_item_trickstersglass_shadowswirls.png 42K2018-Oct-15 19:27
siege_emergencyshield_barragespark_energywisp.png 19902018-Oct-15 19:27
sru_spacebar_godray_grounded.png 10K2018-Oct-15 19:27
color-fireballtrail_frostbrand.png 45022018-Oct-15 19:27
sru_gromp_death_rays_soft.png 20K2018-Oct-15 19:27
poroking_snowsparkle_ramp.png 27822018-Oct-15 19:27
trans-stone.png 4832018-Oct-15 19:27
crossbonesjuice.png 10K2018-Oct-15 19:27
wish_tar__mesh__p-rgba_03.png 27452018-Oct-15 19:27
leaf_06.png 16K2018-Oct-15 19:27
projectmode17_flare.png 19K2018-Oct-15 19:27
cannonball.png 65602018-Oct-15 19:27
sru_baron_spawn_smoke_mult.png 20K2018-Oct-15 19:27
doombots_curse_ryze_base_r_start_enemyryze_base..> 55K2018-Oct-15 19:27
sru_order_basedoor_groundglow_bottom.png 26K2018-Oct-15 19:27
color-global_stinger.png 10992018-Oct-15 19:27
sru_riftherald_portalring_ramp.png 17852018-Oct-15 19:27
siege_emergencyshield_aoe_mesh_tex.png 13K2018-Oct-15 19:27
blast_ring_13.png 63912018-Oct-15 19:27
kat_dagger.png 84K2018-Oct-15 19:27
global_stinger_trailsmoke.png 93K2018-Oct-15 19:27
ha_ap_ringsuck_geo_mult.png 16K2018-Oct-15 19:27
hecarimfirelight_headless_02.png 44572018-Oct-15 19:27
flashgreen.png 30K2018-Oct-15 19:27
color-armordebuff_yellow.png 7902018-Oct-15 19:27
brand_zombie_headfiretrail.png 64K2018-Oct-15 19:27
introbotdamagealertminion.png 78202018-Oct-15 19:27
hecarim_skn4_sparkle.png 14K2018-Oct-15 19:27
hex_blade_02.png 86K2018-Oct-15 19:27
sru_peref_orderside_southfog_01.png 32K2018-Oct-15 19:27
color-empathize32.png 4312018-Oct-15 19:27
ringtest.png 49K2018-Oct-15 19:27
sru_wolfden_blueside_windgrass_01.png 88632018-Oct-15 19:27
leona_passive_flicker.png 24982018-Oct-15 19:27
obj_em_shard01.png 10112018-Oct-15 19:27
yellow-light.png 58262018-Oct-15 19:27
color-snowdown.png 3252018-Oct-15 19:27
item_questcomplete_stars5_sep.png 31522018-Oct-15 19:27
darksov_justicar_symbolstripe.png 66K2018-Oct-15 19:27
sru_clumps.png 99322018-Oct-15 19:27
fiora_weaponsheen_musketeer.png 30602018-Oct-15 19:27
teardrop.png 15152018-Oct-15 19:27
sru_riftherald_directionalblood_4x4_2.png 68K2018-Oct-15 19:27
sru_sjungle_motes.png 33K2018-Oct-15 19:27
chogath_base_q_teamring_green_rgba.png 9642018-Oct-15 19:27
global_debuff_ampen_slash_anim_3x3.png 15K2018-Oct-15 19:27
color-interventionstar_02.png 28272018-Oct-15 19:27
darkstarmode_impactwithstarthresh_skin05_z_glow..> 39782018-Oct-15 19:27
poroking_z_color-hold.png 792018-Oct-15 19:27
doombots_curse_ryze_base_r_start_enemyryze_base..> 23K2018-Oct-15 19:27
syndra_skin02_q_water.png 13K2018-Oct-15 19:27
wavestar_manaorb_tar2soraka_skin07_4pointstared..> 73122018-Oct-15 19:27
ocklepod_color-lensbell32.png 22432018-Oct-15 19:27
sg_velkoz_base_w_beam.png 70K2018-Oct-15 19:27
item_magicshank_glow_4x1.png 18K2018-Oct-15 19:27
doombots_bossteemo_portalteemo_skin14_recall_po..> 26K2018-Oct-15 19:27
color-sharpfade.png 3632018-Oct-15 19:27
sru_riftherald_portal_splashes_mult.png 23752018-Oct-15 19:27
dirtbits_earthy_02.png 24K2018-Oct-15 19:27
sru_eastjungle_waterfall_plane_botfalls_mult_01..> 29K2018-Oct-15 19:27
renekton_vg_q_trail.png 29K2018-Oct-15 19:27
morgana_skin06_r_tar_shackle_in.png 48062018-Oct-15 19:27
temp_itemglacialspikeenemy_flurrys.png 23872018-Oct-15 19:27
doombotsplayerdarksidedebuff_smoke.png 11K2018-Oct-15 19:27
spawn01.png 35K2018-Oct-15 19:27
bw_plundercrab_ba_cannonballtex_02.png 17742018-Oct-15 19:27
color-exhaust.png 17652018-Oct-15 19:27
doombots_yasuo_wallcolor_yasuo_w_windwall_dust.png 13682018-Oct-15 19:27
siege_emergencyshield_barrel_spikes.png 21K2018-Oct-15 19:27
spinstreak-aqua.png 35462018-Oct-15 19:27
sru_redbuff_flash.png 69972018-Oct-15 19:27
rune_regen_01.png 28K2018-Oct-15 19:27
s5_dragonblock.png 72K2018-Oct-15 19:27
sru_waterfall_sidefoam_mult_01.png 82392018-Oct-15 19:27
doombots_yasuo_impactcolor_yasuo_q_build_up.png 16322018-Oct-15 19:27
sru_riftherald_relic_sheen.png 41K2018-Oct-15 19:27
sru_riftherald_smoke_dust.png 54K2018-Oct-15 19:27
buff-stone-red.png 34K2018-Oct-15 19:27
wavestar_channelteleportrampdown32.png 2592018-Oct-15 19:27
fang.png 26542018-Oct-15 19:27
theyarecoming_mark_activate_ring.png 67432018-Oct-15 19:27
doombots_bardcurse_stasis_quietbard_base_p_spee..> 23K2018-Oct-15 19:27
bw_lantern_greenglow.png 12K2018-Oct-15 19:27
ribboncap.png 17K2018-Oct-15 19:27
corki_base_q_mis_smoke_rgba.png 2962018-Oct-15 19:27
sru_baron_ba_mis_trail2.png 21K2018-Oct-15 19:27
darkstarmode_sog_ceremony_barriersru_chaos_supe..> 10K2018-Oct-15 19:27
color-flames32.png 83912018-Oct-15 19:27
item_magicshank_flash_02.png 29212018-Oct-15 19:27
swain_grand_glyph_01.png 66592018-Oct-15 19:27
hecarim_weapontrail_q_headless.png 16K2018-Oct-15 19:27
sru_lane_motes.png 16K2018-Oct-15 19:27
sru_baron_acidball_junkmult.png 11K2018-Oct-15 19:27
team_ring32.png 10K2018-Oct-15 19:27
darkstarmode_endofround_orianna_skin07_r_gradie..> 12K2018-Oct-15 19:27
sru_turret_ba_darkglow_2x2.png 91752018-Oct-15 19:27
orianna_base_q_orbarrow32.png 3722018-Oct-15 19:27
tt_spider_dirt_spike.png 41K2018-Oct-15 19:27
wavestar_bomb_explosionpantheon_skin06_z_shockw..> 75302018-Oct-15 19:27
wavestar_riftherald_missilekassadin_base_z_void..> 14K2018-Oct-15 19:27
sand.png 153K2018-Oct-15 19:27
alpha_18.png 16122018-Oct-15 19:27
towerdustshadow.png 24K2018-Oct-15 19:27
global_ss_ignite_sparks.png 58K2018-Oct-15 19:27
ha_chaos_cm_ba_mis_tex.png 40362018-Oct-15 19:27
bw_lantern.png 15K2018-Oct-15 19:27
doombots_bardcurse_warnbard_base_r_warning_deca..> 75K2018-Oct-15 19:27
global_ss_teleport_color-bellcurve.png 3782018-Oct-15 19:27
env_mb_brazier_dust_mult.png 90482018-Oct-15 19:27
poro_throw_darkstar_comet_trail_01.png 30K2018-Oct-15 19:27
projectmode17_cooldownpickup_2.png 49K2018-Oct-15 19:27
siege_emergencyshield_color-rampdown32_03.png 2802018-Oct-15 19:27
itemzhonyas_bokeh_dots_1_4x4.png 29K2018-Oct-15 19:27
wavestar_fishthing_shieldbeamalpha_20.png 32092018-Oct-15 19:27
centipede-trail.png 12992018-Oct-15 19:27
poroking_z_clouds_01.png 47K2018-Oct-15 19:27
siege_emergencyshield_explosion_energylines2.png 23K2018-Oct-15 19:27
hourglass.png 17K2018-Oct-15 19:27
sru_bluebuff_softrays_1x4.png 22K2018-Oct-15 19:27
wavestar_channellux_skin06_r_strands_mult_alpha..> 94142018-Oct-15 19:27
kingporo_snaxeffect_fire_hittowerbrand_base_p_d..> 77K2018-Oct-15 19:27
color-slowwakedirt.png 3742018-Oct-15 19:27
amumu_skin08_color_confetti.png 12292018-Oct-15 19:27
siege_siegecannon_impactillaoi_skin01_r_nova_gr..> 40K2018-Oct-15 19:27
tt_spidercore.png 65K2018-Oct-15 19:27
amumu_skin08_w_splash_ring.png 42K2018-Oct-15 19:27
nocturne_cyber_q_head.png 12K2018-Oct-15 19:27
color-beige_rampdown.png 2782018-Oct-15 19:27
teemobasicattack_tar__blastring__p-rgba.png 6312018-Oct-15 19:27
morgana_skin06_r_tar_shackle_out.png 52632018-Oct-15 19:27
sru_baron_acidball_poolburst.png 44K2018-Oct-15 19:27
rune_target_damage_02.png 29K2018-Oct-15 19:27
darkstarmode_roundendvacuum_novaorianna_base_z_..> 36K2018-Oct-15 19:27
kingporo_snaxeffect_barragemissile2bard_skin05_..> 13K2018-Oct-15 19:27
crystalball2.png 33K2018-Oct-15 19:27
tt_junglebuff_meleemin_avataroverlay.png 51422018-Oct-15 19:27
rite_of_ruin_color-rampdown.png 3092018-Oct-15 19:27
color_singed_riotchemical_q_gas_red.png 58972018-Oct-15 19:27
kennen_skin06_q_cas1_weaponshards.png 10K2018-Oct-15 19:27
sru_snow_spawn_giftconfetti.png 30392018-Oct-15 19:27
darkstarmode_flame_ring.png 17K2018-Oct-15 19:27
ping-caution_02.png 85252018-Oct-15 19:27
doombots_curse_ryze_base_r_character_finderryze..> 77812018-Oct-15 19:27
amumu_skin08_w_goo_ring.png 20K2018-Oct-15 19:27
fn_universal_smoke_mult_red_001.png 57K2018-Oct-15 19:27
wavestar_roomendexplosiondistort-pinch.png 33K2018-Oct-15 19:27
godray.png 67332018-Oct-15 19:27
color-hecarim_skn4_override.png 2832018-Oct-15 19:27
itemzhonya_base_r_explo_symbol.png 2722018-Oct-15 19:27
darkstarmode_lanternzonepoppy_base_w_shield_edg..> 21K2018-Oct-15 19:27
groundsinge.png 23K2018-Oct-15 19:27
bw_order_explosion_smoke.png 14K2018-Oct-15 19:27
odin_lock_chain_effects3p.png 27K2018-Oct-15 19:27
pinwheel.png 72732018-Oct-15 19:27
ha_ap_healthglow.png 66K2018-Oct-15 19:27
sruap_order_inhibitor_runecountdown.png 22K2018-Oct-15 19:27
darkstarmode_roundendpowerbeammorgana_skin11_z_..> 89122018-Oct-15 19:27
sru_dragonpit_waterfall_sidefoam_mult_01.png 82392018-Oct-15 19:27
swainbeam_target.png 48692018-Oct-15 19:27
item_magicshank_rings.png 30K2018-Oct-15 19:27
siege_laser_defending_glowline_blue.png 23K2018-Oct-15 19:27
darkstarmode_endofround_orianna_skin07_z_flat_0..> 1042018-Oct-15 19:27
doombots_curse_ryze_base_r_end_enemyryze_base_r..> 4772018-Oct-15 19:27
sru_eastjungle_waterfall_whitefalls_mult_02.png 19K2018-Oct-15 19:27
doombots_bossteemo_deathportalteemo_skin14_r_cl..> 11K2018-Oct-15 19:27
ba2_dragon_ba2_impact_meshtex.png 34K2018-Oct-15 19:27
purple_gem_inside.png 11K2018-Oct-15 19:27
global_ss_heal_alpha_fade.png 12452018-Oct-15 19:27
wavestar_shopkeeperoverlayalphaslice_bubbles_02..> 12K2018-Oct-15 19:27
color-explosion32_02.png 72262018-Oct-15 19:27
global_trinket_spotter_sparkle.png 19K2018-Oct-15 19:27
coin05color.png 3752018-Oct-15 19:27
wolfmanclaw.png 83472018-Oct-15 19:27
color-evravage.png 3682018-Oct-15 19:27
darksov_justicar_symbols.png 72K2018-Oct-15 19:27
flare-fireblue.png 31K2018-Oct-15 19:27
siege_warppoint_minionscoredkassadin_skin05_z_e..> 42K2018-Oct-15 19:27
sru_order_sparklesmult.png 25K2018-Oct-15 19:27
youmublade_01.png 15K2018-Oct-15 19:27
nexus_gem_inside.png 11K2018-Oct-15 19:27
doombots_bardcurse_stasis_quietbard_base_p_spee..> 72K2018-Oct-15 19:27
fizz_fish_tx_cm_256.png 22K2018-Oct-15 19:27
doombots_curse_karthus_base_z_color-rampup.png 3072018-Oct-15 19:27
sru_baron_acidball_balltrail.png 16K2018-Oct-15 19:27
sru_tower_explosion_flash.png 87222018-Oct-15 19:27
darkstarmode_crabalanchewarning_gradient.png 37K2018-Oct-15 19:27
sru_eastjungle_waterfall_plane_botfalls_01.png 27K2018-Oct-15 19:27
sru_turret_ba_trail_03.png 27K2018-Oct-15 19:27
sru_baron_rune_1_glow.png 24K2018-Oct-15 19:27
rendingshot2_mis__smoke__p-rgba.png 7532018-Oct-15 19:27
obj_em_shard09.png 9952018-Oct-15 19:27
darkstarmode_sog_ceremony_barriersog_chaos_cere..> 31K2018-Oct-15 19:27
flesheater_sliver.png 16062018-Oct-15 19:27
hecarim_skin04_r_fear_2x2.png 9342018-Oct-15 19:27
sru_baron_acidball_orb_1.png 38K2018-Oct-15 19:27
rainbowray.png 17K2018-Oct-15 19:27
projectmode17_bw_spawn_readyflash.png 21K2018-Oct-15 19:27
siege_emergencyshield_barragespark_beamflare.png 41K2018-Oct-15 19:27
cylinder05.png 39K2018-Oct-15 19:27
nocturne_cyber_tail_middle.png 41K2018-Oct-15 19:27
ward_season3_idlein_spark.png 78772018-Oct-15 19:27
darkstarmode_powerupporoking_z_ice_01.png 11K2018-Oct-15 19:27
voiddot.png 70442018-Oct-15 19:27
sru_sbase_platform.png 59K2018-Oct-15 19:27
global_ss_teleport_skybeam_red.png 36412018-Oct-15 19:27
drmundo_w_mult.png 14K2018-Oct-15 19:27
spirit_animal_spawnglow.png 34K2018-Oct-15 19:27
wavestar_manaorb_tarlulu_skin06_z_bokehcolor.png 55K2018-Oct-15 19:27
sru_baron_spike.png 39K2018-Oct-15 19:27
reksai_skin02_burrowed_q_mis_cap.png 71K2018-Oct-15 19:27
color-cardmasterteleport.png 2302018-Oct-15 19:27
doombots_curse_ryze_base_r_end_enemyryze_base_r..> 69032018-Oct-15 19:27
color-fogdoom.png 24502018-Oct-15 19:27
wavestar_shopkeeperspawnsightward_skin63_shield..> 15K2018-Oct-15 19:27
sru_junglebuff_dragon_buff_avatar_color.png 13682018-Oct-15 19:27
sru_chaos_nexus_explosion.png 2642018-Oct-15 19:27
ping-command-base.png 21K2018-Oct-15 19:27
siegemode_timebubble_darkglow.png 20K2018-Oct-15 19:27
sruap_building_crystals_teamcolor.png 54K2018-Oct-15 19:27
global_ss_cleanse_shield.png 36K2018-Oct-15 19:27
color-lifebeam.png 25092018-Oct-15 19:27
siege_siegecannon_shotsru_order_brightsparks_re..> 35052018-Oct-15 19:27
tt_chaos_turret1_crackray.png 39272018-Oct-15 19:27
doombots_yasuo_wallyasuo_w_windwall_distort.png 32K2018-Oct-15 19:27
sru_riftherald_sparks.png 28K2018-Oct-15 19:27
cp_windowglow_03.png 63272018-Oct-15 19:27
rendingshot2_mis__bullet2__p-rgba.png 4632018-Oct-15 19:27
chaosturretfire_brightsparks.png 30152018-Oct-15 19:27
ping-omw-arrow.png 18K2018-Oct-15 19:27
voidspawn_turretdeath_sideflames.png 31K2018-Oct-15 19:27
globalinvisibility_smoke_mult.png 66K2018-Oct-15 19:27
mastery_glow_02.png 52K2018-Oct-15 19:27
wavestar_channellux_skin06_r_beam_core_mult.png 1242018-Oct-15 19:27
color-sunfire.png 40222018-Oct-15 19:27
sru_fountain_heal_dots_01.png 37172018-Oct-15 19:27
ziggs_skin05_z_energydense.png 84K2018-Oct-15 19:27
doombots_towerchargehitviktor_base_r_hit_bluesl..> 16K2018-Oct-15 19:27
boots_captain.png 32K2018-Oct-15 19:27
ironsolari_shield.png 64K2018-Oct-15 19:27
darkstarmode_powerupporoking_z_speed_swirl_mult..> 72K2018-Oct-15 19:27
ha_ap_dust_small.png 22K2018-Oct-15 19:27
sru_raindrops_01.png 20992018-Oct-15 19:27
ziggs_skin05_z_ash.png 29592018-Oct-15 19:27
blast_dustspike.png 57K2018-Oct-15 19:27
sru_riftherald_dash_cas.png 42102018-Oct-15 19:27
darkstarmode_roundendpowerbeamglow_aura_01.png 37K2018-Oct-15 19:27
color-dandelions.png 65482018-Oct-15 19:27
siege_laser_defending_eye_glow_blue.png 91292018-Oct-15 19:27
color-alphaslice_circle.png 65762018-Oct-15 19:27
bw_chaos_turret_ba_mis_smoketrail.png 61K2018-Oct-15 19:27
lifeaura.png 10K2018-Oct-15 19:27
sru_dragon_firebreath_rock.png 54082018-Oct-15 19:27
darkstarmode_impactwithstarflare-omnimax.png 24K2018-Oct-15 19:27
kingporo_snaxeffect_barragexerath_skin04_z_sand..> 7642018-Oct-15 19:27
bearfire_frost.png 28K2018-Oct-15 19:27
brand_zombie_flames.png 51K2018-Oct-15 19:27
clairvoyance_eye_green.png 27K2018-Oct-15 19:27
sru_eastjungle_waterfall_topfoam_mult_01.png 68752018-Oct-15 19:27
projectmode17_digiline.png 38392018-Oct-15 19:27
siege_shieldgenerator_lightning.png 23K2018-Oct-15 19:27
projectmode17_blastcone_explode_normal.png 22K2018-Oct-15 19:27
projectmode17_flash.png 46K2018-Oct-15 19:27
color-flicker_orange.png 50282018-Oct-15 19:27
kappa_muzzle_flash_cas.png 20K2018-Oct-15 19:27
towershot02.png 35K2018-Oct-15 19:27
darkstarmode_lanternzoneflashpoppy_base_w_shiel..> 51K2018-Oct-15 19:27
sru_order_inhibitor_ringsuck_geo.png 18K2018-Oct-15 19:27
sru_njungle_dustclouds.png 11K2018-Oct-15 19:27
wavestar_channellux_skin06_r_heart_beam_core.png 61K2018-Oct-15 19:27
sruap_ordernexus_bluesquare.png 782018-Oct-15 19:27
doombots_curse_karthus_base_z_spotlight.png 35K2018-Oct-15 19:27
global_ss_cleanse_sparkle_2x2.png 10K2018-Oct-15 19:27
wavestar_revive_invulntaric_base_z_cubemap_colo..> 1662018-Oct-15 19:27
color-randomfade32.png 96372018-Oct-15 19:27
color-c-cyan32.png 2082018-Oct-15 19:27
wavestar_riftherald_missile_tarcolor-darkbindin..> 13332018-Oct-15 19:27
bw_water_splash_2x2.png 38K2018-Oct-15 19:27
sru_junglebuff_dragon_buff_lvl05_flameburst.png 31K2018-Oct-15 19:27
red_rings_01.png 57712018-Oct-15 19:27
incinerate01.png 41K2018-Oct-15 19:27
doombots_summoning_teleport_matoverride.png 50K2018-Oct-15 19:27
color-purpleflame.png 28852018-Oct-15 19:27
bandagesemo.png 49842018-Oct-15 19:27
sru_baron_acidball_poolspike.png 29082018-Oct-15 19:27
global_ss_teleport_shockwave.png 20K2018-Oct-15 19:27
odin_lock_chain_effects2p.png 32K2018-Oct-15 19:27
color-disintegratefire.png 16412018-Oct-15 19:27
sru_footsteps_dirt_01.png 26K2018-Oct-15 19:27
chronoclock.png 39472018-Oct-15 19:27
sru_eastjungle_treemist_swirl_01.png 24K2018-Oct-15 19:27
global_asc_teleport_rampin.png 5142018-Oct-15 19:27
sru_chaos_cm_ba_mis_tex_blue.png 40682018-Oct-15 19:27
bw_chaos_ba_mis_blurtrail.png 21K2018-Oct-15 19:27
ward_tree_leaf.png 31852018-Oct-15 19:27
ring01.png 16K2018-Oct-15 19:27
nocturne_cyber_tail_end_flag.png 15K2018-Oct-15 19:27
poroking_z_ice_01.png 12K2018-Oct-15 19:27
sru_order_cm_ba_mis_tex.png 36102018-Oct-15 19:27
_template_team_indicator_blue.png 40072018-Oct-15 19:27
eh_noxus_smokewisps.png 45K2018-Oct-15 19:27
siege_siegecannon_chargekassadin_skin05_z_energ..> 42K2018-Oct-15 19:27
chogath_distortion_waves_color_add.png 2482018-Oct-15 19:27
darkstarmode_roundendpowerbeammorgana_skin11_z_..> 66532018-Oct-15 19:27
doombotsplayerdarksidedebuff_buf_flare.png 38K2018-Oct-15 19:27
ping-command-base-color.png 2882018-Oct-15 19:27
doombots_towerchargebeamviktor_base_r_beam_glow..> 46282018-Oct-15 19:27
ocklepod_ghost_overlay_05.png 94K2018-Oct-15 19:27
darkstarmode__z_distort_rgba.png 11972018-Oct-15 19:27
ezreal_pulsefire_hud_shapes_02.png 59K2018-Oct-15 19:27
projectmode17_overcharge_timer_ring.png 39862018-Oct-15 19:27
global_trinket_spotter_radarmesh.png 39K2018-Oct-15 19:27
skeleton01.png 30K2018-Oct-15 19:27
color-bellcurve32_02.png 2902018-Oct-15 19:27
shield-on.png 3042018-Oct-15 19:27
pantheon_skin06_r_aoering_green.png 33362018-Oct-15 19:27
bm_fireball_bot.png 98312018-Oct-15 19:27
airspirit.png 64K2018-Oct-15 19:27
shadow_step_13.png 77912018-Oct-15 19:27
doombots_yasuo_warningyasuo_base_passive_wind.png 21K2018-Oct-15 19:27
morgana_skin05_r_mis_beamglow.png 23K2018-Oct-15 19:27
sru_chaos_turret1_hotcenter.png 30K2018-Oct-15 19:27
sg_bokeh_dots_4x4.png 92342018-Oct-15 19:27
doombots_curse_ryze_base_r_directional_indicato..> 69032018-Oct-15 19:27
color_singed_skin06_q_snow_flake_cas.png 13852018-Oct-15 19:27
blueblob.png 18K2018-Oct-15 19:27
maokai_base_q_dustcloud.png 40K2018-Oct-15 19:27
sg_color-sparks2.png 26182018-Oct-15 19:27
morgana_skin05_w_tar_color.png 2132018-Oct-15 19:27
yorickphwallblue.png 61K2018-Oct-15 19:27
evelynn_weapontrail.png 16K2018-Oct-15 19:27
bw_brazierfire_glow.png 46K2018-Oct-15 19:27
ha_snow_sparkle.png 83352018-Oct-15 19:27
siege_repulsionbomb_ekko_base_w_domeglow.png 54K2018-Oct-15 19:27
test-hole.png 44522018-Oct-15 19:27
sru_eastjungle_magicbluebuff_01.png 46402018-Oct-15 19:27
sru_dragon_sparks.png 64162018-Oct-15 19:27
ha_ap_godrays_diff.png 38K2018-Oct-15 19:27
color-orbarrow.png 2332018-Oct-15 19:27
item_danger_alert_slice.png 11K2018-Oct-15 19:27
darkstarmode_lanternzonepoppy_base_w_dome_mult.png 72K2018-Oct-15 19:27
color-coinshadow.png 3112018-Oct-15 19:27
singleshamrock.png 16522018-Oct-15 19:27
bigglow02_32.png 23K2018-Oct-15 19:27
color-curserays.png 15822018-Oct-15 19:27
ward_decal.png 20K2018-Oct-15 19:27
skarner_base_p_crystal.png 67K2018-Oct-15 19:27
sru_eastjungle_waterfall_plane_01.png 12K2018-Oct-15 19:27
designergodray_focus.png 30K2018-Oct-15 19:27
tryndamere_weapontrail_1.png 11K2018-Oct-15 19:27
ward_cookiecrumbs.png 31462018-Oct-15 19:27
siege_emergencyshield_explosion_bookdissolve.png 11K2018-Oct-15 19:27
bloodlust_cas_mesh.png 62K2018-Oct-15 19:27
projectmode17_color_hold.png 862018-Oct-15 19:27
lux_base_e_sheild_rgb.png 4112018-Oct-15 19:27
sru_order_turret1_crackwall.png 28K2018-Oct-15 19:27
doombots_towerchargezoneviktor_base_r_cas_groun..> 86142018-Oct-15 19:27
flare-rainbow_yellow_10.png 99202018-Oct-15 19:27
ring_soft_02.png 18K2018-Oct-15 19:27
global_asc_teleport_pulse.png 18K2018-Oct-15 19:27
voidslash.png 79082018-Oct-15 19:27
icicleball.png 61K2018-Oct-15 19:27
morgana_skin05_q_shape_mis.png 89952018-Oct-15 19:27
doombots_summoningvisualmissilechild_energymult..> 57K2018-Oct-15 19:27
sru_order_mm_ba1_tar_hit.png 18K2018-Oct-15 19:27
color-rampdown32_03.png 2702018-Oct-15 19:27
doombots_bossteemo_nuke_exploteemo_skin14_r_cir..> 66K2018-Oct-15 19:27
eyelinetop.png 26172018-Oct-15 19:27
flesheater_color-frostsmoke32d.png 12552018-Oct-15 19:27
smoke_dark_magic_03.png 50882018-Oct-15 19:27
doombots_bossteemo_portalteemo_skin14_r_clouder..> 11K2018-Oct-15 19:27
chaos_inhibit_gem.png 45K2018-Oct-15 19:27
sru_baron_spawn_smoke.png 13K2018-Oct-15 19:27
doombots_yasuo_wallyasuo_w_windwall_main_02.png 22K2018-Oct-15 19:27
sru_redbuff_z_leaves_2x2.png 43612018-Oct-15 19:27
doombots_yasuo_impactyasuo_w_wind_wispy.png 43K2018-Oct-15 19:27
orianna_base_z_distort-wave.png 36K2018-Oct-15 19:27
morgana_skin05_q_orb_mis.png 18K2018-Oct-15 19:27
color-fireballtrail_brand_zombie.png 14562018-Oct-15 19:27
akali_base_w_teamring_green_rgba.png 5182018-Oct-15 19:27
obj_em_shard07.png 8812018-Oct-15 19:27
olaf_skin11_cube.png 3902018-Oct-15 19:27
balloons.png 38K2018-Oct-15 19:27
global_ss_teleport_color_ringfade_red.png 2112018-Oct-15 19:27
global_death_effect_fill.png 28K2018-Oct-15 19:27
flames04.png 57K2018-Oct-15 19:27
ha_chaos_brightspikes_3x1.png 18K2018-Oct-15 19:27
speed_runes_01.png 29K2018-Oct-15 19:27
singed_experiment_poisonflicker.png 50372018-Oct-15 19:27
sru_pally_fogbase_mult_01.png 19K2018-Oct-15 19:27
cassiopia_skin08_cube.png 3902018-Oct-15 19:27
kingporo_snaxeffect_fire_hittowerbrand_base_p_a..> 3922018-Oct-15 19:27
color-lightningbug.png 10342018-Oct-15 19:27
gold_overlay_01.png 113K2018-Oct-15 19:27
singed_experiment_poisoncolor_red.png 44332018-Oct-15 19:27
pretzel_01.png 14K2018-Oct-15 19:27
sru_krug_death_pebbles_4x4.png 33K2018-Oct-15 19:27
mundo_skn7_q.png 77K2018-Oct-15 19:27
doombots_towerchargehitsparks.png 18522018-Oct-15 19:27
darkstarmode_healthpack_cm.png 55K2018-Oct-15 19:27
order_nexus_gem.png 42K2018-Oct-15 19:27
doombots_curse_ryze_base_r_directional_indicato..> 6682018-Oct-15 19:27
urgot_qlockon_ring.png 4712018-Oct-15 19:27
sru_turret_ba_trail.png 13K2018-Oct-15 19:27
hex_gear_01.png 26K2018-Oct-15 19:27
sru_chaos_sparks.png 57822018-Oct-15 19:27
sru_njungle_wisps.png 14K2018-Oct-15 19:27
darkstarmode_roundendvacuum_novaorianna_base_z_..> 54482018-Oct-15 19:27
sru_minionspawn_sparkel.png 65552018-Oct-15 19:27
morgana_base_q_tar_disintegrate.png 25K2018-Oct-15 19:27
item_magicshank_trail_bright.png 46K2018-Oct-15 19:27
zeke_fire_trail.png 97052018-Oct-15 19:27
item_dusk_mark2.png 33K2018-Oct-15 19:27
starfilter2.png 11K2018-Oct-15 19:27
brand_zombie_glow.png 68192018-Oct-15 19:27
projectmode17_teleportpad_triangleoutline_mult.png 32332018-Oct-15 19:27
color-explosion32.png 3532018-Oct-15 19:27
doombots_akali_smokebomb_redakali_base_w_ring.png 29K2018-Oct-15 19:27
temp_item_healtrail.png 11K2018-Oct-15 19:27
fire-sphere32.png 64K2018-Oct-15 19:27
ping-attack-color.png 1922018-Oct-15 19:27
bubbleglow.png 22K2018-Oct-15 19:27
item_mirage_blade_blowing_sand.png 59K2018-Oct-15 19:27
projectmode17_teleportpad_chargeup_part2.png 12742018-Oct-15 19:27
hungeringstrike_tar__center__p-rgba.png 46592018-Oct-15 19:27
doombots_aurelion_hitflare-sun.png 24K2018-Oct-15 19:27
thinring64.png 9542018-Oct-15 19:27
alpha_26.png 9102018-Oct-15 19:27
sru_riftherald_relic_beacon.png 10K2018-Oct-15 19:27
doombots_runes.png 18K2018-Oct-15 19:27
item_magicshank_mis_02_bard_base_e_speed_buff_t..> 45K2018-Oct-15 19:27
global_ss_smite_damagebase.png 18K2018-Oct-15 19:27
ziggs_skin05_z_energylines.png 93192018-Oct-15 19:27
darkstarmode_varus_skin06_idle_specs_02.png 44K2018-Oct-15 19:27
gemglow_p.png 27K2018-Oct-15 19:27
color-c-magenta32.png 2082018-Oct-15 19:27
tryndamere_base_weapontrail.png 14K2018-Oct-15 19:27
disintegratefire.png 11K2018-Oct-15 19:27
projectmode17_mspdstealparticles.png 49342018-Oct-15 19:27
sru_dragon_ba1_blackhole.png 22342018-Oct-15 19:27
kingporo_snax01_tx_cm.png 53K2018-Oct-15 19:27
doombots_bardcurse_explobard_base_p_shrine_spar..> 14K2018-Oct-15 19:27
projectmode17_sru_order_sparklesmult.png 25K2018-Oct-15 19:27
defunctkarmagreenshieldswipe.png 17K2018-Oct-15 19:27
buff-stone-purple.png 35K2018-Oct-15 19:27
tiger01.png 42K2018-Oct-15 19:27
global_item_thornmail_flare01.png 22K2018-Oct-15 19:27
flash_2x1.png 19K2018-Oct-15 19:27
kingporo_snaxeffect_barrage_bigarea_color-bellc..> 3002018-Oct-15 19:27
sru_duck_splashring.png 10K2018-Oct-15 19:27
nexus_gem_sparkle_rainbow.png 64522018-Oct-15 19:27
projectmode17_sru_cloud_explosion_mult.png 23K2018-Oct-15 19:27
bloodscentsniff_cas__cloud3__p-rgba.png 47812018-Oct-15 19:27
refresh.png 46212018-Oct-15 19:27
tiling.png 137K2018-Oct-15 19:27
fizz_skin08_idle_rock.png 24K2018-Oct-15 19:27
color-godray.png 4122018-Oct-15 19:27
global_item_boc_buff_trail.png 76K2018-Oct-15 19:27
item_junglelichbane_ring_mult.png 58152018-Oct-15 19:27
wolfman_armstreak.png 33592018-Oct-15 19:27
sru_redbuff_centerglowviolet.png 62732018-Oct-15 19:27
siege_warppoint_minionscoredkassadin_skin05_z_s..> 57K2018-Oct-15 19:27
ward_season3_idle_smoke.png 46K2018-Oct-15 19:27
item_dusk_mark.png 59992018-Oct-15 19:27
color-blood32.png 36172018-Oct-15 19:27
nashor_runes_02.png 28K2018-Oct-15 19:27
siege_warppointdamage_tarcolor-bellcurve.png 3782018-Oct-15 19:27
kingporo_snaxeffect_barragebuffsejuani_passive_..> 57K2018-Oct-15 19:27
darkstarmode_powerqball01.png 12K2018-Oct-15 19:27
item_dreadnaughtwarplate_ghostramp.png 42342018-Oct-15 19:27
global_item_elixirofwrath_glow.png 17K2018-Oct-15 19:27
darkstarmode_roundendvacuum_child2varus_skin04_..> 50462018-Oct-15 19:27
monkeyking_skin05_hit_flare.png 24K2018-Oct-15 19:27
doombots_yasuo_wallcolor_yasuo_sheath_ring.png 25832018-Oct-15 19:27
color-redfluid32.png 9462018-Oct-15 19:27
projectmode17_sru_chaos_brightsparks.png 30582018-Oct-15 19:27
wavestar_riftherald_missilekassadin_base_z_bolt..> 17K2018-Oct-15 19:27
siege_siegecannon_impactillaoi_skin01_p_purpleb..> 22K2018-Oct-15 19:27
darkstarmode_roundendpowerbeammorgana_skin11_z_..> 54K2018-Oct-15 19:27
lcdclock.png 33482018-Oct-15 19:27
ezreal_pulsefire_glow_1.png 28K2018-Oct-15 19:27
color-orange_range_01.png 3622018-Oct-15 19:27
color-dazzle.png 14892018-Oct-15 19:27
itemzhonya_base_p_shrine_spark.png 14K2018-Oct-15 19:27
silence03.png 42K2018-Oct-15 19:27
siege_laser_defending_glowline.png 36K2018-Oct-15 19:27
sru_chaos_flowerglow_soft_01.png 28502018-Oct-15 19:27
poroking_z_dome_flames.png 36K2018-Oct-15 19:27
global_ss_smite_steal_wisp.png 19K2018-Oct-15 19:27
sword_of_divine.png 55K2018-Oct-15 19:27
global_teamring_rgba.png 3982018-Oct-15 19:27
darkstarmode_lanternzonepoppy_base_w_sparks_red..> 15K2018-Oct-15 19:27
rune_nashor_04.png 31K2018-Oct-15 19:27
voidooze_bubbles32.png 66K2018-Oct-15 19:26
fire_wisp_03.png 27K2018-Oct-15 19:26
gembeam.png 15K2018-Oct-15 19:26
doombots_bossteemo_deathportalteemo_skin14_e_tr..> 14K2018-Oct-15 19:26
color_singed_skin06_q_snow_green_cas.png 13902018-Oct-15 19:26
hecarim_swirl.png 85662018-Oct-15 19:26
sru_chaos_nexus_distortramp.png 13312018-Oct-15 19:26
bilgewatermercenary11_ringparticle_pop_dust.png 20K2018-Oct-15 19:26
darkstarmode_sog_ceremony_barriersru_chaos_spar..> 25K2018-Oct-15 19:26
global_debuff_ampen_crackflash.png 15K2018-Oct-15 19:26
swirl.png 41K2018-Oct-15 19:26
ha_ap_turret_flare.png 92772018-Oct-15 19:26
quartz32.png 179K2018-Oct-15 19:26
wavestar_shopkeeperspawnsightward_skin63_bokeh_..> 92342018-Oct-15 19:26
lightshaft.png 35K2018-Oct-15 19:26
global_ss_smite_aoestun_monster_mesh.png 47K2018-Oct-15 19:26
morgana_skin05_r_tar_timer_spinstreak.png 38162018-Oct-15 19:26
renekton_vg_e_wind.png 41K2018-Oct-15 19:26
sru_riftherald_scorch.png 25K2018-Oct-15 19:26
wavestar_manaorb_collectionlinesvladhealtrail.png 11K2018-Oct-15 19:26
spawnbeaconbase2.png 98962018-Oct-15 19:26
sru_order_laser.png 28K2018-Oct-15 19:26
darkstarmode_crabalanchewarningdistort-bulge.png 49K2018-Oct-15 19:26
obj_em_shard08.png 9172018-Oct-15 19:26
wavestar_manaorb_tarlulu_skin06_z_glowgrid_01.png 44K2018-Oct-15 19:26
sg_velkoz_base_z_softdot.png 34572018-Oct-15 19:26
color-rampdown02_32.png 2892018-Oct-15 19:26
tt_chaos_turret1_smokeclouda01.png 50K2018-Oct-15 19:26
ward_s3champ_idle_smoke.png 46K2018-Oct-15 19:26
akali_mark_11.png 80K2018-Oct-15 19:26
itemavalanche_ring.png 62702018-Oct-15 19:26
color-evelynnagony.png 78462018-Oct-15 19:26
invball-blood.png 10242018-Oct-15 19:26
sru_river_ripples_01.png 68K2018-Oct-15 19:26
items_dreadnaughtwarplate_mis_02_bard_base_q_mi..> 15K2018-Oct-15 19:26
siege_emergencyshield_shrine_spark.png 14K2018-Oct-15 19:26
doombots_bardcurse_windupbard_base_e_speed_buff..> 52K2018-Oct-15 19:26
siege_emergencyshield_explosionflare-omnimax.png 24K2018-Oct-15 19:26
siege_swapteamsceremony_redweaponstreak15.png 85102018-Oct-15 19:26
project_flare_01.png 27K2018-Oct-15 19:26
sru_junglebuff_dragon_activation_buf_fireline.png 15K2018-Oct-15 19:26
global_shield_rings.png 64552018-Oct-15 19:26
freljord_crest.png 16K2018-Oct-15 19:26
heart_01.png 31912018-Oct-15 19:26
sru_chaos_runebinding.png 24K2018-Oct-15 19:26
hex_blade_03.png 101K2018-Oct-15 19:26
fn_universal_sparks_blue.png 48802018-Oct-15 19:26
global_debuff_ampen_color-hold.png 792018-Oct-15 19:26
color-wormfog.png 18122018-Oct-15 19:26
sru_spacebar_godray.png 30K2018-Oct-15 19:26
global_trinket_itemclairvoyance_ring.png 26K2018-Oct-15 19:26
siege_laser_obliterator_sparks.png 29002018-Oct-15 19:26
malphite_glacial_slicecolormap.png 16522018-Oct-15 19:26
theyarecoming_ba_flash_tar.png 12K2018-Oct-15 19:26
leaf_01.png 29602018-Oct-15 19:26
orderturretfire_trail.png 24K2018-Oct-15 19:26
fireball07.png 25K2018-Oct-15 19:26
wavestar_fishthing_shieldindicatortaric_base_z_..> 792018-Oct-15 19:26
dpa_universal_softcircle.png 80432018-Oct-15 19:26
zeke_fire_sparks.png 30612018-Oct-15 19:26
ball32_02.png 23K2018-Oct-15 19:26
color-feelnopain.png 3832018-Oct-15 19:26
siege_laseraffix_groundrectangle_teamhardbell_r..> 2662018-Oct-15 19:26
rainbowring32.png 14K2018-Oct-15 19:26
mastery_glow_03.png 32K2018-Oct-15 19:26
tt_chains.png 28K2018-Oct-15 19:26
projectmode17_teleportpad_chargeup_part5.png 13282018-Oct-15 19:26
sru_baron_acidball_ball.png 15K2018-Oct-15 19:26
spirit_animal_spawnlines.png 28412018-Oct-15 19:26
doombots_curse_karthus_base_p_deathflakes_rgb.png 17272018-Oct-15 19:26
sru_gromp_death_chunks.png 37K2018-Oct-15 19:26
bw_chaos_glow_brightred.png 35342018-Oct-15 19:26
evelyn_speed_indicator.png 15K2018-Oct-15 19:26
gembeam_red.png 18K2018-Oct-15 19:26
mejaissoulstealer02.png 28K2018-Oct-15 19:26
flashblue_02.png 30K2018-Oct-15 19:26
color-frostsmoke32d.png 12552018-Oct-15 19:26
sru_chaosnexus_lightarc.png 30272018-Oct-15 19:26
chogath_battlecast_decal_rampdown.png 5132018-Oct-15 19:26
projectmode17_health_pickup_tar_avatarlines.png 65K2018-Oct-15 19:26
siege_emergencyshield_barragespark_lasershapes.png 44512018-Oct-15 19:26
darkstarmode_z_circle_normal.png 11K2018-Oct-15 19:26
global_ss_smite_duel_player_base.png 54K2018-Oct-15 19:26
color-banish.png 25312018-Oct-15 19:26
ha_chaos_praxis.png 28K2018-Oct-15 19:26
darkstarmode_lanternpulltetherthresh_skin05_w_b..> 38K2018-Oct-15 19:26
color-anivia_skn5_mist.png 22162018-Oct-15 19:26
color-darkbellcurve32.png 10432018-Oct-15 19:26
deathexplo_innerlight_001.png 11K2018-Oct-15 19:26
flare-sun_38.png 20K2018-Oct-15 19:26
buff_tt_spider_add.png 41K2018-Oct-15 19:26
global_ss_ignite_glow.png 14K2018-Oct-15 19:26
color-dustfade32.png 4652018-Oct-15 19:26
kingporo_snaxeffect_firerumble_skin03_r_flameme..> 11K2018-Oct-15 19:26
yellowlifetrail.png 11K2018-Oct-15 19:26
zed_w_groundshadow_proj.png 27K2018-Oct-15 19:26
sru_order_rollingfog_01.png 20K2018-Oct-15 19:26
blueflame.png 66K2018-Oct-15 19:26
lifetrail.png 95662018-Oct-15 19:26
sru_riftherald_spikes_mult.png 12K2018-Oct-15 19:26
missfortune_skin07_w_debuff_drip.png 1522018-Oct-15 19:26
doombots_summoning_teleport_transition.png 69K2018-Oct-15 19:26
darkstarmode_sog_ceremony_barriersru_chaos_colo..> 862018-Oct-15 19:26
globalcamouflage_erosion_mult.png 78552018-Oct-15 19:26
sru_riftherald_ba_pebbles_4x4.png 37K2018-Oct-15 19:26
ravage.png 5862018-Oct-15 19:26
color-darkflame-blue.png 13392018-Oct-15 19:26
shen_skn6_q.png 80612018-Oct-15 19:26
alistar_skin09_shield_tx_cm.png 63K2018-Oct-15 19:26
doombots_bardcurse_explobard_base_r_cosmic_purp..> 57K2018-Oct-15 19:26
sru_chaos_flowerglow_01.png 35092018-Oct-15 19:26
amumu_sadrobot_oildrop.png 10642018-Oct-15 19:26
color-blood.png 23162018-Oct-15 19:26
siege_siegecannon_impactillaoi_skin01_p_smoke.png 46K2018-Oct-15 19:26
sru_dragon_ba2_impact_groundburn.png 61312018-Oct-15 19:26
color-teleporthoop.png 2762018-Oct-15 19:26
swain_grand_greenish_flame.png 107K2018-Oct-15 19:26
trans-renektonblade.png 5952018-Oct-15 19:26
mfx_orb_trail.png 26K2018-Oct-15 19:26
flare-sun_16.png 17K2018-Oct-15 19:26
wavestar_roomendexplosioncolor-rampdown32_03.png 2802018-Oct-15 19:26
darkstarmode_thresh_qtagbackblockfiora_base_w_b..> 26002018-Oct-15 19:26
color-foggrey.png 14132018-Oct-15 19:26
typhoon_claws_color-sparks.png 3742018-Oct-15 19:26
morgana_skin06_r_beam.png 43K2018-Oct-15 19:26
pox_arcana_color-healtrail.png 2922018-Oct-15 19:26
global_summoner_recall_ringglow_purple.png 25K2018-Oct-15 19:26
elixireyes_02.png 12K2018-Oct-15 19:26
ziggs_skin05_z_energybackvert.png 18352018-Oct-15 19:26
ha_ap_dust_small_mult.png 16K2018-Oct-15 19:26
sru_baron_ba1_fireline.png 64632018-Oct-15 19:26
sru_baron_ba1_smoke.png 16K2018-Oct-15 19:26
bubbleno.png 83942018-Oct-15 19:26
sru_bluebuff_trail.png 76K2018-Oct-15 19:26
projectmode17_sog_channelbeam_narrowglow.png 41892018-Oct-15 19:26
hecarim_weapontrail_1.png 96142018-Oct-15 19:26
global_ss_ignite_smoke.png 54K2018-Oct-15 19:26
color-rampup32_02.png 2622018-Oct-15 19:26
doombots_curse_ryze_base_r_being_teleportedryze..> 77812018-Oct-15 19:26
kappaaura_self.png 54482018-Oct-15 19:26
eyesocket01.png 35K2018-Oct-15 19:26
_template_shield.png 42K2018-Oct-15 19:26
global_ss_smite_player_damagebase.png 55K2018-Oct-15 19:26
rainbowrayblood.png 33K2018-Oct-15 19:26
global_ss_teleport_color_ringfade_blue.png 2032018-Oct-15 19:26
sru_waterfall_test_small_mult_02.png 2962018-Oct-15 19:26
tristana_skin12_plasma_trail.png 40K2018-Oct-15 19:26
mfx_minion_projectile.png 14372018-Oct-15 19:26
elixireyes.png 35K2018-Oct-15 19:26
groundcrack.png 27K2018-Oct-15 19:26
color-gembeam.png 4502018-Oct-15 19:26
sru_dragon_firesphere_4x4.png 63282018-Oct-15 19:26
ezreal_flare_streak_a04.png 13K2018-Oct-15 19:26
global_trinket_spotter_radar.png 11K2018-Oct-15 19:26
sru_crab_dashsand_04.png 51K2018-Oct-15 19:26
poroking_z_speed_swirl_mult.png 72K2018-Oct-15 19:26
morgana_skin05_w_tarpool_tar_color.png 10K2018-Oct-15 19:26
rainbowglow.png 61092018-Oct-15 19:26
alpha_20_08_a.png 11912018-Oct-15 19:26
color-ziggsflame.png 21542018-Oct-15 19:26
siege_laser_targetinglink_beam_core_color.png 60492018-Oct-15 19:26
siege_siegecannon_shotcolor-hold.png 792018-Oct-15 19:26
color-interventionstar.png 7202018-Oct-15 19:26
doombots_bardcurse_stasis_quietbard_base_q_mis_..> 15K2018-Oct-15 19:26
bard_base_r_up_cylinder_blue.png 40K2018-Oct-15 19:26
asc_handoff_radius_indicator.png 32K2018-Oct-15 19:26
zeke_firemult.png 57K2018-Oct-15 19:26
hydra_swirl.png 29K2018-Oct-15 19:26
bw_order_glow_brightblue.png 36822018-Oct-15 19:26
wavestar_channelteleportjanna_skin07_z_bokeh_do..> 92342018-Oct-15 19:26
cast_star_03.png 19172018-Oct-15 19:26
sru_junglebuff_krug_pebbles_4x4.png 101K2018-Oct-15 19:26
sru_baron_deathbreath_poolgeo.png 11K2018-Oct-15 19:26
graves_base_q_gangplank_base_e_timer.png 30302018-Oct-15 19:26
chogath_battlecast_missile_exhaust.png 33K2018-Oct-15 19:26
siege_laser_dpa_noxus_sparks.png 87612018-Oct-15 19:26
distort-pinch-soft.png 31K2018-Oct-15 19:26
darkstarmode_lanternzoneball32_02.png 23K2018-Oct-15 19:26
ziggs_skin05_z_energyback.png 14K2018-Oct-15 19:26
doombots_yasuo_wallyasuo_w_wind_wall_mult.png 32K2018-Oct-15 19:26
destinyiris32.png 51K2018-Oct-15 19:26
siege_siegecannon_chargekassadin_skin05_star.png 24K2018-Oct-15 19:26
sru_sjungle_butterflyglow_01.png 13K2018-Oct-15 19:26
sphere4.png 50K2018-Oct-15 19:26
summoner_burn.png 24K2018-Oct-15 19:26
doombots_brushfiresparks-orange.png 18072018-Oct-15 19:26
obj_gs_bliz2.png 79342018-Oct-15 19:26
itemhurricane_missile.png 12K2018-Oct-15 19:26
sru_wolfden_blueside_windgrass_mult_01.png 13K2018-Oct-15 19:26
blitzcrank_skin08_w_flash_01.png 59482018-Oct-15 19:26
sru_fountain_mana_dots_01.png 21132018-Oct-15 19:26
hecarim_energydust.png 21K2018-Oct-15 19:26
sru_riftherald_ba_splash.png 40K2018-Oct-15 19:26
feelnopain01.png 11K2018-Oct-15 19:26
sru_razorbeak_ba1_swoosh_geomult.png 70212018-Oct-15 19:26
bw_flareorange.png 28K2018-Oct-15 19:26
darksmoke.png 74332018-Oct-15 19:26
ziggs_skin05_z_energylines2.png 23K2018-Oct-15 19:26
doombots_bossteemo_nuke_explonasus_skin05_q_buf..> 38K2018-Oct-15 19:26
sru_gromp_death_spores.png 58942018-Oct-15 19:26
spirit-trail01.png 41542018-Oct-15 19:26
sru_murkwolf_mini_death_shards.png 23K2018-Oct-15 19:26
morgana_skin05_r_tar_fireline.png 23K2018-Oct-15 19:26
kingporo_snaxeffect_barragexerath_skin04_z_flic..> 4382018-Oct-15 19:26
soraka_cleric_smoke.png 81K2018-Oct-15 19:26
order_inhibit_gem.png 44K2018-Oct-15 19:26
global_indicator_ring.png 4712018-Oct-15 19:26
doombots_curse_ryze_base_r_start_enemycolor-hol..> 792018-Oct-15 19:26
global_ss_heal_sparkle_2x2.png 52752018-Oct-15 19:26
sru_riftherald_directional_flash.png 11K2018-Oct-15 19:26
color-hotdown32.png 11872018-Oct-15 19:26
16test.png 21K2018-Oct-15 19:26
wavestar_fishthing_shieldindicatortaric_skin04_..> 41K2018-Oct-15 19:26
wavestar_channelteleportjanna_skin07_z_stargrid..> 11K2018-Oct-15 19:26
morgana_skin05_q_mis_geo.png 51K2018-Oct-15 19:26
item_questcomplete_stars3.png 21842018-Oct-15 19:26
sru_order_greenwisps.png 48542018-Oct-15 19:26
sru_explosion_clumps.png 66032018-Oct-15 19:26
color-anivia_skn5_dimsparkle.png 2082018-Oct-15 19:26
chogath_distortion_waves.png 31K2018-Oct-15 19:26
morgana_skin05_r_tar_geo.png 10K2018-Oct-15 19:26
gangplank_base_hit_flash.png 73832018-Oct-15 19:26
darkstarmode_roundendvacuum_childorianna_skin06..> 53K2018-Oct-15 19:26
sru_baron_spikes.png 92502018-Oct-15 19:26
sg_starsprite_janna.png 83102018-Oct-15 19:26
dimring.png 65212018-Oct-15 19:26
wayofagility01.png 33K2018-Oct-15 19:26
sru_inhibitor_chaos_tower_laserbeam.png 54K2018-Oct-15 19:26
sru_bluebuff_flash.png 69592018-Oct-15 19:26
sru_eastjungle_magicmotes_01.png 29862018-Oct-15 19:26
global_poison_smoke.png 52K2018-Oct-15 19:26
sru_duck_explode_ring.png 21K2018-Oct-15 19:26
amumu_sadrobot_color_electricity.png 49592018-Oct-15 19:26
projectmode17_sru_explosion_clumps.png 66032018-Oct-15 19:26
color-ziggsgreenflame.png 21142018-Oct-15 19:26
visionward.png 66K2018-Oct-15 19:26
ring_orange.png 41K2018-Oct-15 19:26
sg_chogath_feastindicatorbigglow02.png 26K2018-Oct-15 19:26
timebombfuse-green.png 71582018-Oct-15 19:26
color-lensbell32.png 22432018-Oct-15 19:26
sru_wjungle_magic_glowbot_01.png 33K2018-Oct-15 19:26
cp_tree_leaves_red.png 37932018-Oct-15 19:26
windlines.png 24K2018-Oct-15 19:26
sru_chaos_laser.png 30K2018-Oct-15 19:26
darkstarmode_healthpack_crosses.png 24912018-Oct-15 19:26
kingporo_snaxeffect_firerumble_skin03_r_flameme..> 45812018-Oct-15 19:26
global_poison_bubble.png 13K2018-Oct-15 19:26
color-flashramp.png 2642018-Oct-15 19:26
color-bellcurve-blue.png 4232018-Oct-15 19:26
amumu_sadrobot_cableslither2.png 64242018-Oct-15 19:26
sru_baron_ba_miss_trail_mult2.png 36K2018-Oct-15 19:26
darkstarmode_hagasphere.png 62492018-Oct-15 19:26
dirtbits_sooty_03.png 19K2018-Oct-15 19:26
distort-heat.png 32K2018-Oct-15 19:26
reksai_base_burrowed_w_tremor_ring_mult.png 105K2018-Oct-15 19:26
projectmode17_sru_chaos_cracks.png 16K2018-Oct-15 19:26
siegemode_flashpad_indicator_mult.png 99K2018-Oct-15 19:26
crowwings.png 15K2018-Oct-15 19:26
lock01.png 18K2018-Oct-15 19:26
darkstarmode_bookdissolve.png 11K2018-Oct-15 19:26
color-goop.png 18K2018-Oct-15 19:26
bw_plundercrab_ba_color-firemissile.png 19002018-Oct-15 19:26
sru_eastjungle_waterfall_sidefoam_01.png 95022018-Oct-15 19:26
color-smokedark.png 17592018-Oct-15 19:26
sru_clouds.png 32K2018-Oct-15 19:26
swain_grand_black_to_green.png 7522018-Oct-15 19:26
sru_eastjungle_softcone_rocks_01.png 55K2018-Oct-15 19:26
destinyiris32_blue.png 52K2018-Oct-15 19:26
siege_siegecannon_impactalpha_20.png 32092018-Oct-15 19:26
sg_starsprite_poppy.png 90062018-Oct-15 19:26
splat.png 28K2018-Oct-15 19:26
cassiopiea_poisonring_pulse.png 79K2018-Oct-15 19:26
ward_bat_bats.png 11K2018-Oct-15 19:26
darkstarmode_z_fireflicker.png 50392018-Oct-15 19:26
morgana_skin05_q_tar_color_cib.png 16832018-Oct-15 19:26
siege_barracks_buff_shield-blue.png 66482018-Oct-15 19:26
sru_bluebuff_sparkleorbs.png 32562018-Oct-15 19:26
corki_base_q_indicator_rgba.png 2122018-Oct-15 19:26
siege_barracks_buff_shield-red.png 66712018-Oct-15 19:26
chogath_battlecast_scream_waves.png 81842018-Oct-15 19:26
mfx_orb_trail_red.png 26K2018-Oct-15 19:26
sru_junglebuff_krug_dustcloud_mult.png 30K2018-Oct-15 19:26
aura_flares.png 15K2018-Oct-15 19:26
siege_missileshards_2x2.png 11K2018-Oct-15 19:26
color-sona_pax_speed.png 2972018-Oct-15 19:26
akali_blade_05.png 11K2018-Oct-15 19:26
doombots_summoning_teleport_ring.png 37K2018-Oct-15 19:26
sru_riftherald_relic_swirl.png 50K2018-Oct-15 19:26
color-cauldronsmoke.png 31222018-Oct-15 19:26
theyarecoming_mark_rgba.png 8132018-Oct-15 19:26
siege_laseraffix_targetconejhin_base_r_viewcone..> 57K2018-Oct-15 19:26
darkstarmode_endofround_orianna_skin07_r_gradie..> 2192018-Oct-15 19:26
doombots_bossteemo_nuke_explocolor-hold.png 792018-Oct-15 19:26
sru_baron_rune_4.png 62432018-Oct-15 19:26
sru_waterburst.png 39K2018-Oct-15 19:26
gateway.png 35K2018-Oct-15 19:26
color-purprampdown.png 9892018-Oct-15 19:26
fizzbait_skin05_tx_cm.png 51K2018-Oct-15 19:26
siege_roundendceremony_swapmissilechildball32_0..> 23K2018-Oct-15 19:26
sru_crab_dashslow_fade_in_out_p-rgba_02.png 25202018-Oct-15 19:26
doombots_bardcurse_stasis_fullbard_base_p_speed..> 72K2018-Oct-15 19:26
confetti.png 66912018-Oct-15 19:26
drmundo_base_color-bloodfade32.png 3652018-Oct-15 19:26
color-rockdust32.png 12132018-Oct-15 19:26
flare-sun_25.png 23K2018-Oct-15 19:26
doombots_curse_ryze_base_r_end_enemyryze_base_r..> 66932018-Oct-15 19:26
siegemode_timebubble_distort.png 30K2018-Oct-15 19:26
flare-sun_purple.png 21K2018-Oct-15 19:26
sru_baron_grasp_dust.png 72K2018-Oct-15 19:26
chaosexploshaft.png 24K2018-Oct-15 19:26
doombots_bardcurse_explobard_base_r_explo_nova.png 26K2018-Oct-15 19:26
item_trueice_hitpuffs_2x2.png 14K2018-Oct-15 19:26
global_bots_idle_nightmare_avatar_rgb.png 60962018-Oct-15 19:26
poroking_snowsparkle_2x2.png 12K2018-Oct-15 19:26
slam03.png 27K2018-Oct-15 19:26
ocklepod_smokemotes.png 28712018-Oct-15 19:26
reksai_base_burrowed_w_tremor_ring.png 30452018-Oct-15 19:26
sru_inhibitor_order_tower_laserbeam.png 46K2018-Oct-15 19:26
sru_chaos_turret1_rockdebris.png 47822018-Oct-15 19:26
wavestar_channelteleportjanna_skin07_z_slicesta..> 12K2018-Oct-15 19:26
hourglass2.png 7002018-Oct-15 19:26
kingporo_snaxfeeding_readyflashcolor-bellcurve7..> 3452018-Oct-15 19:26
bw_chaos_turret_cas_flashcap_mesh_2x2.png 49K2018-Oct-15 19:26
sru_riftherald_relic_groundup_swirl.png 60K2018-Oct-15 19:26
renekton_runewars_flare_reddish.png 23K2018-Oct-15 19:26
color-fall-leaves.png 28572018-Oct-15 19:26
color-icewind.png 14632018-Oct-15 19:26
tricksters_glass_color-smoke32_07.png 2992018-Oct-15 19:26
siege_siegecannon_impactillaoi_skin01_q_mis_dar..> 9762018-Oct-15 19:26
theyarecoming_p_mark.png 28K2018-Oct-15 19:26
color-chaos-crystal-shards.png 42052018-Oct-15 19:26
arrow_indicator_03.png 18812018-Oct-15 19:26
mm_upward_glow.png 36K2018-Oct-15 19:26
color-summonercastfog.png 3062018-Oct-15 19:26
doombots_summoningvisualmissile_black.png 702018-Oct-15 19:26
siege_siegecannon_prefirekassadin_skin05_z_star..> 57K2018-Oct-15 19:26
rune_ring_poison_01.png 81362018-Oct-15 19:26
siege_emergencyshield_explosion_centerflare.png 21K2018-Oct-15 19:26
alpha_05.png 18992018-Oct-15 19:26
snakearrow.png 21K2018-Oct-15 19:26
mm_glow_mult.png 54K2018-Oct-15 19:26
item_junglelichbane_burstsmoke.png 15K2018-Oct-15 19:26
siegemissilebarrage_z_bellcurve_rgba.png 3782018-Oct-15 19:26
color-corona.png 23032018-Oct-15 19:26
swain_grand_glyph_02_red.png 92122018-Oct-15 19:26
color-alphabend32.png 15222018-Oct-15 19:26
kingporo_snaxeffect_barragebuffsejuani_passive.png 14K2018-Oct-15 19:26
wave01.png 45K2018-Oct-15 19:26
siege_emergencyshield_aoe_outerring_tex.png 12K2018-Oct-15 19:26
projectmode17_overcharge_square.png 94142018-Oct-15 19:26
projectmode17_lines_mult.png 40682018-Oct-15 19:26
swipe.png 70252018-Oct-15 19:26
wavestar_roomendexplosionjanna_skin07_r_galaxyr..> 74K2018-Oct-15 19:26
sru_order_basedoor_groundglow_top_red.png 24K2018-Oct-15 19:26
cookie_tree_07.png 10K2018-Oct-15 19:26
malphite_glacial_frost_dust.png 73K2018-Oct-15 19:26
buff-red-card-ground.png 50312018-Oct-15 19:26
sruap_order_nexus_crackglow.png 71K2018-Oct-15 19:26
sru_razorbeak_ba_flash_2x2.png 40K2018-Oct-15 19:26
sru_junglebuff_dragon_activation_buf_ambientglo..> 26K2018-Oct-15 19:26
ezreal_pulsefire_fractals_01.png 111K2018-Oct-15 19:26
darkstarmode_crabalanchewarningcolor-bellcurve3..> 3002018-Oct-15 19:26
siege_siegecannon_shotsru_order_crystaltex.png 44352018-Oct-15 19:26
sru_order_mm_ba1_mesh_tex.png 19K2018-Oct-15 19:26
wavestar_roomendexplosionjanna_skin07_r_wind.png 28K2018-Oct-15 19:26
frostpuffs_01.png 79K2018-Oct-15 19:26
itemzhonya_spark.png 15K2018-Oct-15 19:26
shard01.png 42962018-Oct-15 19:26
alpha_03_fade.png 17132018-Oct-15 19:26
color-neutralize_slice.png 46172018-Oct-15 19:26
sru_chaosnexus_bokeh_dots_1_4x4.png 94712018-Oct-15 19:26
darkstarmode_hookhitsstarthresh_skin05_w_einste..> 78K2018-Oct-15 19:26
wood_shield_03.png 86K2018-Oct-15 19:26
fizzshark.png 50K2018-Oct-15 19:26
divineblessing01.png 13K2018-Oct-15 19:26
item_mirage_blade_dust_rgba.png 56302018-Oct-15 19:26
multivfx_pass_test.png 20K2018-Oct-15 19:26
corki_firework.png 76K2018-Oct-15 19:26
deathwisp.png 13K2018-Oct-15 19:26
doombots_curse_ryze_base_r_unit_destinationryze..> 23K2018-Oct-15 19:26
sru_river_grassripple_01.png 42892018-Oct-15 19:26
global_mortal_strike.png 86092018-Oct-15 19:26
sru_baron_tentacle_active_color.png 18K2018-Oct-15 19:26
sru_chaos_supertrail.png 13K2018-Oct-15 19:26
lulu_dragontrainer_glitter.png 61832018-Oct-15 19:26
kassadin_base_z_boltshapes.png 17K2018-Oct-15 19:26
itemzhonya_base_p_speed_swirl_mult.png 72K2018-Oct-15 19:26
global_item_thornmail_meshwipe.png 13K2018-Oct-15 19:26
global_debuff_ampen_color-bellcurve32.png 3002018-Oct-15 19:26
color-beakerburp.png 3382018-Oct-15 19:26
ss_attribution_beam.png 27K2018-Oct-15 19:26
projectmode17_exhaust_vent_launchpad_tar_trail.png 51K2018-Oct-15 19:26
itemzhonya_base_r_distort.png 48K2018-Oct-15 19:26
exploshaft.png 18K2018-Oct-15 19:26
drmundo_skin08_w_rays.png 30K2018-Oct-15 19:26
color-hunterscall.png 17182018-Oct-15 19:26
kingporo_fireswirl.png 16K2018-Oct-15 19:26
sru_tower_explosion_ringsuck.png 45K2018-Oct-15 19:26
color-firehalo.png 24522018-Oct-15 19:26
color-syndra_radiantbell.png 7302018-Oct-15 19:26
darkstarmode_endofround_shockwavered_gradient.png 17K2018-Oct-15 19:26
dpa_demacia_glowball_2.png 83552018-Oct-15 19:26
siege_barracks_buff_color-flame-blue.png 29312018-Oct-15 19:26
lulu_skin04_z_sparklecolor.png 35052018-Oct-15 19:26
item_questcomplete_starempty.png 23212018-Oct-15 19:26
draven_weapontrail.png 99472018-Oct-15 19:26
prismaticflash_08.png 36K2018-Oct-15 19:26
wavestar_riftherald_screamreksai_base_q_void_sl..> 40K2018-Oct-15 19:26
global_summoner_recall_ring_purple.png 25K2018-Oct-15 19:26
tryndamere_weapontrail_crit.png 11K2018-Oct-15 19:26
sru_redbuff_death_groundmesh.png 97K2018-Oct-15 19:26
global_debuff_ampen_softrays_4x1.png 49552018-Oct-15 19:26
sru_junglebuff_baron_siegemin_mis_bolt.png 17K2018-Oct-15 19:26
siege_siegecannon_chargeball32_02.png 23K2018-Oct-15 19:26
poro.png 76K2018-Oct-15 19:26
siege_warppointdamage_tarcolor-orangemissile.png 30042018-Oct-15 19:26
sru_waterfall_topfoam_mult_01.png 68752018-Oct-15 19:26
sru_order_sparks_behind.png 86772018-Oct-15 19:26
item_questcomplete_starssheen.png 13302018-Oct-15 19:26
darkstarmode_powerup_core.png 12K2018-Oct-15 19:26
projectmode17_sru_chaos_nexus_distortramp.png 13312018-Oct-15 19:26
projectmode17_teleportpad_triangleoutline.png 16K2018-Oct-15 19:26
frost_rock_01.png 18K2018-Oct-15 19:26
corroded.png 115K2018-Oct-15 19:26
wavestar_roomendexplosion_template_sparkle.png 32K2018-Oct-15 19:26
color-tarpool.png 98042018-Oct-15 19:26
ha_pororay_mult.png 20K2018-Oct-15 19:26
ha_chaos_inhibitor_baseglow.png 9602018-Oct-15 19:26
doombots_curse_ryze_base_r_end_enemycolor-hold.png 792018-Oct-15 19:26
flarered.png 27K2018-Oct-15 19:26
sru_baron_death_smoke.png 15K2018-Oct-15 19:26
spawnbeacon.png 98122018-Oct-15 19:26
item_trueice_hit_nova_ground.png 88982018-Oct-15 19:26
draven_ward_sparkle_01.png 53682018-Oct-15 19:26
bw_chaos_turret_cas_glow.png 23K2018-Oct-15 19:26
wavestar_bomb_explosionziggs_skin05_r_sphere.png 50K2018-Oct-15 19:26
theyarecoming_e_ring_cas.png 21K2018-Oct-15 19:26
global_item_bloodthirster_darkglow.png 28K2018-Oct-15 19:26
fireballalpha_32.png 98K2018-Oct-15 19:26
darksov_basatk_core.png 37472018-Oct-15 19:26
item_trueice_hit_w_smoke_vert.png 12K2018-Oct-15 19:26
color-c-lavender32.png 2072018-Oct-15 19:26
ha_chaos_activation_flash.png 16K2018-Oct-15 19:26
sru_chaos_turret1_flare.png 87232018-Oct-15 19:26
sog_chaos_ceremony_barrier_areasphere.png 54K2018-Oct-15 19:26
summonerteleport_beam.png 98K2018-Oct-15 19:26
projectmode17_sruap_building_crystals.png 52K2018-Oct-15 19:26
doombots_towerchargehitcolor-bellcurve.png 3782018-Oct-15 19:26
projectmode17_victorypoint_get5.png 18882018-Oct-15 19:26
sru_chaos_inhibitor_ringsuck_geo.png 18K2018-Oct-15 19:26
bw_startingplatform_godrays.png 50K2018-Oct-15 19:26
amumu_skin08_r_streamer.png 2212018-Oct-15 19:26
recall_ranked_skybeam.png 46282018-Oct-15 19:26
doombots_giantdart_explohiteffect.png 23K2018-Oct-15 19:26
ping-mia_02.png 79802018-Oct-15 19:26
sru_riftherald_relic.png 46K2018-Oct-15 19:26
celticrockbits.png 20K2018-Oct-15 19:26
siegemode_flash_lightrays.png 48K2018-Oct-15 19:26
ring_red.png 36K2018-Oct-15 19:26
global_ss_cleanse_star_1.png 10K2018-Oct-15 19:26
sg_velkoz_base_q_trails.png 39K2018-Oct-15 19:26
color-blitzproj.png 5712018-Oct-15 19:26
asc_handoff_radius_indicator_cracks.png 38K2018-Oct-15 19:26
sru_order_nexus_dustspikes_3x1.png 18K2018-Oct-15 19:26
obj_em_shard04.png 9042018-Oct-15 19:26
zeke_fire_line.png 49122018-Oct-15 19:26
color-waterfade32.png 33K2018-Oct-15 19:26
rodofages01.png 22K2018-Oct-15 19:26
darkstarmode_impactwithstarthresh_skin05_z_spec..> 45K2018-Oct-15 19:26
tornado01.png 29K2018-Oct-15 19:26
sru_junglebuff_dragon_buff_lvl05_flamecolor.png 27492018-Oct-15 19:26
sru_crab_dashflare-rainbow_white_03.png 11K2018-Oct-15 19:26
sru_dustring_geo_tex.png 10K2018-Oct-15 19:26
arcade_turret_death_corki_skin08_z_crossring_br..> 72442018-Oct-15 19:26
sru_riftherald_portal_splashes_in.png 26K2018-Oct-15 19:26
ziggs_skn4_ultmark.png 96642018-Oct-15 19:26
wake-trail.png 99282018-Oct-15 19:26
morgana_skin05_r_mis_chainbeam.png 34K2018-Oct-15 19:26
kingporo_snaxeffect_jump_shieldazir_base_e_shie..> 41K2018-Oct-15 19:26
doombots_curse_ryze_base_r_character_finderryze..> 84362018-Oct-15 19:26
teephoop.png 16K2018-Oct-15 19:26
exploshaft-orange.png 32K2018-Oct-15 19:26
siege_emergencyshield_speed_swirl_mult_blue.png 67K2018-Oct-15 19:26
global_item_bloodthirster_ringglow.png 26K2018-Oct-15 19:26
color_tt_fire_o2r.png 8642018-Oct-15 19:26
feroscioushowl_cas2__base__p-rgba.png 7532018-Oct-15 19:26
color-beakersmoke.png 20402018-Oct-15 19:26
doombots_bardcurse_explobard_base_r_distort.png 48K2018-Oct-15 19:26
sru_krug_ba_pebbles_4x4.png 37K2018-Oct-15 19:26
sru_junglebuff_krug_nova.png 37K2018-Oct-15 19:26
siege_generator_unbuiltoutline_avatarcube.png 3942018-Oct-15 19:26
ziggs_madscientist.png 70K2018-Oct-15 19:26
monolith_05.png 72K2018-Oct-15 19:26
env_mb_brazierfire_ash_01.png 71112018-Oct-15 19:26
urf_death_urf_ray.png 23K2018-Oct-15 19:26
darkstarmode_impactwithstarthresh_skin05_z_radi..> 49K2018-Oct-15 19:26
obj_em_shard11.png 5932018-Oct-15 19:26
darkstarmode_lanternzoneflashpoppy_base_p_color..> 2992018-Oct-15 19:26
sru_chaos_shopkeeper_staff_glow.png 42682018-Oct-15 19:26
sru_baron_ba1_rockshard_01.png 17K2018-Oct-15 19:26
tt_chaos_turret1_crackwall.png 25K2018-Oct-15 19:26
fire_wisp_01.png 22K2018-Oct-15 19:26
arcade_turret_death_explosions_blitzcrank_skin1..> 17K2018-Oct-15 19:26
kingporo_snaxfeeding_readyflashsru_spawn_readyf..> 28K2018-Oct-15 19:26
corki_base_q_mis_fire_rgba.png 2022018-Oct-15 19:26
kassadin_base_z_flickercolor.png 49052018-Oct-15 19:26
siege_cube.png 3902018-Oct-15 19:26
anniebasicattack02.png 64K2018-Oct-15 19:26
env_mb_dust_small.png 20K2018-Oct-15 19:26
amumu_skin08_w_raindrop_ground.png 41982018-Oct-15 19:26
cardmastergate_green.png 15K2018-Oct-15 19:26
tt_firefly.png 33692018-Oct-15 19:26
item_hexdrinker_spawn_glow.png 17K2018-Oct-15 19:26
enrage_buf__star__p-rgba.png 5832018-Oct-15 19:26
eyeofthestormswipe.png 22K2018-Oct-15 19:26
sru_wolfden_blueside_whisps_01.png 35892018-Oct-15 19:26
siege_generator_evelynn_yelloweye.png 57322018-Oct-15 19:26
sru_waterfall_small_highlight_01.png 86372018-Oct-15 19:26
global_ss_smite_duel_player_4x4_embers.png 25K2018-Oct-15 19:26
siege_siegecannon_prefirekassadin_skin05_star.png 24K2018-Oct-15 19:26
sru_bluebuff_dust_jets_4x1.png 13K2018-Oct-15 19:26
sru_baron_rune_2.png 51342018-Oct-15 19:26
projectmode17_global_summoner_recall_color_blue..> 2032018-Oct-15 19:26
cp_windowglow_01.png 72072018-Oct-15 19:26
shockwaveedge-mana.png 106K2018-Oct-15 19:26
siege_emergencyshield_transition.png 35962018-Oct-15 19:26
urf_death_heartsplosion_flash.png 11K2018-Oct-15 19:26
darkstarmode_lanternzoneflashpoppy_base_w_shiel..> 45K2018-Oct-15 19:26
global_item_righteousglory_linger.png 45K2018-Oct-15 19:26
godray2way.png 12K2018-Oct-15 19:26
sightward.png 68K2018-Oct-15 19:26
siege_emergencyshield_explosioncolor-rampdown.png 3092018-Oct-15 19:26
bw_smoke_02.png 97312018-Oct-15 19:26
sru_razorbeak_sparks.png 60082018-Oct-15 19:26
urf_death_heartsplosion_blast.png 39K2018-Oct-15 19:26
global_summoner_recall_streak.png 38322018-Oct-15 19:26
spin32.png 29082018-Oct-15 19:26
fall-leaves.png 51K2018-Oct-15 19:26
sru_baron_death_mult.png 23K2018-Oct-15 19:26
ferocioushowl04.png 14K2018-Oct-15 19:26
items_dreadnaughtwarplate_mis_02_bard_base_ba_f..> 11K2018-Oct-15 19:26
sru_sjungle_clouds.png 31K2018-Oct-15 19:26
dirtspike32.png 52882018-Oct-15 19:26
purp_attack_buf_10.png 30082018-Oct-15 19:26
electricity02.png 36K2018-Oct-15 19:26
sruap_chaosnexus_redsquare.png 792018-Oct-15 19:26
doombots_towerchargesparksviktor_base_q_buf_hit..> 10K2018-Oct-15 19:26
sru_bluebuff_ba_groundcrack.png 42K2018-Oct-15 19:26
temp_itemglacialspikeenemy_frostground_blur_pla..> 34K2018-Oct-15 19:26
fb_explosion_clumps.png 66402018-Oct-15 19:26
item_blackcleaver_softrays_4x1.png 49592018-Oct-15 19:26
env_mb_snow_flakes.png 4772018-Oct-15 19:26
snowdust.png 60K2018-Oct-15 19:26
item_blackcleaver_sparkle_2x2.png 39732018-Oct-15 19:26
morgana_skin06_q_mis_orb.png 11K2018-Oct-15 19:26
item_rylai_rampin.png 4442018-Oct-15 19:26
color-firefade_frost.png 25782018-Oct-15 19:26
orianna_base_w_distort-ripples.png 60K2018-Oct-15 19:26
doombots_bardcurse_stasis_fullbard_base_w_upwar..> 39K2018-Oct-15 19:26
sru_riftherald_spinattack_spikes_dissolve.png 36K2018-Oct-15 19:26
summoner_battlecry_circle_fade.png 1462018-Oct-15 19:26
wavestar_fishthing_shieldball32_02.png 23K2018-Oct-15 19:26
sru_baron_grasp_glow.png 23K2018-Oct-15 19:26
item_mirage_blade_sandmound.png 56K2018-Oct-15 19:26
sru_groundcracks_3x1.png 81232018-Oct-15 19:26
treelights.png 91542018-Oct-15 19:26
grandclock.png 11K2018-Oct-15 19:26
alpha_energymask_01.png 40K2018-Oct-15 19:26
color-brand_zombie_flames.png 6992018-Oct-15 19:26
corki_base_q_indicator_red.png 86942018-Oct-15 19:26
siege_generator_evelynn_redeye.png 65652018-Oct-15 19:26
kassadin_base_z_bolts.png 22K2018-Oct-15 19:26
sru_riftherald_relic_pieces.png 12K2018-Oct-15 19:26
global_ss_barrier_sheen_mask.png 14K2018-Oct-15 19:26
sru_riftherald_relic_swirl_mult.png 92702018-Oct-15 19:26
kappa_buff_glow.png 52K2018-Oct-15 19:26
treelinelanternlockcomplete2p.png 32K2018-Oct-15 19:26
global_ss_teleport_sparkle_red_2x2.png 13K2018-Oct-15 19:26
chogath_battlecast_missile_tex.png 17692018-Oct-15 19:26
ripple_pieces32.png 47K2018-Oct-15 19:26
sruap_building_crystals.png 52K2018-Oct-15 19:26
gemglow_gold.png 31K2018-Oct-15 19:26
global_item_boc_buff_trail_mask.png 70872018-Oct-15 19:26
siege_siegecannon_shotsru_order_brightsparks.png 39492018-Oct-15 19:26
sg_trail_glow.png 68052018-Oct-15 19:26
color-eyerandom.png 2532018-Oct-15 19:26
reticule02.png 23K2018-Oct-15 19:26
theyarecoming_mark_glow_purple.png 57K2018-Oct-15 19:26
ziggs_skin05_z_lightningmult.png 2662018-Oct-15 19:26
leaf_05.png 88482018-Oct-15 19:26
doombots_bossteemo_portalteemo_skin14_r_lensfla..> 13K2018-Oct-15 19:26
groundsinge02.png 13K2018-Oct-15 19:26
global_poison_smoke_v2.png 23K2018-Oct-15 19:26
items_dreadnaughtwarplate_impact_02_bard_base_b..> 22K2018-Oct-15 19:26
orianna_base_z_aura_self.png 54482018-Oct-15 19:26
doombots_bossteemo_portalxerath_skin03_w_firesw..> 20K2018-Oct-15 19:26
sru_eastjungle_softglow_rocks_mult_01.png 27K2018-Oct-15 19:26
global_stinger_soul.png 31K2018-Oct-15 19:26
sru_fireline.png 15K2018-Oct-15 19:26
ha_chaosnexus_crackwall.png 25K2018-Oct-15 19:26
siege_laser_targetinglink_beam_core.png 17K2018-Oct-15 19:26
amumu_skin08_w_edge_water.png 18K2018-Oct-15 19:26
firetrail.png 70K2018-Oct-15 19:26
fireballalpha.png 108K2018-Oct-15 19:26
coin04.png 43962018-Oct-15 19:26
green.png 41402018-Oct-15 19:26
urf_death_orbitallaser_atmosstreaks.png 110K2018-Oct-15 19:26
bw_turret_smoke_tar.png 51K2018-Oct-15 19:26
color-c-deepblue32.png 2072018-Oct-15 19:26
doombots_bardcurse_windupbard_base_r_explo_symb..> 2722018-Oct-15 19:26
projectmode17_victorypoint_get1.png 16102018-Oct-15 19:26
tt_junglebuff_siegemin_mis_bolt.png 17K2018-Oct-15 19:26
color-bluepoof.png 14832018-Oct-15 19:26
darkstarmode_roundendpowerbeammorgana_skin11_z_..> 40362018-Oct-15 19:26
urf_death_orbitallaser_glow.png 12K2018-Oct-15 19:26
global_item_boc_darkglow.png 28K2018-Oct-15 19:26
hecarim_weapontrail_q2.png 10K2018-Oct-15 19:26
renekton_runewars_transform_swirl.png 14K2018-Oct-15 19:26
voidtile.png 38K2018-Oct-15 19:26
global_summoner_death_ally_flare.png 39K2018-Oct-15 19:26
sru_dragonpit_waterfall_sidefoam_01.png 87432018-Oct-15 19:26
_template_sparkle.png 32K2018-Oct-15 19:26
doombots_bossteemo_nuke_explonasus_skin05_e_tar..> 22K2018-Oct-15 19:26
doombots_bossteemo_targeteralphastrike_prison__..> 7552018-Oct-15 19:26
item_magicshank_beam.png 69852018-Oct-15 19:26
mfx_cm_tar_hit.png 12K2018-Oct-15 19:26
chogath_base_q_teamring_red_rgba.png 9642018-Oct-15 19:26
singed_skin06_q_christmas_flake_cas.png 3712018-Oct-15 19:26
kingporo_snaxtoss_trail.png 15K2018-Oct-15 19:26
zilean_base_e_timer_ring.png 39862018-Oct-15 19:26
hecarim_skin04_q_trail.png 7152018-Oct-15 19:26
sru_trailwisp.png 38K2018-Oct-15 19:26
introbotdamagealertturrets.png 81612018-Oct-15 19:26
sru_chaos_flash.png 43K2018-Oct-15 19:26
sru_chaos_basedoor_barrier_mult.png 30K2018-Oct-15 19:26
color_tt_fire_b2db.png 11962018-Oct-15 19:26
leona_color_passive_rampdown.png 3212018-Oct-15 19:26
spearshadow.png 6452018-Oct-15 19:26
global_ss_teleport_sparkle_blue_2x2.png 15K2018-Oct-15 19:26
morgana_blackthorn_color_idle.png 38862018-Oct-15 19:26
ha_chaosnexus_purplesquare.png 782018-Oct-15 19:26
evelynn_redflame.png 9622018-Oct-15 19:26
color-base.png 792018-Oct-15 19:26
shockwavetrail.png 49K2018-Oct-15 19:26
doombots_curse_karthus_base_p_swirl.png 26K2018-Oct-15 19:26
siege_emergencyshield_explosionball32_01.png 12K2018-Oct-15 19:26
siege_shieldgenerator_z_ring_01.png 32K2018-Oct-15 19:26
orianna_eallyrange_ring.png 1152018-Oct-15 19:26
color-voidoozebubbles-green.png 74992018-Oct-15 19:26
swain_grand_glyph_01_red.png 54932018-Oct-15 19:26
siegemode_flash_spinindicator.png 13K2018-Oct-15 19:26
fiora_teemo.png 56582018-Oct-15 19:26
shockwavebluelines.png 34K2018-Oct-15 19:26
siege_barracks_buffmissile_lines_red.png 55242018-Oct-15 19:26
sru_baron_spawn_clumps.png 81952018-Oct-15 19:26
bloodpinwheel.png 23K2018-Oct-15 19:26
projectmode17_steam_4x2.png 38K2018-Oct-15 19:26
permission_ability_indicator_shamrock.png 84672018-Oct-15 19:26
color-acidbubbles.png 3182018-Oct-15 19:26
sruap_order_nexus_sparklegold.png 51K2018-Oct-15 19:26
evelynn_swirlmesh.png 38K2018-Oct-15 19:26
weaponstreak05.png 21K2018-Oct-15 19:26
global_poison_splat.png 20K2018-Oct-15 19:26
wavestar_roomendexplosionjanna_skin07_z_bokeh_c..> 54K2018-Oct-15 19:26
global_ss_smite_aoestun_damagebase.png 16K2018-Oct-15 19:26
flare-sun_yellow.png 34K2018-Oct-15 19:26
arcade_turret_death_explosions_blitzcrank_skin1..> 7832018-Oct-15 19:26
color-feathers.png 28692018-Oct-15 19:26
color-urfghostglow.png 38742018-Oct-15 19:26
sru_airdragon_rune_shimmer.png 62K2018-Oct-15 19:26
siege_siegecannon_impactillaoi_skin01_whisp.png 20K2018-Oct-15 19:26
gold_dust.png 36K2018-Oct-15 19:26
sru_order_mm_ba1_tar_hit_red.png 19K2018-Oct-15 19:26
fire_scroll32.png 90K2018-Oct-15 19:26
darkstarmode_roundendvacuumorianna_skin06_r_fuz..> 66872018-Oct-15 19:26
dandelion_env.png 99832018-Oct-15 19:26
generic_rockshards_groundburn.png 17K2018-Oct-15 19:26
color-fairy_flame.png 17762018-Oct-15 19:26
color-ghostglow.png 44132018-Oct-15 19:26
blitz_i_color_b.png 3542018-Oct-15 19:26
summoner_battlecry_flash.png 97352018-Oct-15 19:26
mm_glow_mult_2.png 30K2018-Oct-15 19:26
kassadin_base_z_purplebolts.png 23K2018-Oct-15 19:26
siege_siegecannon_impactillaoi_skin01_r_nova_gr..> 27K2018-Oct-15 19:26
nexus_gem_mono.png 33K2018-Oct-15 19:26
sru_order_inhibitor_explosion_groundburn.png 26K2018-Oct-15 19:26
grey.png 3902018-Oct-15 19:26
global_poison_mult_v3.png 11K2018-Oct-15 19:26
sru_junglebuff_razorbeak_marker_2x2.png 76242018-Oct-15 19:26
ping-omw-base.png 21K2018-Oct-15 19:26
sru_murkwolf_death_mesh_whisps.png 32K2018-Oct-15 19:26
env_mb_dust_small_mult_buildings.png 16K2018-Oct-15 19:26
ping-danger-base.png 29K2018-Oct-15 19:26
icon_porosnowballmissile_minimap.png 13532018-Oct-15 19:26
sru_earthdragon_rune_shimmer.png 63K2018-Oct-15 19:26
color-smoke32_03.png 13152018-Oct-15 19:26
pulse.png 10072018-Oct-15 19:26
chronogear.png 72412018-Oct-15 19:26
bm_braizerfire_sparks.png 13K2018-Oct-15 19:26
akali_blade_01.png 84K2018-Oct-15 19:26
ha_pororay_snow_glow.png 37K2018-Oct-15 19:26
sru_baroncrack_crescentsmoke_01.png 72K2018-Oct-15 19:26
cannibalblade.png 73K2018-Oct-15 19:26
sru_regentower_shield_glow_mult.png 102K2018-Oct-15 19:26
color-eve_bloodspray.png 2252018-Oct-15 19:26
flare-rainbow_rainbow_02.png 84912018-Oct-15 19:26
distort-soft-shockwave.png 32K2018-Oct-15 19:26
color-distortbell32.png 9982018-Oct-15 19:26
siege_generator_flare-rainbow_yellow_05.png 11K2018-Oct-15 19:26
sog_chaos_ceremony_barrier_areasphere_mult.png 25K2018-Oct-15 19:26
morgana_skin06_q_tar_hot.png 28K2018-Oct-15 19:26
sru_order_flash.png 44K2018-Oct-15 19:26
chogath_battlecast_dirty_colormap.png 30962018-Oct-15 19:26
color-plateau-ramp.png 18132018-Oct-15 19:26
mastery_glow_06.png 23K2018-Oct-15 19:26
sru_brightsparks.png 35002018-Oct-15 19:26
xerath_skin03_w_fireswirl.png 20K2018-Oct-15 19:26
morgana_skin06_q_tar_flash_ramp.png 1372018-Oct-15 19:26
wow_base_w_orb_rgb.png 3402018-Oct-15 19:26
global_ss_ghost_color.png 155K2018-Oct-15 19:26
color-fountainheal.png 34172018-Oct-15 19:26
sru_river_longwhitewavyfoam_fat_mult_01.png 21K2018-Oct-15 19:26
color-crack-light-shaft.png 50K2018-Oct-15 19:26
sru_waterfall_small_highlight_mult_01.png 26K2018-Oct-15 19:26
tt_junglebuff_meleemin_shield.png 79592018-Oct-15 19:26
healshaft.png 16K2018-Oct-15 19:26
color-darkbinding.png 13332018-Oct-15 19:26
color-smoke32_garbage_10.png 5112018-Oct-15 19:26
swain_grand_ground_glow_black.png 34642018-Oct-15 19:26
siege_siegecannon_shotsru_chaos_blackhole.png 21942018-Oct-15 19:26
urf_death_heartsplosion_smoke.png 58K2018-Oct-15 19:26
morgana_skin05_w_novafog_tar.png 36K2018-Oct-15 19:26
siegemode_flash_indicatoryellow.png 23302018-Oct-15 19:26
sru_order_crystaltex.png 44352018-Oct-15 19:26
color_singed_skin06_q_snow_flake_green_cas.png 13162018-Oct-15 19:26
sru_njungle_godrays.png 12K2018-Oct-15 19:26
smoke_trail32.png 42K2018-Oct-15 19:26
wavestar_manaorb_collectionlinescolor-vladhealt..> 17002018-Oct-15 19:26
global_ss_heal_vortex_alpha.png 56002018-Oct-15 19:26
morgana_skin06_ba_mis_cap_mult.png 57082018-Oct-15 19:26
buff-stone-blue.png 29K2018-Oct-15 19:26
doombots_giantdart_misteemo_skin14_e_fire.png 54K2018-Oct-15 19:26
ghost_overlay_04.png 54K2018-Oct-15 19:26
siege_warppointdamage_beamnexus_ray.png 38K2018-Oct-15 19:26
doombots_bossteemo_movequickteemo_skin14_e_fire..> 54K2018-Oct-15 19:26
aatrox_ba_blood.png 69K2018-Oct-15 19:26
darkstarmode_hookhitsstarthresh_skin05_z_glow_0..> 12K2018-Oct-15 19:26
lunarrevel_victory_z_glowstar_04.png 25752018-Oct-15 19:26
global_summoner_recall_skybeam_purple.png 43282018-Oct-15 19:26
arcade_turret_death_corki_skin08_z_pixel01.png 11092018-Oct-15 19:26
sg_velkoz_base_taunt_board_rgba.png 41K2018-Oct-15 19:26
color-randomwind.png 24242018-Oct-15 19:26
doombots_curse_ryze_base_r_start_enemyryze_base..> 77812018-Oct-15 19:26
ha_chaos_explosion_smoke.png 13K2018-Oct-15 19:26
sru_junglebuff_redbuff_health_sparkle_2x2.png 52752018-Oct-15 19:26
zilean_base_q_smoke.png 40K2018-Oct-15 19:26
cannonball03.png 84402018-Oct-15 19:26
global_indicator_ring_alt.png 2962018-Oct-15 19:26
odin_centerbuff_avatarcolor.png 41352018-Oct-15 19:26
sg_boots_homeguardcolor.png 55K2018-Oct-15 19:26
wavestar_revive_invulntaric_base_w_gem_sheen.png 5322018-Oct-15 19:26
sru_crab_spawn_wave.png 10K2018-Oct-15 19:26
rock01.png 51K2018-Oct-15 19:26
darkstarmode_roundendvacuum_novaorianna_base_z_..> 9982018-Oct-15 19:26
color-white-red-down.png 2942018-Oct-15 19:26
sg_lux_homeguard_trail.png 39K2018-Oct-15 19:26
rock02.png 55K2018-Oct-15 19:26
sru_junglebuff_dragon_activation_buf_flamewhirl..> 32K2018-Oct-15 19:26
tt_capbuff_swirls.png 51K2018-Oct-15 19:26
sru_bluedeath_dust_alpha.png 38K2018-Oct-15 19:26
sru_riftherald_portal_stars_mult.png 16K2018-Oct-15 19:26
rayfire3.png 38K2018-Oct-15 19:26
sru_regentowershield_glow.png 26K2018-Oct-15 19:26
doombots_yasuo_impactcolor_yasuo_w_windwall_imp..> 26422018-Oct-15 19:26
sru_riftherald_dashattack_impact_rocks.png 80592018-Oct-15 19:26
global_item_elixirofsorcery_darkglow.png 26K2018-Oct-15 19:26
morgana_base_q_tar_runeprison.png 18K2018-Oct-15 19:26
darkstarmode_ash.png 29592018-Oct-15 19:26
sru_regentowershield_broken-color_rgba.png 5472018-Oct-15 19:26
drmundo_w_rays_mult.png 10K2018-Oct-15 19:26
hex.png 18722018-Oct-15 19:26
dark_overlay_01.png 86K2018-Oct-15 19:26
dirtbits_marble.png 33K2018-Oct-15 19:26
flare-rainbow_white_03.png 74182018-Oct-15 19:26
global_item_elixirofiron_glow.png 15K2018-Oct-15 19:26
wavestar_riftherald_missilekassadin_base_z_void..> 20K2018-Oct-15 19:26
projectmode17_augfrag_get3.png 21022018-Oct-15 19:26
amumu_skin08_confetti.png 17902018-Oct-15 19:26
mastery_glow_08.png 23K2018-Oct-15 19:26
doombots_curse_ryze_base_r_being_teleportedryze..> 1902018-Oct-15 19:26
doombots_bossteemo_nuke_explonasus_skin05_e_tar..> 11K2018-Oct-15 19:26
doombots_yasuo_wallyasuo_w_windwall_distort_tex..> 47K2018-Oct-15 19:26
global_trinket_spotter_laser.png 10K2018-Oct-15 19:26
nocturne_cyber_alphaslice_noise_sm.png 59K2018-Oct-15 19:26
sona_pax_pixel.png 23K2018-Oct-15 19:26
ui-mia.png 14342018-Oct-15 19:26
galio_gatekeeper_color_spiritflames.png 3672018-Oct-15 19:26
ha_snowball_toss.png 20K2018-Oct-15 19:26
sru_sjungle_dustclouds.png 11K2018-Oct-15 19:26
frostfire_brand_flames.png 34K2018-Oct-15 19:26
flare-rainbow_yellow_05.png 11K2018-Oct-15 19:26
pantheon_skin06_z_streak.png 48842018-Oct-15 19:26
sru_riftherald_dash_cone.png 86K2018-Oct-15 19:26
zilean_skin05_ba_tar_wisp.png 14K2018-Oct-15 19:26
kappacolor-rainbowbell.png 33772018-Oct-15 19:26
color-bloodspray32.png 98452018-Oct-15 19:26
line_missile_reticle.png 92432018-Oct-15 19:26
bugs_env32.png 46922018-Oct-15 19:26
asc_prism_glow.png 36K2018-Oct-15 19:26
doombots_summoningvisualmissilechild_backblast.png 21K2018-Oct-15 19:26
spirit_animal_wispies_02.png 60022018-Oct-15 19:26
rune_nashor_05.png 96802018-Oct-15 19:26
sru_sigil_speed_edge_indicator_01.png 42K2018-Oct-15 19:26
shieldsheen.png 18252018-Oct-15 19:26
global_ss_ignite_firefiller.png 56222018-Oct-15 19:26
siege_laser_targetinglink_wisps.png 57K2018-Oct-15 19:26
malphite_glacial_blasthole.png 94K2018-Oct-15 19:26
doombots_yasuo_arroworianna_base_q_orbarrow32.png 3722018-Oct-15 19:26
sru_baroncrack_plasma_line_01.png 23K2018-Oct-15 19:26
urf_death_orbitallaser_lead.png 32K2018-Oct-15 19:26
doombots_curse_ryze_base_r_being_teleportedryze..> 30482018-Oct-15 19:26
sru_baron_deathbreath_indicator.png 20K2018-Oct-15 19:26
sru_dragon_ba1_sparks.png 7972018-Oct-15 19:26
siege_emergencyshield_explosion_energybackvert.png 18352018-Oct-15 19:26
irelia_dagger_02.png 97K2018-Oct-15 19:26
purple_gem.png 42K2018-Oct-15 19:26
sru_order_turret1_crackray.png 43552018-Oct-15 19:26
hotspot.png 20K2018-Oct-15 19:26
morgana_skin05_q_tar_color_darkbound.png 11162018-Oct-15 19:26
sightward_eos_04_spark_01.png 93822018-Oct-15 19:26
global_ss_ignite_fire.png 23K2018-Oct-15 19:26
fire_torch_02.png 43K2018-Oct-15 19:26
sru_brazierfire_glow.png 52K2018-Oct-15 19:26
sru_wolfden_blueside_manastars_01.png 49682018-Oct-15 19:26
sog_ceremony_barrier_arearing.png 28K2018-Oct-15 19:26
poroking_z_trail_01.png 14K2018-Oct-15 19:26
amumu_skin08_w_cloud.png 25K2018-Oct-15 19:26
infernalguardian_circle.png 13K2018-Oct-15 19:26
lightningbolt.png 92162018-Oct-15 19:26
darkstarmode_energylines2.png 23K2018-Oct-15 19:26
sru_chaos_inhibitor_brightflash.png 32982018-Oct-15 19:26
hecarim_weapontrail_q2_headless.png 92052018-Oct-15 19:26
sru_chaosinhibitor_ambientglow.png 32K2018-Oct-15 19:26
lillypad.png 18K2018-Oct-15 19:26
arcade_brazier_bw_sparks.png 7552018-Oct-15 19:26
morgana_skin06_q_mis_glow.png 85352018-Oct-15 19:26
doombots_spirit_shards.png 69462018-Oct-15 19:26
bw_order_turret_bullet_mis.png 20K2018-Oct-15 19:26
doombots_bossteemo_nuke_incomingziggs_skin05_r_..> 23362018-Oct-15 19:26
bw_ironback_spear_03_enemy.png 85K2018-Oct-15 19:26
sru_eastjungle_softglow_rocks_01.png 46322018-Oct-15 19:26
recall_ranked_wispmult.png 57K2018-Oct-15 19:26
siege_laser_targetinglink_beam_core_color_red.png 63002018-Oct-15 19:26
kingporo_snaxeffect_fire_hitcolor-hit-physical.png 1692018-Oct-15 19:26
anivia_skn5_wisps_mult.png 23K2018-Oct-15 19:26
trans-ss_flash.png 22112018-Oct-15 19:26
sru_chaos_turret1_blastwave.png 13K2018-Oct-15 19:26
gunsight.png 10K2018-Oct-15 19:26
yikes.png 17K2018-Oct-15 19:26
sparks_blue.png 31262018-Oct-15 19:26
rainbowflash.png 94372018-Oct-15 19:26
sru_riftherald_portal_splashes.png 40K2018-Oct-15 19:26
darkstarmode_endofround_orianna_skin07_z_ribbon..> 30K2018-Oct-15 19:26
doombots_towerchargehitviktor_base_q_buf_hit_bu..> 10K2018-Oct-15 19:26
sru_junglebuff_krug_dustcloud.png 40K2018-Oct-15 19:26
flareorange.png 32K2018-Oct-15 19:26
siege_swapteamsceremony_ryze_base_r_core_2x2.png 55722018-Oct-15 19:26
darkstarmode_impactwithstarthresh_skin05_w_eins..> 78K2018-Oct-15 19:26
ziggs_skin05_r_bookdissolve.png 11K2018-Oct-15 19:26
color-nexus-explo-chaos-rev.png 5272018-Oct-15 19:26
sru_regentowershield_lines_headtrail.png 11K2018-Oct-15 19:26
doombots_yasuo_wallyasuo_skin01_basic_attack_fl..> 51K2018-Oct-15 19:26
ha_ap_wisp_mult.png 55K2018-Oct-15 19:26
volibear_storm_01.png 31K2018-Oct-15 19:26
nautilus_skin04_w_glow.png 31342018-Oct-15 19:26
global_item_manapotion_4x4_sparkle.png 94182018-Oct-15 19:26
fn_universal_bellcurve_red_001.png 5672018-Oct-15 19:26
siege_shieldgenerator_bufflines_color-hold.png 792018-Oct-15 19:26
chain01.png 60K2018-Oct-15 19:26
slash.png 34K2018-Oct-15 19:26
deathfire_proj_01.png 11K2018-Oct-15 19:26
chaos_nexus_gem.png 43K2018-Oct-15 19:26
poroking_z_land_bolts.png 13K2018-Oct-15 19:26
item_danger_alert_exclamation.png 13K2018-Oct-15 19:26
sru_eastjungle_waterfall_whitefalls_mult_01.png 11K2018-Oct-15 19:26
flicker_03.png 13582018-Oct-15 19:26
mori_symbol_05.png 25K2018-Oct-15 19:26
doombots_summoningvisualmissilechildball32_02.png 23K2018-Oct-15 19:26
firefly01.png 17K2018-Oct-15 19:26
heal03.png 20K2018-Oct-15 19:26
projectmode17_overcharge_speedbuff_ring.png 22K2018-Oct-15 19:26
darkstarmode_hookhitsstar_chainbeamthresh_skin0..> 36K2018-Oct-15 19:26
color-blink2.png 1082018-Oct-15 19:26
ziggs_skin05_e_crystalsheen_02.png 48K2018-Oct-15 19:26
gragas_shockwaves_03.png 59072018-Oct-15 19:26
sru_redbuff_fx_death.png 106K2018-Oct-15 19:26
item_blackcleaver_smokeydust_max.png 21K2018-Oct-15 19:26
fallenangel_tar__outer__p-rgba.png 3902018-Oct-15 19:26
wavestar_fishthing_shieldindicatortaric_skin04_..> 11K2018-Oct-15 19:26
doombots_bossteemo_deathportalnasus_skin05_e_ta..> 53K2018-Oct-15 19:26
sru_krug_mis_bloodmoon_mesh.png 62K2018-Oct-15 19:26
ping-attack.png 14K2018-Oct-15 19:26
sru_cloudpattern_01.png 74K2018-Oct-15 19:26
designergodray_focus_rgb.png 6202018-Oct-15 19:26
distort1.png 8552018-Oct-15 19:26
sg_lulu_skin07_homeguard_trail.png 40K2018-Oct-15 19:26
items_dreadnaughtwarplate_impact_02_bard_base_r..> 50K2018-Oct-15 19:26
itemavalanche_snow.png 7072018-Oct-15 19:26
itemzhonyas_up_cylinder.png 42K2018-Oct-15 19:26
siege_laser_flares_01.png 92402018-Oct-15 19:26
sru_chaos_ambientglow.png 25K2018-Oct-15 19:26
kassadin_base_z_voidbackground_04.png 25K2018-Oct-15 19:26
projectmode17_sog_channelbeam_glow.png 41382018-Oct-15 19:26
tiamat_shockwaveinner.png 15K2018-Oct-15 19:26
darksov_justicar_symbolstripe_lv1.png 12K2018-Oct-15 19:26
arcade_floatingpixel_01.png 10602018-Oct-15 19:26
global_stinger_praxis.png 46K2018-Oct-15 19:26
darkstarmode_powerupporoking_z_clouds_01.png 47K2018-Oct-15 19:26
timebombfuse.png 55362018-Oct-15 19:26
darkstarmode_thresh_qtagbackblockfiora_base_e_b..> 50K2018-Oct-15 19:26
tryndamere_sultan_critimpact.png 19K2018-Oct-15 19:26
siege_emergencyshield_distort.png 48K2018-Oct-15 19:26
ha_chaos_nexus_crackglow.png 72K2018-Oct-15 19:26
bw_chaos_buildup_mult.png 70K2018-Oct-15 19:26
sr2_gromp_death_flash.png 70402018-Oct-15 19:26
victory_glb_swirl.png 40992018-Oct-15 19:26
leaf_02_new.png 92422018-Oct-15 19:26
color-butterfly32.png 61962018-Oct-15 19:26
color-fireballtrail_frost.png 16872018-Oct-15 19:26
global_item_elixirofruin_dustcloud_mult.png 30K2018-Oct-15 19:26
transition_test.png 69K2018-Oct-15 19:26
flare-rainbow_hextech_01.png 86252018-Oct-15 19:26
hecarim_skn4_rainbowarc_mult.png 25K2018-Oct-15 19:26
rock05.png 65K2018-Oct-15 19:26
testing_vertexalpha.png 41312018-Oct-15 19:26
singed_skin06_q_snow_spark.png 17K2018-Oct-15 19:26
env_mb_shopsouth_dust_mult.png 97652018-Oct-15 19:26
wavestar_roomendexplosionjanna_skin07_z_shrinki..> 30K2018-Oct-15 19:26
projectmode17_exhaust_vent_launchpad_swirls.png 21K2018-Oct-15 19:26
sunray2.png 52322018-Oct-15 19:26
item_devourer_ghost.png 70K2018-Oct-15 19:26
sru_order_brightsparks.png 35002018-Oct-15 19:26
sru_gromp_death_spores2.png 63452018-Oct-15 19:26
smoke_blue.png 51212018-Oct-15 19:26
swain_grand_shadowgrasp_swirl.png 12K2018-Oct-15 19:26
fj_ap_chainsice.png 59K2018-Oct-15 19:26
starfilter.png 19K2018-Oct-15 19:26
sru_chaos_turret1_smokeclouda01.png 56K2018-Oct-15 19:26
siege_laseraffix_targetconejhin_base_r_viewcone..> 59K2018-Oct-15 19:26
wavestar_channellux_skin06_r_beam_strands.png 103K2018-Oct-15 19:26
freljord_crown.png 46K2018-Oct-15 19:26
bwmerc14ring.png 38K2018-Oct-15 19:26
sru_brazier_flame_temp_01.png 20K2018-Oct-15 19:26
weaponstreak06.png 18K2018-Oct-15 19:26
global_ss_exhaust_rings.png 15K2018-Oct-15 19:26
ironsolari_sheen.png 31432018-Oct-15 19:26
sunfocus.png 30K2018-Oct-15 19:26
sru_baron_grasp_crystal.png 30K2018-Oct-15 19:26
arcade_floating_coinandring.png 41K2018-Oct-15 19:26
sru_waterfalll_sidefoam_01.png 84762018-Oct-15 19:26
sru_lr_godrays.png 16K2018-Oct-15 19:26
sru_order_praxis.png 28K2018-Oct-15 19:26
ping-areaiswarded.png 12K2018-Oct-15 19:26
cs_prism_blue.png 68K2018-Oct-15 19:26
order_inhibit_gem_inside.png 11K2018-Oct-15 19:26
global_ss_smite_aoestun_4x4_embers.png 91682018-Oct-15 19:26
item_magicshank_darkcloud.png 62262018-Oct-15 19:26
color-c-blue32.png 2082018-Oct-15 19:26
sru_baron_ba1_grounddust.png 11K2018-Oct-15 19:26
sru_order_turret1_godrays.png 27K2018-Oct-15 19:26
color-hotpink.png 3622018-Oct-15 19:26
color-recalltimer32.png 2372018-Oct-15 19:26
color-rainbowfade32.png 75792018-Oct-15 19:26
watersplash2x2.png 25K2018-Oct-15 19:26
shardflash.png 63822018-Oct-15 19:26
sru_junglebuff_redbuff_health_glow-soft.png 13K2018-Oct-15 19:26
voidball.png 48K2018-Oct-15 19:26
sru_waterring_fast.png 37K2018-Oct-15 19:26
morgana_skin05_w_ember_tar.png 34K2018-Oct-15 19:25
sru_riftherald_portalopen_flare.png 24K2018-Oct-15 19:25
global_ss_smite_steal_4x4_embers.png 23K2018-Oct-15 19:25
morgana_skin05_q_tar_runeprison.png 18K2018-Oct-15 19:25
gearbolt01.png 44K2018-Oct-15 19:25
gemstreaks.png 21432018-Oct-15 19:25
item_dusk_stars.png 11K2018-Oct-15 19:25
urf_death_orbitallaser_mat_transtype.png 16K2018-Oct-15 19:25
siege_siegecannon_impactillaoi_skin01_q_holdmid..> 23882018-Oct-15 19:25
siege_siegecannon_impactillaoi_skin01_p_flicker..> 49052018-Oct-15 19:25
darkstarmode_endofround_orianna_skin07_z_flare_..> 11K2018-Oct-15 19:25
heimerdinger_hextech_missile.png 24K2018-Oct-15 19:25
obj_em_shard02.png 6342018-Oct-15 19:25
sru_crab_dashcolor-rampdown.png 3092018-Oct-15 19:25
global_debuff_ampen_starflash_anim_3x3.png 20K2018-Oct-15 19:25
sru_gromp_death_carcass.png 21K2018-Oct-15 19:25
wavestar_manaorb_tarlulu_skin06_z_glow_01.png 74162018-Oct-15 19:25
global_bots_idle_nightmare_pulse_rgb.png 35172018-Oct-15 19:25
color-mejaissoulsteeler2.png 8252018-Oct-15 19:25
singed_skin06_r_snow_glow.png 37K2018-Oct-15 19:25
color-oib.png 26052018-Oct-15 19:25
global_ss_clarity_sparkle_2x2.png 63682018-Oct-15 19:25
color_mono_trail.png 16632018-Oct-15 19:25
assassinmode_kalista_skin01_p_glow.png 14K2018-Oct-15 19:25
wavestar_channellux_skin06_bokeh_dots_4x4.png 92342018-Oct-15 19:25
siege_laseraffix_groundrectangle_bluehardbell_r..> 2452018-Oct-15 19:25
obj_em_shard12.png 7962018-Oct-15 19:25
ezreal_pulsefire_death_lines.png 93582018-Oct-15 19:25
theyarecoming_glow_distort.png 48K2018-Oct-15 19:25
sru_firedragon_rune.png 28K2018-Oct-15 19:25
wrench2.png 25962018-Oct-15 19:25
global_summoner_recall_skybeamglow.png 83002018-Oct-15 19:25
pantheon_skin06_z_swirlring_tx.png 52K2018-Oct-15 19:25
global_ss_cleanse_bigglow.png 72042018-Oct-15 19:25
snowflake_sam.png 15K2018-Oct-15 19:25
global_item_elixirofruin_dustring_geo_tex.png 10K2018-Oct-15 19:25
color-burndown.png 27932018-Oct-15 19:25
wavestar_bomb_explosionball32_02.png 23K2018-Oct-15 19:25
ha_building_crystals.png 53K2018-Oct-15 19:25
env_mb_brazierfire_mult.png 16K2018-Oct-15 19:25
temp_itemglacialspikeenemy_w_smoke_vert.png 12K2018-Oct-15 19:25
puppeteer_string.png 43K2018-Oct-15 19:25
sru_riftherald_spinattack_arms.png 11K2018-Oct-15 19:25
malphite_skin06_q_disc_01.png 89022018-Oct-15 19:25
darkstarmode_endofround_orianna_skin07_z_sparks..> 44K2018-Oct-15 19:25
puppeteer_lifestring.png 27K2018-Oct-15 19:25
spike_02.png 14K2018-Oct-15 19:25
siegemissilebarrage_z_missiletrail_blue.png 39112018-Oct-15 19:25
alpha_slice_g_test.png 53082018-Oct-15 19:25
dark_star_blackhole_swirl.png 36K2018-Oct-15 19:25
ha_ap_ringsuck_geo.png 18K2018-Oct-15 19:25
morgana_skin06_q_mis_wispy1x8_mult.png 12722018-Oct-15 19:25
darkstarmode_varus_skin06_r_mis_sparkles.png 75342018-Oct-15 19:25
malphite_skin06_z_glow_01.png 47K2018-Oct-15 19:25
siege_siegecannon_impactillaoi_base_r_global_it..> 26K2018-Oct-15 19:25
itemzhonya_base_p_speed_flash.png 23K2018-Oct-15 19:25
focused_sun.png 97012018-Oct-15 19:25
doombots_bardcurse_explobard_base_q_mis_spark.png 15K2018-Oct-15 19:25
amumu_skin08_q_bow.png 56322018-Oct-15 19:25
sphere3.png 48K2018-Oct-15 19:25
bw_ap_order_inhib_pitglow.png 84762018-Oct-15 19:25
global_trinket_yellow_meshdetail.png 30K2018-Oct-15 19:25
bluetorp-light.png 81272018-Oct-15 19:25
pulse2.png 11442018-Oct-15 19:25
orianna_base_z_oriana_base_r_shockwave_flash.png 27K2018-Oct-15 19:25
siege_warppointdamage_beamdrawabead05.png 13K2018-Oct-15 19:25
item_ardentcenser_buff_glow.png 13042018-Oct-15 19:25
kappacolor-bellcurve32.png 3002018-Oct-15 19:25
doombots_bardcurse_windupbard_base_r_ground_dec..> 13K2018-Oct-15 19:25
global_ss_teleport-color.png 5572018-Oct-15 19:25
ziggs_skin05_z_energymote.png 13K2018-Oct-15 19:25
doombots_curse_ryze_base_r_being_teleportedcolo..> 792018-Oct-15 19:25
projectmode17_sruap_chaos_nexus_crackglow.png 68K2018-Oct-15 19:25
doombots_bossteemo_portalnasus_skin05_e_tar_spa..> 53K2018-Oct-15 19:25
siege_emergencyshield_barragespark_beamflare_bl..> 40K2018-Oct-15 19:25
fb_explosion_smoke.png 15K2018-Oct-15 19:25
doombots_bardcurse_stasis_quietbard_base_r_up_c..> 42K2018-Oct-15 19:25
siege_laser_obliterator_sparks_blue.png 88492018-Oct-15 19:25
blast_ring_02.png 71852018-Oct-15 19:25
hecarim_skin04_trail.png 5132018-Oct-15 19:25
global_ss_barrier_sheildflat.png 45K2018-Oct-15 19:25
sru_gromp_death_explo_flash.png 12K2018-Oct-15 19:25
global_ss_teleport_wisp.png 19K2018-Oct-15 19:25
projectmode17_color-hold_fresnel.png 782018-Oct-15 19:25
test_texture.png 25362018-Oct-15 19:25
darkstarmode_color-rampdown.png 3092018-Oct-15 19:25
bw_turret_rubblesmoke_mult.png 36K2018-Oct-15 19:25
color-wayofagility32.png 3312018-Oct-15 19:25
color-ss-ghostramp.png 40852018-Oct-15 19:25
singed_skin06_q_snow_spark_red.png 17K2018-Oct-15 19:25
global_ss_smite_aoestun_overlay.png 59K2018-Oct-15 19:25
cs_prism_red.png 68K2018-Oct-15 19:25
doombots_bardcurse_explobard_base_r_explo_symbo..> 78K2018-Oct-15 19:25
twitchbowglow.png 23K2018-Oct-15 19:25
darkstarmode_ring01a.png 14K2018-Oct-15 19:25
rune_target_ring_03.png 69042018-Oct-15 19:25
ocklepod_distort-heat.png 32K2018-Oct-15 19:25
flare-rainbow_yellow_11.png 10K2018-Oct-15 19:25
itemzhonya_base_r_sparks.png 26K2018-Oct-15 19:25
tear01.png 85142018-Oct-15 19:25
color-c-green32.png 2082018-Oct-15 19:25
projectmode17_avatardigilines.png 65K2018-Oct-15 19:25
swipetrail.png 14K2018-Oct-15 19:25
darkstarmode_lanternzonepoppy_base_w_shield_edg..> 44K2018-Oct-15 19:25
urf_death_orbitallaser_swirls.png 15K2018-Oct-15 19:25
porosnack.png 15K2018-Oct-15 19:25
amumu_skin08_r_face_happy.png 27K2018-Oct-15 19:25
ha_abysswind_01.png 17K2018-Oct-15 19:25
timebomb.png 18K2018-Oct-15 19:25
color-rock.png 11172018-Oct-15 19:25
watched.png 22K2018-Oct-15 19:25
profile_glow_03.png 21K2018-Oct-15 19:25
projectmode17_overcharge_speedbuff_trailoutline..> 10K2018-Oct-15 19:25
sru_waterfalll_highlight_small_01.png 68122018-Oct-15 19:25
doombots_bardcurse_windupbard_base_r_spin_ring.png 23K2018-Oct-15 19:25
streak_01.png 16K2018-Oct-15 19:25
color-bloodboil.png 3662018-Oct-15 19:25
deathexplo-purple.png 69872018-Oct-15 19:25
morgana_skin06_recall_energy_core.png 21K2018-Oct-15 19:25
wavestar_bomb_explosionziggs_skin05_z_energymot..> 13K2018-Oct-15 19:25
sru_ordernexus_eog_blackhole.png 62982018-Oct-15 19:25
doombots_curse_ryze_base_r_being_teleportedaura..> 54482018-Oct-15 19:25
swain_grand_demonform_skin_flash.png 2072018-Oct-15 19:25
cyclone.png 56K2018-Oct-15 19:25
mastery_glow_09.png 36K2018-Oct-15 19:25
nexus_gem_sparkle.png 58422018-Oct-15 19:25
project_fireline_01.png 15K2018-Oct-15 19:25
blackclever_redflare.png 85352018-Oct-15 19:25
ring03.png 13K2018-Oct-15 19:25
wavestar_channellux_skin06_r_heart_beam_mult.png 49K2018-Oct-15 19:25
chaos_nexus_wipe.png 8202018-Oct-15 19:25
saucer01.png 28K2018-Oct-15 19:25
trail_colors_purp.png 99042018-Oct-15 19:25
generic_rockshards_grounddirt.png 19K2018-Oct-15 19:25
sru_river_ripples_mult_01.png 57942018-Oct-15 19:25
sru_tower_explosion_clumps.png 39592018-Oct-15 19:25
sru_riveredging_mult_01.png 13K2018-Oct-15 19:25
green_rings_01.png 13K2018-Oct-15 19:25
hydra_impact_flare.png 27212018-Oct-15 19:25
sru_wjungle_magic_glowbot_mult_01.png 55K2018-Oct-15 19:25
siege_swapteamsceremony_ryze_base_p_aura_tex.png 66K2018-Oct-15 19:25
doombots_bossteemo_portalteemo_skin14_e_trail.png 14K2018-Oct-15 19:25
doombots_aurelionstarsaurelionsol_base_p_starsp..> 68K2018-Oct-15 19:25
zyra_skin02_q_center.png 69K2018-Oct-15 19:25
projectmode17_distort-pinch.png 33K2018-Oct-15 19:25
designergodray_rgb.png 2022018-Oct-15 19:25
weaponstreak13.png 22K2018-Oct-15 19:25
global_debuff_ampen_shield_negative.png 33K2018-Oct-15 19:25
tt_vilemaw_cm_ba_mis_tex.png 50092018-Oct-15 19:25
global_ss_barrier_sheen.png 39862018-Oct-15 19:25
env_mb_abyssclouds_01.png 61K2018-Oct-15 19:25
color-syndra_corruption.png 17842018-Oct-15 19:25
color-bellcurve32_03.png 2762018-Oct-15 19:25
crucible_sparkles.png 26972018-Oct-15 19:25
siege_siegecannon_prefirekassadin_skin05_z_ener..> 42K2018-Oct-15 19:25
doombots_curse_ryze_base_r_teleport_readyryze_b..> 23K2018-Oct-15 19:25
morgana_skin06_r_beamdark.png 40K2018-Oct-15 19:25
ring_orange_02.png 35K2018-Oct-15 19:25
lunarrevel_victory_groundflame.png 52K2018-Oct-15 19:25
crystal_inner_glow_red.png 22K2018-Oct-15 19:25
ward_pink_eye.png 17K2018-Oct-15 19:25
color-nexus-explo-chaos.png 3532018-Oct-15 19:25
tt_junglebuff_minionlines.png 74072018-Oct-15 19:25
global_stealth_eye_closed_new.png 28K2018-Oct-15 19:25
siege_emergencyshield_ash_01_blue.png 57652018-Oct-15 19:25
darkstarmode_feather_mult.png 57402018-Oct-15 19:25
rampdown32.png 2592018-Oct-15 19:25
item_junglelichbane_blaststreaks.png 80532018-Oct-15 19:25
darksov_dust.png 69612018-Oct-15 19:25
wavestar_channellux_skin06_r_heart_beam_single.png 49K2018-Oct-15 19:25
cardmasterteleport_beam.png 44K2018-Oct-15 19:25
morgana_skin05_q_wisps_mis_mult.png 42K2018-Oct-15 19:25
bw_ambientglow_blue.png 13K2018-Oct-15 19:25
swain_grand_ground_glow.png 83232018-Oct-15 19:25
capture_crystal_red_inv.png 66832018-Oct-15 19:25
color-lightning-cyan.png 16072018-Oct-15 19:25
wavestar_roomendexplosionrampdown32.png 2592018-Oct-15 19:25
vi_basicattack_speedlines.png 17K2018-Oct-15 19:25
wavestar_shopkeeperspawnsightward_skin63_slices..> 12K2018-Oct-15 19:25
monkeyking_base_death_stone_ramp.png 1462018-Oct-15 19:25
smoketrail32.png 33K2018-Oct-15 19:25
barrackrunes.png 23002018-Oct-15 19:25
siege_emergencyshield_distroy.png 47K2018-Oct-15 19:25
sparks32.png 13612018-Oct-15 19:25
fistoffury01.png 27K2018-Oct-15 19:25
kingporo_snaxeffect_barrageaoe_leona_base_z_col..> 6012018-Oct-15 19:25
singed_experiment_poisonflicker_red2.png 43182018-Oct-15 19:25
smoke01.png 19K2018-Oct-15 19:25
drmundo_base_blurdrops.png 59732018-Oct-15 19:25
sruap_order_inhibitor_runecountdown_glow.png 96622018-Oct-15 19:25
doombots_curse_karthus_base_p_death_flare.png 25K2018-Oct-15 19:25
sru_waterfall_whitefalls_01.png 30K2018-Oct-15 19:25
urf_death_heartsplosion_sparkle.png 53652018-Oct-15 19:25
global_stinger_lifeaura.png 13K2018-Oct-15 19:25
bw_chaos_startingplatform_redgem.png 10282018-Oct-15 19:25
item_angelhand_buff_glow_ramp.png 3242018-Oct-15 19:25
color-miononspawnflash_red.png 49482018-Oct-15 19:25
deathwave.png 46K2018-Oct-15 19:25
color-armordebuff_blue.png 7442018-Oct-15 19:25
designergodray.png 46982018-Oct-15 19:25
morgana_blackthorn_petals.png 36K2018-Oct-15 19:25
haga_sphere.png 4282018-Oct-15 19:25
wave02.png 31K2018-Oct-15 19:25
color-bugs32.png 14K2018-Oct-15 19:25
bw_ambientglow.png 24K2018-Oct-15 19:25
sruap_chaosinhibitor_respawn_glow.png 75432018-Oct-15 19:25
darkstarmode_hookhitsstarthresh_skin05_z_glow_0..> 39782018-Oct-15 19:25
doombots_bossteemo_nuke2_incomingteemo_skin14_e..> 14K2018-Oct-15 19:25
bw_raindrops_01.png 34502018-Oct-15 19:25
siege_laser_targetinglink_beam_wisps_4x1.png 54K2018-Oct-15 19:25
sru_duck_ringglow.png 28K2018-Oct-15 19:25
spikebullet.png 21272018-Oct-15 19:25
color-grandclock.png 3462018-Oct-15 19:25
doombots_bardcurse_stasis_fullbard_base_r_disto..> 48K2018-Oct-15 19:25
sru_baron_acidball_poolsphere.png 37K2018-Oct-15 19:25
wavestar_riftherald_screamreksai_base_burrowed_..> 97612018-Oct-15 19:25
siege_laser_defending_eye_sparkle.png 71112018-Oct-15 19:25
blooddrops.png 38602018-Oct-15 19:25
fang_spike_red_06.png 47142018-Oct-15 19:25
sru_baron_acidball_junk.png 29K2018-Oct-15 19:25
global_ss_teleport_wisp_thick.png 25K2018-Oct-15 19:25
graves_canister_texture.png 31K2018-Oct-15 19:25
sru_order_cm_ba_mis_tex_red.png 32352018-Oct-15 19:25
pantheon_skin06_z_shockwave.png 75302018-Oct-15 19:25
sru_chaos_platform_godraysparkles.png 38682018-Oct-15 19:25
ha_chaos_color.png 1452018-Oct-15 19:25
darkstarmode_endofround_orianna_skin07_z_flare_..> 11K2018-Oct-15 19:25
sru_pallybase_spawn_temp.png 7962018-Oct-15 19:25
chogath_battlecast_smoke_colormap.png 1782018-Oct-15 19:25
projectmode17_killcreditparticles2.png 94142018-Oct-15 19:25
sruap_orderinhibitor_respawn_glow.png 99502018-Oct-15 19:25
bw_chaos_color.png 2082018-Oct-15 19:25
swirl4.png 25K2018-Oct-15 19:25
ziggs_skin05_z_energylines2side.png 14K2018-Oct-15 19:25
wavestar_manaorb_tarlulu_skin06_z_stargrid_01.png 29792018-Oct-15 19:25
color-sparkles.png 77782018-Oct-15 19:25
siege_emergencyshield_barragespark_soft_glow.png 29K2018-Oct-15 19:25
color-redflash32.png 2882018-Oct-15 19:25
doombots_bossteemo_targeterarrow_indicator_03.png 18812018-Oct-15 19:25
color-eyelinefade.png 24832018-Oct-15 19:25
color-rampdown-blue.png 3452018-Oct-15 19:25
zeke_iceswirl.png 28K2018-Oct-15 19:25
color-nexus-gem-glow.png 3072018-Oct-15 19:25
wavestar_riftherald_missileexplosionkassadin_ba..> 23K2018-Oct-15 19:25
global_ss_flash_matoverride.png 30K2018-Oct-15 19:25
bw_spawn_readyflash.png 21K2018-Oct-15 19:25
sru_baron_ba_mouth_orb.png 15582018-Oct-15 19:25
cannonballglow01.png 73202018-Oct-15 19:25
sru_crab_shadow_mult.png 69K2018-Oct-15 19:25
global_stinger_beams.png 27K2018-Oct-15 19:25
color-evelynnring.png 782018-Oct-15 19:25
color-hecarim_skin04_basictrail.png 13312018-Oct-15 19:25
ring_purp_02.png 43K2018-Oct-15 19:25
shockwave_alphalock.png 36K2018-Oct-15 19:25
corki_base_q_mis_rgba.png 3072018-Oct-15 19:25
darkstarmode_lanternzonepoppy_base_w_shield_edg..> 33K2018-Oct-15 19:25
sru_baron_ba_miss_trail_mult.png 40K2018-Oct-15 19:25
siege_siegecannon_impactillaoi_skin01_q_nova_gr..> 23K2018-Oct-15 19:25
ui-crosshair.png 7982018-Oct-15 19:25
fireball06.png 26K2018-Oct-15 19:25
garen_sword_blur_glow_13.png 39K2018-Oct-15 19:25
projectmode17_teleportpad_chargeup_part3.png 20562018-Oct-15 19:25
doombots_curse_ryze_base_r_end_enemyaura_self.png 54482018-Oct-15 19:25
sru_baron_death_fireline.png 21K2018-Oct-15 19:25
siege_shieldgenerator_z_ring_01_red.png 26K2018-Oct-15 19:25
bw_chaos_sparkles.png 65092018-Oct-15 19:25
global_summoner_recall_ringglow.png 25K2018-Oct-15 19:25
reksai_skin02_burrowed_q_mis_cap_mult.png 56932018-Oct-15 19:25
rune1_01.png 23K2018-Oct-15 19:25
sru_order_basedoor_barrier_mult.png 31K2018-Oct-15 19:25
sru_eastjungle_magicbluebuff_02.png 9442018-Oct-15 19:25
sru_chaos_blackhole.png 21942018-Oct-15 19:25
darkstarmode_endofround_orianna_skin07_r_gradie..> 2172018-Oct-15 19:25
fb_explosion_smoke_mult.png 23K2018-Oct-15 19:25
distortion_soundwaves_02.png 32K2018-Oct-15 19:25
kassadin_base_z_voidswirl.png 20K2018-Oct-15 19:25
morgana_skin05_q_tar_darkbase.png 25K2018-Oct-15 19:25
sru_chaos_shopkeeper_smoke.png 83012018-Oct-15 19:25
vampheal.png 90152018-Oct-15 19:25
leaf_02.png 90502018-Oct-15 19:25
generic_rockshards_01.png 18K2018-Oct-15 19:25
global_debuff_ampen_wisps.png 42K2018-Oct-15 19:25
color-ironstylus.png 3192018-Oct-15 19:25
kappa_ring_cas.png 14K2018-Oct-15 19:25
global_ss_smite_steal_monster_beam.png 52K2018-Oct-15 19:25
kingporo_snaxeffect_barragemissile2bard_skin05_..> 44K2018-Oct-15 19:25
color-sparkspeed.png 10902018-Oct-15 19:25
sru_murkwolf_swipe_tex.png 88252018-Oct-15 19:25
darkstarmode_thresh_qtagbackblockfiora_base_w_b..> 12K2018-Oct-15 19:25
sru_chaos_sparks_behind.png 75342018-Oct-15 19:25
darkstarmode_lanternzonecolor-fall-leaves.png 28572018-Oct-15 19:25
attack01.png 43K2018-Oct-15 19:25
slimegoop.png 46K2018-Oct-15 19:25
sru_river_splashes_01.png 15K2018-Oct-15 19:25
darkstarmode_lanternzonepoppy_base_w_sparks.png 15K2018-Oct-15 19:25
leviathan_trigger_01.png 31K2018-Oct-15 19:25
thinring.png 26572018-Oct-15 19:25
sru_riftherald_spinattack_swipe.png 13K2018-Oct-15 19:25
sru_junglebuff_bluebuff_mana_sparkle2_2x2.png 94142018-Oct-15 19:25
item_magicshank_trail.png 46K2018-Oct-15 19:25
sru_wolfden_cloudgroundcover_mult_01.png 49K2018-Oct-15 19:25
volibear_frenzy_indicator_06.png 27K2018-Oct-15 19:25
sru_chaos_basedoor_arearing.png 23K2018-Oct-15 19:25
coin05.png 16612018-Oct-15 19:25
drawabead05.png 13K2018-Oct-15 19:25
color-global_stinger_alpha.png 19352018-Oct-15 19:25
nocturne_cyber_tail_glow.png 97192018-Oct-15 19:25
item_3193_active_pebbles.png 10K2018-Oct-15 19:25
wavestar_shopkeeperspawnsightward_skin63_spark.png 16K2018-Oct-15 19:25
morgana_skin05_r_tar_sparks.png 88212018-Oct-15 19:25
mastery_sparks_03.png 30532018-Oct-15 19:25
wavestar_riftherald_missileblastbackcolor-hold.png 792018-Oct-15 19:25
fn_universal_souls_blue_001.png 22082018-Oct-15 19:25
sru_crab_dashblast_ring_09.png 77862018-Oct-15 19:25
singed_skin06_r_snow.png 31K2018-Oct-15 19:25
sru_dragonpit_watersplash_anim.png 28K2018-Oct-15 19:25
swain_darkswirl_embers.png 13K2018-Oct-15 19:25
ezreal_pulsefire_flare_a04.png 31K2018-Oct-15 19:25
darkstarmode_roundendvacuum_novaorianna_skin06_..> 19K2018-Oct-15 19:25
wavestar_riftherald_missileblastbackkassadin_ba..> 53K2018-Oct-15 19:25
sruap_order_inhibitor_baseglow.png 9312018-Oct-15 19:25
sru_baron_deathbreath_warn.png 26K2018-Oct-15 19:25
doombots_curse_ryze_base_r_start_enemydistort-p..> 33K2018-Oct-15 19:25
doombots_bardcurse_warnbard_base_p_speed_swirl_..> 72K2018-Oct-15 19:25
kogmaw_q_ampen_glow.png 25K2018-Oct-15 19:25
sru_junglebuff_dragon_activation_buff_01_mult.png 35K2018-Oct-15 19:25
morgana_skin05_ba_wisps_mis_mult.png 42K2018-Oct-15 19:25
global_debuff_ampen_shield_armor.png 19K2018-Oct-15 19:25
siege_shieldgenerator_lightning_red.png 19K2018-Oct-15 19:25
sru_eastjungle_waterfall_swirlsteam_01.png 69K2018-Oct-15 19:25
sru_dragonpit_waterfall_topedgehightlight_mult_..> 15K2018-Oct-15 19:25
mm_sigil.png 61K2018-Oct-15 19:25
darkstarmode_thresh_qtagbackblockorianna_base_w..> 60K2018-Oct-15 19:25
urf_death_heartsplosion_motes.png 26K2018-Oct-15 19:25
temp_itemglacialspikeenemy_w_cracks_alpha.png 28422018-Oct-15 19:25
global_ss_teleport_wisp_red.png 16K2018-Oct-15 19:25
swain_grand_green_licks.png 72K2018-Oct-15 19:25
distort-shockwave.png 22K2018-Oct-15 19:25
yellow_attack_buf_01.png 38862018-Oct-15 19:25
doombots_yasuo_warningyasuo_base_q_wind_hit_fla..> 47K2018-Oct-15 19:25
tricksters_glass_color-rampdown.png 3092018-Oct-15 19:25
poro_dragonslayer_idle_spark.png 5652018-Oct-15 19:25
embers.png 17K2018-Oct-15 19:25
global_ss_teleport_matoverride.png 50K2018-Oct-15 19:25
waterdots.png 93K2018-Oct-15 19:25
color-rainbowhold.png 28K2018-Oct-15 19:25
kayle_skin07_recall_spotlight.png 32152018-Oct-15 19:25
color-hecarimflame03.png 4282018-Oct-15 19:25
tt_junglebuff_wraith_marker_2x2.png 73102018-Oct-15 19:25
sru_baron_rune_4_glow.png 61202018-Oct-15 19:25
urf_death_heartsplosion_cloud_mult.png 104K2018-Oct-15 19:25
ping-comehere_02.png 79982018-Oct-15 19:25
distort-bulge.png 49K2018-Oct-15 19:25
darkstarmode_lightningmult.png 2662018-Oct-15 19:25
wavestar_roomendexplosionjanna_skin07_z_bokeh_d..> 92342018-Oct-15 19:25
sru_eastjungle_waterfall_whitefalls_botfalls_01..> 26K2018-Oct-15 19:25
sruap_turret_dustcloud.png 29K2018-Oct-15 19:25
color-sparkles-yellow.png 86852018-Oct-15 19:25
darkstarmode_impactwithstarthresh_skin05_z_spec..> 44K2018-Oct-15 19:25
env_mb_brazierfire_glow.png 51K2018-Oct-15 19:25
ring_poison_01.png 38K2018-Oct-15 19:25
darkstarmode_endofround_orianna_skin07_z_flare_..> 31872018-Oct-15 19:25
color-energyburst.png 2342018-Oct-15 19:25
doombots_curse_karthus_base_p_swirl_mult.png 33K2018-Oct-15 19:25
darkstarmode_sog_ceremony_barriersru_chaos_spar..> 35312018-Oct-15 19:25
global_summoner_recall_skybeam.png 42922018-Oct-15 19:25
sru_chaos_platform_godrays.png 26K2018-Oct-15 19:25
ping-mia-base.png 16K2018-Oct-15 19:25
sru_baron_grasp_target3.png 19K2018-Oct-15 19:25
sru_eastjungle_waterfall_whitefalls_01.png 24K2018-Oct-15 19:25
bw_lanterncloud.png 35K2018-Oct-15 19:25
env_mb_dust_small_mult.png 16K2018-Oct-15 19:25
kennen_artic_shuriken.png 79K2018-Oct-15 19:25
bw_chimney_glow.png 36K2018-Oct-15 19:25
doombots_yasuo_warningcolor_yasuo_skin01_passiv..> 45962018-Oct-15 19:25
ha_ap_explosion_sphere_diff.png 31K2018-Oct-15 19:25
ocklepod_flare-rainbow_yellow_02.png 21262018-Oct-15 19:25
kingporo_snaxeffect_jump_shieldazir_base_e_shie..> 138K2018-Oct-15 19:25
color-darkflame.png 12132018-Oct-15 19:25
global_item_righteousglory_color.png 141K2018-Oct-15 19:25
projectmode17_global_summoner_recall_pulsering.png 15K2018-Oct-15 19:25
doombots_curse_karthus_base_p_deathflakes.png 28K2018-Oct-15 19:25
absolutezero04.png 12K2018-Oct-15 19:25
malphite_glacial_frostsmoke_colormap.png 26482018-Oct-15 19:25
tf_card_trail.png 6602018-Oct-15 19:25
halfsphere01.png 12282018-Oct-15 19:25
siege_roundendceremony_swapmissilechild_glowdus..> 77762018-Oct-15 19:25
env_mb_highwind_mult_01.png 18K2018-Oct-15 19:25
goo01.png 58K2018-Oct-15 19:25
siege_roundendceremony_swapmissilechild_energym..> 57K2018-Oct-15 19:25
darkstarmode_endofround_orianna_skin07_q_sphere..> 21K2018-Oct-15 19:25
morgana_skin05_r_tar_wisps.png 58K2018-Oct-15 19:25
darkstarmode_ghostinvulneffectglobal_ss_ghost_l..> 60K2018-Oct-15 19:25
global_ss_ghost_swirl.png 18K2018-Oct-15 19:25
scorched_earth_01.png 46K2018-Oct-15 19:25
color-lcdclock.png 9312018-Oct-15 19:25
global_asc_teleport_ring.png 37K2018-Oct-15 19:25
color-steadyblue.png 2322018-Oct-15 19:25
sru_baron_death_clumps.png 48502018-Oct-15 19:25
ha_pororay_softer.png 58K2018-Oct-15 19:25
orange_star.png 25K2018-Oct-15 19:25
siege_laser_targetinglink_dots_color_red.png 11052018-Oct-15 19:25
odin_lock_chain_texture_a.png 61K2018-Oct-15 19:25
sru_crab_dashairspiritstreak.png 25K2018-Oct-15 19:25
hecarim_swirlmesh_headless.png 20K2018-Oct-15 19:25
darkstarmode_roundendvacuum_novaorianna_skin06_..> 19K2018-Oct-15 19:25
twistedfate_skin09_w_mis.png 22K2018-Oct-15 19:25
color-chaosshild-flash.png 23542018-Oct-15 19:25
global_stealth_yikes.png 38K2018-Oct-15 19:25
poro_shadowisle_idle_glow.png 42132018-Oct-15 19:25
darkstarmode_aura_self.png 54482018-Oct-15 19:25
katarina_noxus.png 72K2018-Oct-15 19:25
darkstarmode_roundendvacuum_child2varus_skin04_..> 10682018-Oct-15 19:25
clockface.png 53572018-Oct-15 19:25
color-turretcrystal.png 6282018-Oct-15 19:25
urf_death_urf_wisps.png 56K2018-Oct-15 19:25
color-lillypad.png 9902018-Oct-15 19:25
siege_emergencyshield_explosion_energymote.png 13K2018-Oct-15 19:25
doombots_curse_ryze_base_r_end_enemydistort-pin..> 33K2018-Oct-15 19:25
ezreal_pulsefire_color-summonerdot.png 24972018-Oct-15 19:25
sru_riftherald_slash.png 12K2018-Oct-15 19:25
color-chimney_smoke.png 25862018-Oct-15 19:25
color-ward_cookiesteam.png 4112018-Oct-15 19:25
renekton_r_waterdrop_teal_01.png 13812018-Oct-15 19:25
sru_redbuff_ba1_swipe_mask.png 10052018-Oct-15 19:25
global_ss_ignite-color.png 20482018-Oct-15 19:25
kayle_skin07_e_electriccolor.png 82382018-Oct-15 19:25
projectmode17_akali_base_w_ring.png 29K2018-Oct-15 19:25
tt_spider_dust_rgb.png 93822018-Oct-15 19:25
recall_ranked_ring.png 20K2018-Oct-15 19:25
global_asc_teleport_blowingsand.png 59K2018-Oct-15 19:25
mori_symbol_06.png 25K2018-Oct-15 19:25
siege_siegecannon_impactillaoi_skin01_q_nova_gr..> 12K2018-Oct-15 19:25
doombots_giantdart_mis2glows.png 23692018-Oct-15 19:25
sru_chaos_turret1_crackwall.png 26K2018-Oct-15 19:25
sru_godray_dustparticles_01.png 27462018-Oct-15 19:25
sru_dragon_death_flames_4x4.png 22K2018-Oct-15 19:25
cylinder07.png 32K2018-Oct-15 19:25
spin01.png 30K2018-Oct-15 19:25
color-goldcoin_02.png 4482018-Oct-15 19:25
chogath_battlecast_decal_a.png 16K2018-Oct-15 19:25
kingporo_snaxhandha_pororay_porosnack.png 32422018-Oct-15 19:25
siege_warppoint_minionscoredkassadin_skin05_sta..> 24K2018-Oct-15 19:25
pantheon_skin06_z_spark.png 5652018-Oct-15 19:25
assassinmode_kalista_skin01_w_avatar.png 91K2018-Oct-15 19:25
ping-caution-base-color.png 1942018-Oct-15 19:25
darkstarmode_powerqvarus_skin06_idle_galaxysphe..> 52K2018-Oct-15 19:25
sru_chaos_shopkeeper_blade_glow.png 32222018-Oct-15 19:25
goo.png 33K2018-Oct-15 19:25
wavestar_riftherald_missileexplosionkassadin_ba..> 49052018-Oct-15 19:25
wavestar_manaorb_tarlulu_skin06_z_glowgrid_02.png 42K2018-Oct-15 19:25
sru_junglebuff_baron_meleemin_shield_mult.png 39K2018-Oct-15 19:25
global_ss_flash_flare_01_2x2.png 15K2018-Oct-15 19:25
blossom_01.png 72652018-Oct-15 19:25
kassadin_base_z_voidbackground_01.png 14K2018-Oct-15 19:25
fiddlesticks_partyface.png 23K2018-Oct-15 19:25
siege_emergencyshield_p-rgba.png 7552018-Oct-15 19:25
rock06.png 56K2018-Oct-15 19:25
sru_peref_orderside_southfog_mult_01.png 22K2018-Oct-15 19:25
color-base32.png 1212018-Oct-15 19:25
sru_baron_acidball_orb_small.png 36K2018-Oct-15 19:25
darksov_sparkle.png 66372018-Oct-15 19:25
siege_warppoint_minionscoredkassadin_skin05_z_s..> 84K2018-Oct-15 19:25
doombots_bossteemo_nuke_incomingziggs_skin05_q_..> 44K2018-Oct-15 19:25
sruap_order_nexus_arcade_pointflame.png 30102018-Oct-15 19:25
monkeyking_skin05_outterring.png 34K2018-Oct-15 19:25
color-heal_smoke32.png 4072018-Oct-15 19:25
ui_crosshair_2d.png 11K2018-Oct-15 19:25
bw_plundercrab_ba_disintegrate02.png 70K2018-Oct-15 19:25
sru_baron_rune_2_glow.png 73642018-Oct-15 19:25
flames01.png 43822018-Oct-15 19:25
sru_dragon_ba2_orbflare.png 17K2018-Oct-15 19:25
morgana_skin06_r_beam_mult.png 58512018-Oct-15 19:25
global_ss_teleport_transition_test.png 69K2018-Oct-15 19:25
snowballl_rockbits.png 30K2018-Oct-15 19:25
lulu_skin04_e_shieldsymbol.png 31K2018-Oct-15 19:25
dustloop32.png 86K2018-Oct-15 19:25
doombots_bardcurse_explobard_base_r_up_cylinder..> 42K2018-Oct-15 19:25
sru_crab_spawn_grounddirt.png 15K2018-Oct-15 19:25
doombots_yasuo_wallyasuo_w_windwall_main.png 26K2018-Oct-15 19:25
wavestar_channelteleportwhitesquare.png 792018-Oct-15 19:25
siege_siegecannon_missilealpha_12.png 23622018-Oct-15 19:25
wavestar_manaorb_tarchildlulu_skin06_ba_trail_0..> 14K2018-Oct-15 19:25
sru_order_runebinding.png 25K2018-Oct-15 19:25
sru_chaos_trail.png 14K2018-Oct-15 19:25
chaosturretfire_crystaltex.png 50892018-Oct-15 19:25
spirit_animal_motes_01.png 11K2018-Oct-15 19:25
color-vladhealtrail_bloodless.png 17002018-Oct-15 19:25
voidcrushertint.png 3162018-Oct-15 19:25
doombots_yasuo_wallyasuo_skin01_w_windwall_indi..> 15K2018-Oct-15 19:25
spawn_project_rings_01.png 92602018-Oct-15 19:25
color-c-yellow32.png 2072018-Oct-15 19:25
sru_baron_spawn_dustcloud.png 27K2018-Oct-15 19:25
projectmode17_augfrag_get1.png 16982018-Oct-15 19:25
bw_river_wateredge_01_mult.png 16K2018-Oct-15 19:25
ziggs_skin05_z_blaststreaks.png 80532018-Oct-15 19:25
sru_chaos_turret_ba_misdiff.png 50522018-Oct-15 19:25
doombots_yasuo_impactcolor_yasuo_q_wind.png 6822018-Oct-15 19:25
siege_laseraffix_groundrectangle_reticle.png 17532018-Oct-15 19:25
siege_emergencyshield_timer.png 13552018-Oct-15 19:25
color-hecarim_skn3_spectrum_03.png 21122018-Oct-15 19:25
doombots_bossteemo_nuke_incomingziggs_skin05_z_..> 57K2018-Oct-15 19:25
sru_baron_spawn_grounddirt.png 47K2018-Oct-15 19:25
frost_dust_01.png 39152018-Oct-15 19:25
gimbal_test_mesh_color.png 4002018-Oct-15 19:25
sru_chaos_explosion_smoke.png 14K2018-Oct-15 19:25
projectmode17_smoketrail.png 13K2018-Oct-15 19:25
global_item_righteousglory_swirl.png 19K2018-Oct-15 19:25
morgana_skin06_q_tar_cage1x8_mult.png 44932018-Oct-15 19:25
sru_riftherald_relic_swirl_light.png 38K2018-Oct-15 19:25
bilgewatermercenary11_ringparticle_chalkline_mu..> 4852018-Oct-15 19:25
talon_dragon_blade.png 61K2018-Oct-15 19:25
morgana_tentacles.png 14K2018-Oct-15 19:25
ziggs_skin05_r_sphere.png 50K2018-Oct-15 19:25
wavestar_manaorb_tarlulu_skin06_z_bokeh.png 92572018-Oct-15 19:25
global_summoner_death_ally_flash.png 17K2018-Oct-15 19:25
sru_fog_largepillow_01.png 52K2018-Oct-15 19:25
sru_redbuff_sparks.png 74152018-Oct-15 19:25
kingporo_snaxeffect_barragemissile2bard_skin05_..> 46K2018-Oct-15 19:25
global_poison_mult.png 15K2018-Oct-15 19:25
malphite_glacial_mesh_sparkle.png 32812018-Oct-15 19:25
_template_team_indicator.png 38392018-Oct-15 19:25
orianna_base_q_color-orbarrow.png 2322018-Oct-15 19:25
siege_emergencyshield_aura_self.png 54482018-Oct-15 19:25
global_item_elixirofiron_darkglow.png 26K2018-Oct-15 19:25
sru_earthdragon_rune.png 34K2018-Oct-15 19:25
bearfire.png 32K2018-Oct-15 19:25
sru_baron_grasp_cubemap.png 28912018-Oct-15 19:25
darkbase.png 25K2018-Oct-15 19:25
bw_peref_waterfall_steam_mult.png 31K2018-Oct-15 19:25
sru_crab_watersplash_anim.png 29K2018-Oct-15 19:25
hecarim_skn4_overridemap.png 2072018-Oct-15 19:25
siege_barracks_buffmissile_lines_blue.png 62602018-Oct-15 19:25
darkstarmode_crabalanchewarningdirtbits.png 16K2018-Oct-15 19:25
doombots_aurelion_hitbigglow02.png 26K2018-Oct-15 19:25
color-dravenpassive.png 26412018-Oct-15 19:25
fb_explosion_centerflare.png 21K2018-Oct-15 19:25
swain_grand_swirly_wisps.png 98082018-Oct-15 19:25
siege_laseraffix_targetconejhin_base_r_viewcone..> 29K2018-Oct-15 19:25
sru_baron_death_sphere_diff.png 7352018-Oct-15 19:25
doombots_curse_ryze_base_r_end_enemyryze_base_r..> 5532018-Oct-15 19:25
darkstarmode_lanternzonepoppy_base_w_shield_edg..> 36K2018-Oct-15 19:25
sru_order_clouds.png 10K2018-Oct-15 19:25
rune_ring_white.png 93132018-Oct-15 19:25
siege_emergencyshield_ramp.png 2122018-Oct-15 19:25
kayle_skin07_e_tazerglow.png 11K2018-Oct-15 19:25
skeletonarrow.png 11K2018-Oct-15 19:25
romannumerals.png 74722018-Oct-15 19:25
sru_baron_tentacle_active_ref.png 14222018-Oct-15 19:25
wavestar_shopkeeperspawnsightward_skin63_starsp..> 86792018-Oct-15 19:25
illaoi_base_r_global_item_elixirbrilliance_dark..> 26K2018-Oct-15 19:25
spirit_animal_branch.png 84622018-Oct-15 19:25
color-darkflame-purple.png 12912018-Oct-15 19:25
shopfx2.png 42K2018-Oct-15 19:25
projectmode17_flare-rainbow_yellow_03.png 82702018-Oct-15 19:25
barrackzap.png 90092018-Oct-15 19:25
doombots_curse_ryze_base_r_end_enemyryze_base_z..> 14K2018-Oct-15 19:25
obj_em_shard03.png 6782018-Oct-15 19:25
global_ss_smite_player_slow_wisps.png 21K2018-Oct-15 19:25
sru_waterfall_whitefalls_mult_01.png 12K2018-Oct-15 19:25
blue_buf_10.png 44552018-Oct-15 19:25
global_trinket_itemclairvoyance_meshwing01.png 64K2018-Oct-15 19:25
siege_order_teleporter_idle_glow_red.png 3362018-Oct-15 19:25
crystalshards.png 20872018-Oct-15 19:25
ziggs_green_indicator_pool.png 26682018-Oct-15 19:25
stunready.png 11K2018-Oct-15 19:25
sg_chogath_feastbeamillaoi_base_e_beamflashsmok..> 40K2018-Oct-15 19:25
destinyiris.png 32K2018-Oct-15 19:25
darkstarmode_chainbeam_thresh_link.png 4022018-Oct-15 19:25
darkstarmode_roundendvacuum_novavarus_skin04_e_..> 41742018-Oct-15 19:25
nexus_gem_inside_mono.png 10K2018-Oct-15 19:25
doombots_giantdart_debuffteemo_base_q_global_mi..> 17K2018-Oct-15 19:25
ping-comehere-base.png 16K2018-Oct-15 19:25
projectmode17_eog_channelbeam_bits.png 82882018-Oct-15 19:25
wavestar_riftherald_missileexplosionkassadin_ba..> 25K2018-Oct-15 19:25
bw_chaos_turret_speedlines.png 56K2018-Oct-15 19:25
hecarim_skn4_sparkle_02.png 70182018-Oct-15 19:25
doombots_yasuo_wallyasuo_base_w_crack_spark.png 86932018-Oct-15 19:25
sru_ejungle_magicmotes_01.png 29862018-Oct-15 19:25
tooth_target.png 10K2018-Oct-15 19:25
sru_baron_rune_glow_mult.png 37K2018-Oct-15 19:25
amumu_sadrobot_thrash.png 82532018-Oct-15 19:25
sru_order_activation_flash.png 16K2018-Oct-15 19:25
wavestar_riftherald_summonbeamflare-rainbow_blu..> 83732018-Oct-15 19:25
refresh2.png 11272018-Oct-15 19:25
siege_emergencyshield_barragespark_ball32.png 24K2018-Oct-15 19:25
siege_siegecannon_chargekassadin_skin05_z_stard..> 57K2018-Oct-15 19:25
kappanami_skin02_z_softmote.png 26K2018-Oct-15 19:25
pantheon_skin06_z_shine.png 75882018-Oct-15 19:25
morgana_skin05_q_tar_color_shafts.png 25062018-Oct-15 19:25
ha_pororay_porosnack_glow.png 17772018-Oct-15 19:25
siege_emergencyshield_mesh_hitscroll.png 8792018-Oct-15 19:25
sru_baron_acidball_slime.png 35112018-Oct-15 19:25
spiral.png 11K2018-Oct-15 19:25
bw_orange_droplets_2x2.png 16K2018-Oct-15 19:25
doombots_bardcurse_windupbard_base_r_ground_dec..> 20K2018-Oct-15 19:25
quest_buf_03.png 81512018-Oct-15 19:25
arcade_turret_death_explosions_blitzcrank_skin1..> 24K2018-Oct-15 19:25
singed_skin06_q_snow_flake.png 18K2018-Oct-15 19:25
arcaneshifttile.png 25K2018-Oct-15 19:25
amumu_skin08_w_goop2.png 15K2018-Oct-15 19:25
tendril.png 9392018-Oct-15 19:25
sru_gromp_death_spores_alpha.png 4582018-Oct-15 19:25
heal_glb__arches__p-rgba.png 5102018-Oct-15 19:25
siege_trail_temp.png 41K2018-Oct-15 19:25
doombots_curse_ryze_base_r_start_enemyryze_base..> 24K2018-Oct-15 19:25
doombots_bardcurse_warnbard_base_r_spin_ring.png 23K2018-Oct-15 19:25
global_ss_smite_player_4x4_embers.png 23K2018-Oct-15 19:25
doombots_bardcurse_windupbard_base_p_speed_swir..> 72K2018-Oct-15 19:25
pantheon_base_r_aoering_red.png 45942018-Oct-15 19:25
wavestar_riftherald_missile_targlobaltargethit0..> 35K2018-Oct-15 19:25
global_summoner_death_ally_beam.png 24K2018-Oct-15 19:25
ha_chaosnexus_bokeh_dots_1_4x4.png 91712018-Oct-15 19:25
color-clockface.png 3342018-Oct-15 19:25
env_chimney_smoke.png 49K2018-Oct-15 19:25
sru_braziers_fire_blueside_03.png 11K2018-Oct-15 19:25
smoke_04.png 52082018-Oct-15 19:25
darkstarmode_powerqvarus_skin06_z_aura.png 37K2018-Oct-15 19:25
slime.png 94K2018-Oct-15 19:25
doombots_curse_ryze_base_r_directional_indicato..> 33052018-Oct-15 19:25
sru_murkwolf_death_left_shadow.png 12K2018-Oct-15 19:25
sru_razorbeak_darkbackground.png 74412018-Oct-15 19:25
color-meteorhit.png 3442018-Oct-15 19:25
swain_grand_shadowgrasp_swirl2.png 75512018-Oct-15 19:25
fn_universal_smoke_red_001.png 51K2018-Oct-15 19:25
sru_order_ambientglow.png 26K2018-Oct-15 19:25
sru_riftherald_ba_splash_2x2.png 48K2018-Oct-15 19:25
projectmode17_teleportpad_chargeup_part4.png 21772018-Oct-15 19:25
sru_order_shaperay.png 10K2018-Oct-15 19:25
puttrail.png 18K2018-Oct-15 19:25
doombots_yasuo_wallyasuo_wind_blow_01_redraw.png 58K2018-Oct-15 19:25
sona_pax_speedboost.png 52232018-Oct-15 19:25
sru_riftherald_spinattack_mult.png 80K2018-Oct-15 19:25
sru_chaos_poolglow.png 12K2018-Oct-15 19:25
rampup32.png 2632018-Oct-15 19:25
orderturretfire_blackhole.png 23452018-Oct-15 19:25
nautilus_skin04_w_shield.png 18K2018-Oct-15 19:25
sru_order_sparks.png 52252018-Oct-15 19:25
wavestar_bomb_explosionziggs_skin05_z_energylin..> 14K2018-Oct-15 19:25
garen_steellegion_wpn_trail.png 11K2018-Oct-15 19:25
bw_ap_speck.png 17K2018-Oct-15 19:25
wind_streaks.png 20K2018-Oct-15 19:25
item_angelhand_buff_trail.png 15K2018-Oct-15 19:25
nexus_ray.png 38K2018-Oct-15 19:25
doombots_curse_ryze_base_r_end_enemyryze_base_z..> 24K2018-Oct-15 19:25
icerock06.png 51K2018-Oct-15 19:25
sru_chaos_nexus_cameradisk.png 91882018-Oct-15 19:25
sru_eastjungle_glowrocks_nexttowolves_01.png 60K2018-Oct-15 19:25
color-purple_slice.png 5662018-Oct-15 19:25
item_magicshank_beam_add.png 97222018-Oct-15 19:25
morgana_skin06_goldsparkle.png 11K2018-Oct-15 19:25
team_ring_green_01.png 37832018-Oct-15 19:25
team_ring_red_01.png 39802018-Oct-15 19:25
doombots_bardcurse_windupbard_base_r_ground_dec..> 66K2018-Oct-15 19:25
env_mb_shopsouth_wisp.png 65K2018-Oct-15 19:25
sharp_flash_03.png 92142018-Oct-15 19:25
color-orderboom.png 8772018-Oct-15 19:25
global_item_righteousglory_shockwave.png 36K2018-Oct-15 19:25
orange_star_bright.png 38K2018-Oct-15 19:25
obj_em_shard05.png 6792018-Oct-15 19:25
malphite_glacial_seismicshard_dirtspike.png 51742018-Oct-15 19:25
doombots_curse_karthus_base_p_rays.png 35K2018-Oct-15 19:25
chaosfortressgem.png 60K2018-Oct-15 19:25
buff-blue-card-ground.png 61802018-Oct-15 19:25
flames02.png 23K2018-Oct-15 19:25
siege_emergencyshield_explosion_ash.png 29592018-Oct-15 19:25
nocturne_cyber_eye_ring.png 68912018-Oct-15 19:25
sobeksymbol.png 13K2018-Oct-15 19:25
missing_bone.png 21712018-Oct-15 19:25
darkstarmode_lanternpulltetherthresh_skin05_w_e..> 78K2018-Oct-15 19:25
doombots_yasuo_warningcolor_yasuo_r_land_distor..> 12082018-Oct-15 19:25
color-intofocus32.png 16882018-Oct-15 19:25
darkstarmode_lanternzoneflashpoppy_base_p_shiel..> 40K2018-Oct-15 19:25
color-heatbell.png 10532018-Oct-15 19:25
itemzhonya_base_r_cosmic_purple.png 57K2018-Oct-15 19:25
dustcloud.png 67K2018-Oct-15 19:25
sru_order_squar.png 45092018-Oct-15 19:25
sru_chaos_turret1_smokecloud.png 76K2018-Oct-15 19:25
capture_crystal_neutral_inv.png 82712018-Oct-15 19:25
global_trinket_itemclairvoyance_coreglow_red.png 82K2018-Oct-15 19:25
darkstarmode_flare-omnimax.png 24K2018-Oct-15 19:25
color-flicker-red.png 13012018-Oct-15 19:25
stars01.png 12K2018-Oct-15 19:25
color-blooddrops32.png 7352018-Oct-15 19:25
item_ardentcenser_buff_trail.png 15K2018-Oct-15 19:25
darkstarmode_powerup_spark.png 14K2018-Oct-15 19:25
chogath_skin06_q_spike.png 32K2018-Oct-15 19:25
sru_eastjungle_rainfalling.png 14K2018-Oct-15 19:25
ping-omw_02.png 11K2018-Oct-15 19:25
darkstarmode_roundendpowerbeammorgana_skin11_z_..> 29K2018-Oct-15 19:25
siege_emergencyshield_lightflash.png 11K2018-Oct-15 19:25
siege_siegecannon_prefireball32_02.png 23K2018-Oct-15 19:25
streak_02.png 5392018-Oct-15 19:25
projectmode17_augfrag_get2.png 20142018-Oct-15 19:25
kogmaw_skin05_ba_tar_flash.png 29K2018-Oct-15 19:25
siege_warppoint_minionscoredkassadin_skin05_z_s..> 13K2018-Oct-15 19:25
sru_watersparkle_01.png 7572018-Oct-15 19:25
sru_red_buff_death_fire.png 30K2018-Oct-15 19:25
tt_spider_trail.png 69642018-Oct-15 19:25
sru_chaos_praxis.png 18K2018-Oct-15 19:25
introbotaggrorangered.png 40432018-Oct-15 19:25
sru_chaos_brightsparks.png 30582018-Oct-15 19:25
ha_ap_baseglow.png 18K2018-Oct-15 19:25
doombots_curse_ryze_base_r_start_enemyryze_base..> 1162018-Oct-15 19:25
sru_pally_fogbase_01.png 29K2018-Oct-15 19:25
shield-off.png 3162018-Oct-15 19:25
wavestar_riftherald_missile_tarhiteffect.png 23K2018-Oct-15 19:25
env_mb_backgroundclouds.png 44K2018-Oct-15 19:25
spirit_animal_agrolines.png 30692018-Oct-15 19:25
wavestar_fishthing_shieldcolor-bellcurve.png 3782018-Oct-15 19:25
doombots_curse_ryze_base_r_character_findercolo..> 792018-Oct-15 19:25
sru_dragon_ba1_grounddirt.png 17K2018-Oct-15 19:25
sru_cloud_explosion.png 12K2018-Oct-15 19:25
projectmode17_sru_ordernexus_eog_blackhole.png 62982018-Oct-15 19:25
global_shield.png 35K2018-Oct-15 19:25
color-katarinasmoke.png 43932018-Oct-15 19:25
color-chronoclock.png 2942018-Oct-15 19:25
sru_riftherald_portal_starsbw.png 69K2018-Oct-15 19:25
wavestar_riftherald_missileblastbackkassadin_ba..> 15K2018-Oct-15 19:25
blast_nova_crystal.png 52K2018-Oct-15 19:25
sru_raptornest_glow_2.png 33K2018-Oct-15 19:25
sru_eastjungle_waterfall_whitefalls_02.png 26K2018-Oct-15 19:25
color-icebell.png 3592018-Oct-15 19:25
flashred.png 85672018-Oct-15 19:25
global_ss_teleport_matoverride_red.png 53K2018-Oct-15 19:25
color_tt_fire_p2b.png 10672018-Oct-15 19:25
urf_death_orbitallaser_mat_char.png 66K2018-Oct-15 19:25
sru_gromp_death_radialsuck.png 12K2018-Oct-15 19:25
color-healbeam.png 26052018-Oct-15 19:25
evelyn_ability_indicator_02.png 11K2018-Oct-15 19:25
wavestar_betweenround_forcefieldekko_skin11_i_w..> 15K2018-Oct-15 19:25
projectmode17_digibit.png 14K2018-Oct-15 19:25
sru_sjungle_mushroomglow_motes.png 37272018-Oct-15 19:25
darkstarmode_endofround_orianna_skin07_z_space_..> 99K2018-Oct-15 19:25
orianna_base_z_color-rampdown.png 3092018-Oct-15 19:25
flames_purple.png 45K2018-Oct-15 19:25
turreticon.png 38992018-Oct-15 19:25
projectmode17_softglow.png 54152018-Oct-15 19:25
sru_razorbeak_yellowtrail.png 22K2018-Oct-15 19:25
blaster.png 30832018-Oct-15 19:25
wavestar_roomendexplosionjanna_skin07_q_groundg..> 24K2018-Oct-15 19:25
sru_wjungle_bluecenterglow.png 16K2018-Oct-15 19:25
sru_baron_ba1_tar_blackhole.png 71652018-Oct-15 19:25
color-rampdown32.png 2652018-Oct-15 19:25
weaponstreak02.png 10K2018-Oct-15 19:25
morgana_skin06_ba_mis_bluetrail_mult.png 25K2018-Oct-15 19:25
zilean_skin05_r_tar_object.png 59K2018-Oct-15 19:25
light-red_orange_01.png 22792018-Oct-15 19:25
typhoon_claws_tigerclawrip.png 9682018-Oct-15 19:25
siege_generator_flare-rainbow_red_04.png 11K2018-Oct-15 19:25
sru_riftherald_relic_plasma.png 26K2018-Oct-15 19:25
blaster-purple.png 31742018-Oct-15 19:25
doombots_summoning_teleport_rampout.png 2542018-Oct-15 19:25
global_lifesteal_mistrail.png 11K2018-Oct-15 19:25
smoke_03.png 51932018-Oct-15 19:25
orderturretgem01.png 45K2018-Oct-15 19:25
magicball04.png 20K2018-Oct-15 19:25
sru_dragon_death_sparks.png 80572018-Oct-15 19:25
blood_scent_07.png 20K2018-Oct-15 19:25
color-crystal-debris.png 35K2018-Oct-15 19:25
hex_shield_03.png 97K2018-Oct-15 19:25
theyarecoming_light_wall_mult.png 65K2018-Oct-15 19:25
sru_river_foamfor_longripples_01.png 76932018-Oct-15 19:25
blasthole_03.png 53K2018-Oct-15 19:25
doombots_giantdart_explocolor-hit-both.png 1722018-Oct-15 19:25
sru_baron_deathbreath_gooptrail.png 20K2018-Oct-15 19:25
bw_chaos_startingplatform_gemmult.png 16852018-Oct-15 19:25
wavestar_fishthing_shieldcolor-rampdown.png 3092018-Oct-15 19:25
darkstarmode_hookhitsstarthresh_skin05_z_specs_..> 45K2018-Oct-15 19:25
towerdust32.png 101K2018-Oct-15 19:25
urf_death_orbitallaser_mat_transramp.png 67842018-Oct-15 19:25
morgana_skin05_q_ray_mis.png 32K2018-Oct-15 19:25
xen_props_01.png 69K2018-Oct-15 19:25
doombots_curse_ryze_base_r_being_teleporteddist..> 33K2018-Oct-15 19:25
doombots_giantdart_misteemo_skin14_q_skull.png 37K2018-Oct-15 19:25
doombots_curse_ryze_base_r_start_enemyryze_base..> 1902018-Oct-15 19:25
rune_ring_white_red_01.png 10K2018-Oct-15 19:25
burningfuse.png 33K2018-Oct-15 19:25
sound_waves_styled_impact_01.png 16K2018-Oct-15 19:25
sru_chaos_turret_idle_glow.png 15K2018-Oct-15 19:25
bw_plundercrab_ba_flash.png 36K2018-Oct-15 19:25
doombots_bossteemo_deathportalteemo_skin14_r_gh..> 53332018-Oct-15 19:25
swirl2.png 55222018-Oct-15 19:25
color-waterbug.png 17442018-Oct-15 19:25
assassinmode_buf_stack_t_empty.png 26312018-Oct-15 19:25
flesheater_alpha_12.png 23622018-Oct-15 19:25
siege_warppointdamage_beamcolor-rainbowbell.png 33772018-Oct-15 19:25
spirit_animal_ambientglow.png 27K2018-Oct-15 19:25
bw_chaos_turret_sparkels.png 27752018-Oct-15 19:25
global_summoner_death_ally_blueflash_rgb.png 2482018-Oct-15 19:25
sru_dragon_death_rays.png 41752018-Oct-15 19:25
bw_orange_splash_2x2.png 35K2018-Oct-15 19:25
odin_temp_greenstone.png 66K2018-Oct-15 19:25
sru_spacebar_godray_groundmesh.png 53K2018-Oct-15 19:25
color-bluebearfire.png 25822018-Oct-15 19:25
olaf_skin15_z_dissolve.png 54K2018-Oct-15 19:25
bw_mirageblade_sparkles.png 93562018-Oct-15 19:25
sru_chaos_turret_activation_verticalglow.png 14K2018-Oct-15 19:25
bw_plundercrab_splitshot_missile.png 26K2018-Oct-15 19:25
doombots_summoningvisualmissilechild_shards.png 24K2018-Oct-15 19:25
doombots_aurelion_ringaurelionsol_base_p_aoeind..> 64K2018-Oct-15 19:25
global_ss_clarity_manastreak.png 19K2018-Oct-15 19:25
ziggs_skin05_z_energylinesvert.png 11K2018-Oct-15 19:25
env_tt_heal_proj.png 28K2018-Oct-15 19:25
doombots_bossteemo_deathportalxerath_skin03_w_f..> 20K2018-Oct-15 19:25
doombots_curse_ryze_base_r_start_enemyryze_base..> 80722018-Oct-15 19:25
katarina_desert.png 66K2018-Oct-15 19:25
singed_base_w_root_slime_mult.png 13K2018-Oct-15 19:25
ring_yyim.png 47K2018-Oct-15 19:25
sg_chogath_feastbeamillaoi_base_e_godtentaclesm..> 42K2018-Oct-15 19:25
waterspike32.png 21K2018-Oct-15 19:25
global_slow_mask.png 26452018-Oct-15 19:25
sru_razorbeakmini_beakblur.png 62K2018-Oct-15 19:25
flare-rainbow_red_04.png 11K2018-Oct-15 19:25
color-hecarim_skn3_spectrum_02.png 21562018-Oct-15 19:25
doombots_bardcurse_stasis_fullbard_base_p_shrin..> 14K2018-Oct-15 19:25
fiora_weaponsheen.png 49452018-Oct-15 19:25
doombots_curse_ryze_base_r_end_enemyryze_base_r..> 77812018-Oct-15 19:25
env_mb_brazierfire_colormap.png 5052018-Oct-15 19:25
color-fogwhite.png 17602018-Oct-15 19:25
sru_eastjungle_rainfalling_01.png 6952018-Oct-15 19:25
sru_order_turret1_flare.png 89202018-Oct-15 19:25
darkstarmode_lanternzonepoppy_base_w_shield_woo..> 56K2018-Oct-15 19:25
projectmode17_scannerbot_danger_circle.png 33K2018-Oct-15 19:25
cosmicruins_brush_shadow.png 26K2018-Oct-15 19:25
deathexplo.png 82132018-Oct-15 19:25
projectmode17_bw_wooddebris.png 30322018-Oct-15 19:25
wavestar_roomendexplosionaura_self.png 54482018-Oct-15 19:25
doombots_aurelionstarsaurelionsol_base_p_smalls..> 34K2018-Oct-15 19:25
sru_razorbeak_spitsplat.png 97992018-Oct-15 19:25
sru_smokestreaker_a01.png 12K2018-Oct-15 19:25
darkstarmode_z_flecks.png 74202018-Oct-15 19:25
darkstarmode_endofround_shockwaveblue_gradient.png 16K2018-Oct-15 19:25
global_ss_cleanse_ring_3x3.png 51K2018-Oct-15 19:25
doombots_aurelionstarsflare-sun.png 24K2018-Oct-15 19:25
color-ghostfire.png 18182018-Oct-15 19:25
bloodboil01.png 32K2018-Oct-15 19:25
mastery_glow_01.png 18K2018-Oct-15 19:25
flare-sun_07.png 23K2018-Oct-15 19:25
sru_murkwolf_death_shadow.png 11K2018-Oct-15 19:25
leaf_rot_02.png 76112018-Oct-15 19:25
purp_buf_10.png 30842018-Oct-15 19:25
env_mb_shopsouth_dust.png 22K2018-Oct-15 19:25
color-lasersight_02.png 862018-Oct-15 19:25
darkstarmode_roundendvacuum_novaorianna_base_z_..> 3092018-Oct-15 19:25
evelynn_swirlingribbon.png 25K2018-Oct-15 19:25
sru_krug_spawn_smoke.png 47K2018-Oct-15 19:25
sru_river_sparkle_01.png 68K2018-Oct-15 19:25
ice_cubemap.png 28912018-Oct-15 19:25
wavestar_riftherald_frenzyreksai_skin01_e_tunne..> 15K2018-Oct-15 19:25
ezreal_dance_hologram.png 23K2018-Oct-15 19:25
spinstreak.png 29522018-Oct-15 19:25
bw_order_turret_sphere_diff.png 12932018-Oct-15 19:25
doombots_curse_ryze_base_r_unit_destinationryze..> 24K2018-Oct-15 19:25
kappacolor-rampdown.png 3092018-Oct-15 19:25
wavestar_shopkeeperoverlaydissolve_cloudy_02.png 24K2018-Oct-15 19:25
doombots_curse_ryze_base_r_end_enemyryze_base_z..> 23K2018-Oct-15 19:25
wavestar_riftherald_missile_tarcolor-hit-physic..> 1692018-Oct-15 19:25
doombots_akali_smokebomb_redflare-rainbow_purp_..> 72952018-Oct-15 19:25
wood_shards_01.png 13K2018-Oct-15 19:25
global_summoner_lvlup_helixbeam.png 11K2018-Oct-15 19:25
doombots_yasuo_impactyasuo_base_r_hit_flash_tar..> 10K2018-Oct-15 19:25
siege_laser_targetinglink_beam_out_color.png 35512018-Oct-15 19:25
color-fireballtrail_skarner.png 21982018-Oct-15 19:25
wavestar_channellux_skin06_r_wisps.png 16K2018-Oct-15 19:25
darkstarmode_ball32_01.png 12K2018-Oct-15 19:25
sru_riftherald_rock_debris.png 46K2018-Oct-15 19:25
tt_fire_01.png 45K2018-Oct-15 19:25
color-poisonsmoke32.png 19062018-Oct-15 19:25
sru_baron_deathbreath_breath_trail.png 16K2018-Oct-15 19:25
asc_wisps.png 76K2018-Oct-15 19:25
ward_green_eye.png 22K2018-Oct-15 19:25
sru_order_inhibitor_ringsuck_geo_mult.png 16K2018-Oct-15 19:25
wavestar_riftherald_summonbeamviktor_base_q_aug..> 19K2018-Oct-15 19:25
doombots_yasuo_impactcolor_yasuo_base_r_wind_bl..> 32922018-Oct-15 19:25
kassadin_base_q_ring_mult.png 58152018-Oct-15 19:25
eh_noxus_wisps_mult.png 64K2018-Oct-15 19:25
missfortune_skin07_w_debuff.png 10932018-Oct-15 19:25
darkstarmode_roundendvacuum_novavarus_skin04_r_..> 50462018-Oct-15 19:25
arcane_rings_01.png 14K2018-Oct-15 19:24
eyeline.png 26172018-Oct-15 19:24
siegetestminionflashmodelblue.png 39K2018-Oct-15 19:24
fire_torch_01.png 43K2018-Oct-15 19:24
ezreal_pulsefire_upgraydd_flares_vert2.png 13K2018-Oct-15 19:24
ripple.png 10K2018-Oct-15 19:24
doombots_bossteemo_nuke_exploteemo_skin14_r_clo..> 52602018-Oct-15 19:24
sru_order_basedoor_glow.png 44K2018-Oct-15 19:24
iciclebullet.png 83K2018-Oct-15 19:24
item_trueice_hit_w_praxiswave_tex.png 21K2018-Oct-15 19:24
doombots_bardcurse_stasis_quietbard_base_r_dist..> 48K2018-Oct-15 19:24
treelinelanternlockcomplete3p.png 27K2018-Oct-15 19:24
projectmode17_augfrag_get4.png 18782018-Oct-15 19:24
projectmode17_sru_chaos_ringtexture.png 69142018-Oct-15 19:24
assassinmode_buf_stack_t.png 31882018-Oct-15 19:24
project_flare_02.png 16K2018-Oct-15 19:24
color-reefbeam.png 19692018-Oct-15 19:24
siege_generator_color-bellcurve.png 3782018-Oct-15 19:24
global_ss_heal_glow-soft.png 13K2018-Oct-15 19:24
deathscaress03.png 13K2018-Oct-15 19:24
silence.png 94902018-Oct-15 19:24
doombots_curse_ryze_base_r_directional_indicato..> 23K2018-Oct-15 19:24
color-absolutezero-red.png 14792018-Oct-15 19:24
_test_texture_mult.png 72402018-Oct-15 19:24
teddy.png 14K2018-Oct-15 19:24
buff_shield.png 35K2018-Oct-15 19:24
morgana_skin06_idle2_letter.png 73162018-Oct-15 19:24
ward_season2014_01_idle.png 35K2018-Oct-15 19:24
ha_ap_explosions_ray.png 13K2018-Oct-15 19:24
doombots_towerchargehitviktor_base_r_hit_sparks..> 29K2018-Oct-15 19:24
morgana_light.png 17K2018-Oct-15 19:24
ring_green_04.png 33K2018-Oct-15 19:24
color-poisonsmoke.png 13912018-Oct-15 19:24
color-rampupbell.png 2632018-Oct-15 19:24
siege_siegecannon_shotsru_order_trail.png 12K2018-Oct-15 19:24
doombots_bossteemo_nuke2_incomingteemo_skin14_e..> 14K2018-Oct-15 19:24
bw_chaos_turret_cas_smoke_4x4.png 32K2018-Oct-15 19:24
sru_texturetesting_01.png 71092018-Oct-15 19:24
kappacolor-bellcurve5.png 3702018-Oct-15 19:24
env_mb_brazierfire_flipbookglow_01.png 54342018-Oct-15 19:24
color-ziggs_skn4_ult_swirls.png 43182018-Oct-15 19:24
siege_siegecannon_impactillaoi_base_r_dirt_rock..> 14K2018-Oct-15 19:24
bomb01.png 38K2018-Oct-15 19:24
color-acidsplash.png 53052018-Oct-15 19:24
blast_ring_07.png 97922018-Oct-15 19:24
bw_sparks.png 7532018-Oct-15 19:24
sru_riftherald_slash1.png 86822018-Oct-15 19:24
voiddots.png 66512018-Oct-15 19:24
sru_chaos_color.png 1332018-Oct-15 19:24
color-goldcoin.png 4312018-Oct-15 19:24
global_ss_heal_color-bellcurve.png 3782018-Oct-15 19:24
katarina_base.png 67K2018-Oct-15 19:24
fn_universal_sparks.png 71372018-Oct-15 19:24
sru_baron_spawn_wave.png 31K2018-Oct-15 19:24
siege_laser_extrabeam.png 14K2018-Oct-15 19:24
darkstarmode_lanternzonepoppy_base_w_shield_edg..> 33K2018-Oct-15 19:24
base1.png 52K2018-Oct-15 19:24
amumu_skin08_r_swirl_solid.png 24K2018-Oct-15 19:24
item_questcomplete_singlestar.png 28662018-Oct-15 19:24
color-syndra_radiance.png 3762018-Oct-15 19:24
sru_order_basedoor_barrier.png 58K2018-Oct-15 19:24
sru_elderdragon_rune.png 42K2018-Oct-15 19:24
trist_rocket_texture.png 24K2018-Oct-15 19:24
color-ss-flash.png 7772018-Oct-15 19:24
snowblow.png 6692018-Oct-15 19:24
tendril_root.png 39992018-Oct-15 19:24
ironsolari_buf.png 23K2018-Oct-15 19:24
sru_baron_ba_mouth_spit_rgb.png 11K2018-Oct-15 19:24
porotoss_spinup_arrows_ice01.png 79K2018-Oct-15 19:24
morgana_skin05_r_tar_wisps_mult.png 70K2018-Oct-15 19:24
bw_chaos_turret_sparks.png 23K2018-Oct-15 19:24
flashorange.png 25K2018-Oct-15 19:24
sruap_chaos_inhibitor_runecountdown.png 20K2018-Oct-15 19:24
siegemode_obliterator_narrowbeam.png 26K2018-Oct-15 19:24
morgana_skin06_e_tar_sphere_shine.png 12K2018-Oct-15 19:24
sru_order_cm_ba_mis_tex_blue.png 36442018-Oct-15 19:24
projectmode17_healthpickup.png 41K2018-Oct-15 19:24
sru_eastjungle_treemist_swirl_mult_01.png 18K2018-Oct-15 19:24
color-nexus-explo-order.png 3522018-Oct-15 19:24
ezreal_pulsefire_handglows.png 63K2018-Oct-15 19:24
wavestar_channellux_skin06_r_starsprite.png 86792018-Oct-15 19:24
darkstarmode_impactwithstarthresh_skin05_z_glow..> 12K2018-Oct-15 19:24
sru_river_shore_02.png 10K2018-Oct-15 19:24
ghostfire.png 53K2018-Oct-15 19:24
sru_baron_deathbreath_poolglow.png 13K2018-Oct-15 19:24
leaves.png 50K2018-Oct-15 19:24
global_ss_teleport_pulse_red.png 12K2018-Oct-15 19:24
item_dusk_mark_circle.png 98882018-Oct-15 19:24
red.png 40552018-Oct-15 19:24
sru_peref_clouds_03_mult.png 36K2018-Oct-15 19:24
sru_turret_ba_trail_color.png 21402018-Oct-15 19:24
kingporo_snaxeffect_fire_hitflare-fire.png 33K2018-Oct-15 19:24
snowflakes04.png 55202018-Oct-15 19:24
sru_chaos_laserturret_chestglow_blue.png 26K2018-Oct-15 19:24
weaponstreak12.png 22K2018-Oct-15 19:24
xenziou_ult_slash.png 21K2018-Oct-15 19:24
siege_siegecannon_missileairspiritstreak.png 25K2018-Oct-15 19:24
kingporo_snaxeffect_barragecolor-bellcurve32.png 3002018-Oct-15 19:24
sru_eastjungle_softcone_rocks_mult_01.png 43K2018-Oct-15 19:24
purp_flash_01.png 51692018-Oct-15 19:24
sru_chaos_turret_ba_mis.png 10K2018-Oct-15 19:24
darkstarmode_roundendvacuum_novavarus_skin04_z_..> 27K2018-Oct-15 19:24
sru_order_wispfly.png 22432018-Oct-15 19:24
doombots_yasuo_impactyasuo_base_q_wind_hit_tar.png 84942018-Oct-15 19:24
morgana_base_q_tar_color_darkbound.png 11162018-Oct-15 19:24
shield_02.png 88K2018-Oct-15 19:24
projectmode17_energy_courier_spawn_invisible.png 692018-Oct-15 19:24
chogath_battlecast_missile_glow.png 98212018-Oct-15 19:24
flare-sun_yellow_02.png 29K2018-Oct-15 19:24
kingporo_snaxeffect_jump_shieldazir_base_e_shie..> 128K2018-Oct-15 19:24
sru_fog_groundcover_01.png 92K2018-Oct-15 19:24
sru_baron_rune_3_glow.png 19K2018-Oct-15 19:24
color-chaoswave.png 23632018-Oct-15 19:24
color-firefly.png 7142018-Oct-15 19:24
bluesparks.png 19192018-Oct-15 19:24
sru_eastjungle_waterfall_splashedge_mult_01.png 30K2018-Oct-15 19:24
morgana_skin06_r_beamdark_mult.png 59092018-Oct-15 19:24
evelynn_weapontrail3.png 20K2018-Oct-15 19:24
sru_bluebuff_wind_streaks.png 32K2018-Oct-15 19:24
aura_self.png 54482018-Oct-15 19:24
darkstarmode_roundendvacuum_novaorianna_base_z_..> 27K2018-Oct-15 19:24
projectmode17_cooldown_pickup_tar_avatarlines.png 14K2018-Oct-15 19:24
siege_order_deployableteleporter_idle_glow_red.png 3352018-Oct-15 19:24
color-darkflame-black.png 12362018-Oct-15 19:24
color-seastone_passive.png 3542018-Oct-15 19:24
ghost2.png 67K2018-Oct-15 19:24
sg_velkoz_base_z_bellramp_rgb.png 25192018-Oct-15 19:24
doombots_towerchargezoneglobal_teamring_rgba.png 3982018-Oct-15 19:24
sru_inhibitor_order_tower_beam.png 47K2018-Oct-15 19:24
global_trinket_spotter_corelaser.png 38K2018-Oct-15 19:24
wavestar_bomb_timersiege_emergencyshield_timer.png 13552018-Oct-15 19:24
vine01.png 37K2018-Oct-15 19:24
global_ss_teleport_skybeam.png 17182018-Oct-15 19:24
cylinder03.png 44K2018-Oct-15 19:24
kingporo_snaxeffect_barragemissile2bard_skin05_..> 14K2018-Oct-15 19:24
sru_baron_tail_target.png 10K2018-Oct-15 19:24
doombots_towerchargezoneviktor_base_r_cas_retic..> 26802018-Oct-15 19:24
wavestar_manaorb_tar2soraka_skin07_4pointstar.png 51872018-Oct-15 19:24
ziggs_skin05_z_runes.png 32K2018-Oct-15 19:24
sru_redbuff_fireflies_01.png 52032018-Oct-15 19:24
global_debilitate_dash.png 71072018-Oct-15 19:24
color-treesmoke.png 16292018-Oct-15 19:24
color-chaosboom.png 9622018-Oct-15 19:24
ha_ambientglow.png 98432018-Oct-15 19:24
color-summonercast.png 3632018-Oct-15 19:24
bw_motes_01.png 13K2018-Oct-15 19:24
siege_laser_defending_flair.png 43K2018-Oct-15 19:24
doombots_towerchargehitcolor-rampdown.png 3092018-Oct-15 19:24
ziggs_skin05_q_scrollmultdissolve.png 44K2018-Oct-15 19:24
doombots_yasuo_arroworianna_base_q_color-orbarr..> 2322018-Oct-15 19:24
bw_order_turret_speedlines.png 59K2018-Oct-15 19:24
ball32_01.png 12K2018-Oct-15 19:24
snakering.png 57922018-Oct-15 19:24
na_universal_spikeray_red_001.png 21K2018-Oct-15 19:24
doombotsplayerdarksidedebuff_tar_sparks.png 53K2018-Oct-15 19:24
doombots_curse_ryze_base_r_teleport_readycolor-..> 792018-Oct-15 19:24
theyarecomingcolor-hold.png 792018-Oct-15 19:24
doombots_towerchargebeamball32_02.png 23K2018-Oct-15 19:24
swain_grand_licks_colormap.png 55912018-Oct-15 19:24
siege_emergencyshield_explosion_lightningmult.png 2662018-Oct-15 19:24
kingporo_snaxeffect_barrage_bigarea_ziggs_skin0..> 23362018-Oct-15 19:24
sruap_order_nexus_smalljet_flames.png 40K2018-Oct-15 19:24
ravagespike.png 76642018-Oct-15 19:24
darkstarmode_ball32_02.png 23K2018-Oct-15 19:24
ha_chaos_inhibitor_brightflash.png 35672018-Oct-15 19:24
darkstarmode_lanternzonepoppy_base_w_speed_spar..> 98512018-Oct-15 19:24
siege_laser_defending_beamdetail.png 47K2018-Oct-15 19:24
soulshield.png 15K2018-Oct-15 19:24
wavestar_bomb_explosionziggs_skin05_z_energylin..> 23K2018-Oct-15 19:24
ward_riot_idle_glow_01.png 33K2018-Oct-15 19:24
slicedisplay.png 55212018-Oct-15 19:24
timebombfuse-red.png 70082018-Oct-15 19:24
sru_baron_death_mouth_glow.png 10K2018-Oct-15 19:24
sru_bluebuff_centerglowviolet.png 59522018-Oct-15 19:24
spirit_animal_wispies.png 64K2018-Oct-15 19:24
sru_orderturret1_rubble_dustcloud.png 53072018-Oct-15 19:24
color-miononspawnflash.png 19592018-Oct-15 19:24
siege_warppoint_minionscoredkassadin_skin05_r_v..> 67952018-Oct-15 19:24
sightward_eos_04_flare_01.png 19K2018-Oct-15 19:24
wavestar_bomb_explosionziggs_skin05_z_energybac..> 18352018-Oct-15 19:24
color-rampdown32_07.png 77582018-Oct-15 19:24
color-potsmoke.png 8512018-Oct-15 19:24
kingporo_snaxeffect_barrageaoe_leona_base_z_col..> 6112018-Oct-15 19:24
sru_spacebar_godray_mult.png 26942018-Oct-15 19:24
siege_emergencyshield_explo_symbol.png 2722018-Oct-15 19:24
sru_earthdragon_bits.png 82682018-Oct-15 19:24
color_singed_skin06_q_snow_white_case.png 7532018-Oct-15 19:24
doombots_bossteemo_nuke_incomingcolor-bellcurve..> 2852018-Oct-15 19:24
flare-fire.png 33K2018-Oct-15 19:24
sphere2.png 65K2018-Oct-15 19:24
tt_chaos_turret1_blastwave.png 14K2018-Oct-15 19:24
amumu_sadrobot_cableslither.png 40832018-Oct-15 19:24
projectmode17_teleportpad_chargeup_part1.png 9132018-Oct-15 19:24
sru_chaos_basedoor_glow.png 42K2018-Oct-15 19:24
blaster-purple32.png 35122018-Oct-15 19:24
global_bots_idle_nightmare_wisps.png 56K2018-Oct-15 19:24
chembottle01.png 53K2018-Oct-15 19:24
pox_arcana_vampheal.png 90152018-Oct-15 19:24
galio_gatekeeper_spirits.png 28K2018-Oct-15 19:24
sru_crab_shadow.png 65K2018-Oct-15 19:24
voidglow.png 12K2018-Oct-15 19:24
wavestar_channelteleportjanna_skin07_r_brightst..> 86792018-Oct-15 19:24
doombots_bossteemo_deathportalteemo_skin14_reca..> 26K2018-Oct-15 19:24
sru_chaos_mm_ba1_tar_hit.png 17K2018-Oct-15 19:24
ward_riot_idle_rgba.png 4612018-Oct-15 19:24
sru_redbuff_whisps_01.png 54372018-Oct-15 19:24
wavestar_riftherald_missileexplosionkassadin_ba..> 13K2018-Oct-15 19:24
sru_baron_spikes_grounddirt.png 22K2018-Oct-15 19:24
sru_dragon_ba1_circleburn.png 38502018-Oct-15 19:24
urgot_battlecast_canister_glow.png 23K2018-Oct-15 19:24
projectmode17_teleportpad_chargeup_erosion.png 87432018-Oct-15 19:24
sru_baron_death_mouth_trail.png 26K2018-Oct-15 19:24
global_asc_teleport_rampout.png 2542018-Oct-15 19:24
global_ss_teleport_wisp_thick_red.png 23K2018-Oct-15 19:24
sru_peref_rockglow_01.png 49K2018-Oct-15 19:24
sru_order_inhibitor_activation_verticalglow.png 22K2018-Oct-15 19:24
heartseeker_spear.png 15K2018-Oct-15 19:24
ha_ap_praxiswave_geo.png 95672018-Oct-15 19:24
sru_eastjungle_waterfall_whitefalls_botfalls_mu..> 13K2018-Oct-15 19:24
sru_junglebuff_baron_minionlines.png 67992018-Oct-15 19:24
kingporo_shockwave.png 67582018-Oct-15 19:24
sg_rampdown32.png 2592018-Oct-15 19:24
sru_murkwolf_bite_teethlines.png 84572018-Oct-15 19:24
sru_gromp_death_smoke_puffs.png 44K2018-Oct-15 19:24
hex_shield_02.png 82K2018-Oct-15 19:24
siege_mode_teleporter_01.png 56K2018-Oct-15 19:24
doombots_curse_ryze_base_r_end_enemyryze_base_r..> 1902018-Oct-15 19:24
tt_junglebuff_golem_marker_2x2.png 75652018-Oct-15 19:24
color-nexus-explo-order-rev.png 10952018-Oct-15 19:24
sru_junglebuff_bluebuff_mana_manastreak.png 19K2018-Oct-15 19:24
item_magicshank_pulsering.png 35K2018-Oct-15 19:24
siege_barracks_buffmissile_color_blue.png 3502018-Oct-15 19:24
siege_swapteamsceremony_ryze_base_w_ground_deca..> 96502018-Oct-15 19:24
crystal_inner_glow_purple.png 19K2018-Oct-15 19:24
doombots_swirl_mask.png 16K2018-Oct-15 19:24
purple_turret_trail.png 11K2018-Oct-15 19:24
siegemissilebarrage_z_white_rgb.png 792018-Oct-15 19:24
beacontrail.png 41K2018-Oct-15 19:24
doombots_curse_ryze_base_r_start_enemyryze_base..> 14K2018-Oct-15 19:24
cylinder02.png 35K2018-Oct-15 19:24
fb_explosion_fireline.png 20K2018-Oct-15 19:24
color-boots_captain_slice.png 2772018-Oct-15 19:24
spellblockcell.png 46332018-Oct-15 19:24
flower_star_sprite_01.png 69812018-Oct-15 19:24
sru_bluebuff_ba_nova_ground.png 33K2018-Oct-15 19:24
sand_07.png 75K2018-Oct-15 19:24
global_stinger_spherediff.png 11K2018-Oct-15 19:24
whitesquare.png 792018-Oct-15 19:24
shields_buf32.png 12K2018-Oct-15 19:24
orderexploshaft.png 23K2018-Oct-15 19:24
global_item_boc_ringglow.png 29K2018-Oct-15 19:24
projectmode17_overcharge_masteryi_skin09_ba_fla..> 11K2018-Oct-15 19:24
enrageghost.png 15K2018-Oct-15 19:24
siege_laser_targetinglink_beam_dots.png 12K2018-Oct-15 19:24
hole32.png 77542018-Oct-15 19:24
doombots_curse_ryze_base_r_unit_destinationcolo..> 792018-Oct-15 19:24
sru_crab_speedbuff_swirl.png 18K2018-Oct-15 19:24
item_magicshank_color_purplefade.png 3762018-Oct-15 19:24
darkstarmode_crabalanchewarningdustcloud.png 67K2018-Oct-15 19:24
urf_death_orbitallaser_flash.png 30K2018-Oct-15 19:24
siege_roundendceremony_swapmissile_black.png 702018-Oct-15 19:24
siege_siegecannon_impactillaoi_skin01_q_holdram..> 33682018-Oct-15 19:24
siege_emergencyshield_aoe_outerring_tex_blue.png 11K2018-Oct-15 19:24
bw_order_turret_sparks.png 11K2018-Oct-15 19:24
luxprismawrap.png 52392018-Oct-15 19:24
disc32.png 21072018-Oct-15 19:24
siege_emergencyshield_aoe_indicator_blue.png 4702018-Oct-15 19:24
tt_chaos_turret1_godrays.png 27K2018-Oct-15 19:24
sru_baron_watersplash_anim.png 29K2018-Oct-15 19:24
ha_chaos_flashcore.png 66952018-Oct-15 19:24
blast_nova_12.png 32K2018-Oct-15 19:24
amumu_skin08_r_edge_party2.png 79642018-Oct-15 19:24
dazed02.png 35K2018-Oct-15 19:24
globalcamouflage_avataroverlay.png 26K2018-Oct-15 19:24
sru_dragon_drooldrips.png 41K2018-Oct-15 19:24
alphastrike05.png 41K2018-Oct-15 19:24
ziggs_balloon.png 75K2018-Oct-15 19:24
color-energywaves.png 24112018-Oct-15 19:24
sg_velkoz_base_z_aura_self32.png 54852018-Oct-15 19:24
color-smoke32_11.png 2922018-Oct-15 19:24
freljord_crown_env.png 16082018-Oct-15 19:24
ziggs_skin05_z_colormap.png 64K2018-Oct-15 19:24
stone2.png 88K2018-Oct-15 19:24
siege_roundendceremony_swapmissile_white.png 792018-Oct-15 19:24
katarina_dagger.png 84K2018-Oct-15 19:24
crack-light-shaft.png 15K2018-Oct-15 19:24
sru_fog_floating_fireflies_01.png 44072018-Oct-15 19:24
flare_4_seq.png 13K2018-Oct-15 19:24
ha_ap_speck.png 17K2018-Oct-15 19:24
eh_noxus_explosion_smoke.png 15K2018-Oct-15 19:24
obj_gs_bliz3.png 10K2018-Oct-15 19:24
darkstarmode_radialring_01.png 58K2018-Oct-15 19:24
siege_emergencyshield_lightflash_blue.png 85822018-Oct-15 19:24
leaf_08.png 13K2018-Oct-15 19:24
sru_razorbeak_flash.png 65902018-Oct-15 19:24
env_mb_shopsouth_groundglow.png 33K2018-Oct-15 19:24
global_summoner_recall_color_bluefade.png 2032018-Oct-15 19:24
siege_swapteamsceremony_bluecolor-dazzle.png 14892018-Oct-15 19:24
skarner_fracture_trail.png 35K2018-Oct-15 19:24
smokepuffs_02.png 89K2018-Oct-15 19:24
siege_barracks_buffmissile_color_red.png 3402018-Oct-15 19:24
ball2.png 38882018-Oct-15 19:24
sru_sjungle_mushroomglow_soft.png 16K2018-Oct-15 19:24
feathers_06.png 54372018-Oct-15 19:24
sru_wolfden_blueside_godrays_01.png 23K2018-Oct-15 19:24
wavestar_betweenround_forcefieldekko_skin11_r_l..> 13K2018-Oct-15 19:24
color-ariaofper.png 68712018-Oct-15 19:24
bloodscentsniff_cas__vortexblood__p-rgba.png 7132018-Oct-15 19:24
morgana_skin06_ba_tar_smoke2x2.png 46K2018-Oct-15 19:24
kingporo_snaxeffect_barragemissile2bard_skin05_..> 26K2018-Oct-15 19:24
sru_riftherald_redeye.png 31512018-Oct-15 19:24
sru_crab_speedbuff_ghostramp.png 40852018-Oct-15 19:24
alpha_11.png 19832018-Oct-15 19:24
darkstarmode_lanternzonepoppy_base_w_shield_edg..> 22K2018-Oct-15 19:24
sru_waterfall_test_small_highlight_02.png 16K2018-Oct-15 19:24
siege_laseraffix_targetconejhin_base_r_viewcone..> 45K2018-Oct-15 19:24
pox_arcana_healtrail.png 11K2018-Oct-15 19:24
sru_bluebuff_trailsolid.png 49792018-Oct-15 19:24
volibear_enrage_buf__star__p-rgba_yellow.png 5412018-Oct-15 19:24
doombots_bardcurse_stasis_quietbard_base_r_spar..> 26K2018-Oct-15 19:24
doombots_towerchargewarnviktor_base_r_ground_gl..> 32K2018-Oct-15 19:24
slowdot.png 94202018-Oct-15 19:24
sru_crab_dashcolor-smoke32.png 2692018-Oct-15 19:24
alpha_01_fade.png 11972018-Oct-15 19:24
color-foggray.png 30902018-Oct-15 19:24
feroscioushowl_cas2__dome1__p-rgba.png 8912018-Oct-15 19:24
sru_gromp_ba_flare.png 74102018-Oct-15 19:24
wavestar_riftherald_missileexplosionkassadin_ba..> 20K2018-Oct-15 19:24
sruap_chaos_inhibitor_baseglow.png 11032018-Oct-15 19:24
icicleballsplit.png 61K2018-Oct-15 19:24
color-lasersight.png 902018-Oct-15 19:24
global_ss_cleanse_flash_core_2x2.png 21K2018-Oct-15 19:24
morgana_skin06_idle2_letter_ramp.png 1472018-Oct-15 19:24
color-hecarimflame_headless.png 4002018-Oct-15 19:24
sru_elderdragon_rune_shimmer.png 65K2018-Oct-15 19:24
global_ss_cleanse_color-hold.png 792018-Oct-15 19:24
urf_death_heartsplosion_smoke_mult.png 74K2018-Oct-15 19:24
odin_lock_chain_effects_burst.png 22K2018-Oct-15 19:24
wavestar_shopkeeperoverlayahri_skin14_z_sparkle..> 14K2018-Oct-15 19:24
siege_swapteamsceremony_redcolor-dazzle.png 15522018-Oct-15 19:24
temp_itemglacialspikeenemy_w_cloud_tex.png 50K2018-Oct-15 19:24
global_summoner_recall_ring.png 20K2018-Oct-15 19:24
doombots_yasuo_warningyasuo_wind_blow_01_redraw..> 58K2018-Oct-15 19:24
bw_ship_movement_wake.png 16K2018-Oct-15 19:24
global_item_sunfirecape_ground_mesh_indicator.png 27K2018-Oct-15 19:24
sru_eastjungle_waterfall_groundsplash_01.png 55K2018-Oct-15 19:24
creep-eyes.png 64832018-Oct-15 19:24
swain_darkswirl.png 34342018-Oct-15 19:24
siegemissilebarrage_z_missiletrail.png 46482018-Oct-15 19:24
tt_mist.png 38K2018-Oct-15 19:24
defaultcoloroverlifetime.png 792018-Oct-15 19:24
irelia_teal_sparkle.png 31302018-Oct-15 19:24
kassadin_base_q_ring.png 33902018-Oct-15 19:24
cleaveswipe.png 93222018-Oct-15 19:24
sru_waterdragon_rune_shimmer.png 62K2018-Oct-15 19:24
sru_dragon_death_groundburn_mult.png 23K2018-Oct-15 19:24
ping-caution-base.png 29K2018-Oct-15 19:24
siege_emergencyshield_outerring.png 62K2018-Oct-15 19:24
permission_ability_indicator_07.png 71042018-Oct-15 19:24
bw_brightsparks.png 8522018-Oct-15 19:24
singed_skin06_q_snow_white.png 31K2018-Oct-15 19:24
monolith_01.png 69K2018-Oct-15 19:24
doombotsplayerdarksidedebuff_clouderosion.png 52602018-Oct-15 19:24
doombots_bardcurse_stasis_quietbard_base_r_expl..> 2722018-Oct-15 19:24
doombots_towerchargesparksball32_02.png 23K2018-Oct-15 19:24
sruap_turret_fortification_barrierripple.png 56K2018-Oct-15 19:24
deathgrasp_05.png 11K2018-Oct-15 19:24
bw_chaos_cannonball.png 77862018-Oct-15 19:24
assassinmode_kalista_skin01_w_blank.png 842018-Oct-15 19:24
global_item_elixirofruin_pebbles_4x4.png 37K2018-Oct-15 19:24
evelynn_redeye.png 65652018-Oct-15 19:24
color-flamejump.png 75382018-Oct-15 19:24
amumu_skin08_i_sparkle.png 22262018-Oct-15 19:24
voidflies.png 12522018-Oct-15 19:24
deathexplo_innerlight_002.png 80312018-Oct-15 19:24
malphite_glacial_smokespray_colormap.png 3142018-Oct-15 19:24
sru_chaos_minionspawn_sparkel.png 66462018-Oct-15 19:24
bw_order_turret_cas_flashcap_mesh_2x2.png 49K2018-Oct-15 19:24
darkstarmode_centerdarkstar_ring01.png 45K2018-Oct-15 19:24
hail_02.png 39232018-Oct-15 19:24
sru_junglebuff_bluebuff_mana_sparkle_2x2.png 63682018-Oct-15 19:24
color-spawnerpuffs.png 4532018-Oct-15 19:24
bats32.png 16K2018-Oct-15 19:24
color-blue.png 7362018-Oct-15 19:24
doombots_yasuo_warningaura_self.png 54482018-Oct-15 19:24
global_summoner_recall_lines.png 19402018-Oct-15 19:24
canonball.png 12K2018-Oct-15 19:24
thirst01.png 28K2018-Oct-15 19:24
theyarecoming_base_e_braum_base_i_shield_glow.png 39K2018-Oct-15 19:24
color-clawsmokering.png 14892018-Oct-15 19:24
doombots_bossteemo_nuke_incomingball32_02.png 23K2018-Oct-15 19:24
fn_universal_souls_red_001.png 20662018-Oct-15 19:24
color-orangemissile.png 30042018-Oct-15 19:24
ping-defend-color.png 2132018-Oct-15 19:24
invulnerablecell.png 46882018-Oct-15 19:24
alphaslice_bubbles_02.png 44K2018-Oct-15 19:24
defunctkarmarandomwind.png 31022018-Oct-15 19:24
sru_chaos_inhibitor_ringsuck_geo_mult.png 16K2018-Oct-15 19:24
nexus-cloud-in.png 11K2018-Oct-15 19:24
rockbits-reef.png 24K2018-Oct-15 19:24
sru_junglebuff_baron_siegemin_mis_voidswirl.png 20K2018-Oct-15 19:24
morgana_skin06_idle_sub.png 57432018-Oct-15 19:24
hecarim_skn4_override.png 2082018-Oct-15 19:24
zilean_base_q_smoke_mult.png 30K2018-Oct-15 19:24
irelia_frostblade_iceflecks.png 13K2018-Oct-15 19:24
siege_emergencyshield_barragesparkalpha_12.png 23622018-Oct-15 19:24
spawnfx.png 34K2018-Oct-15 19:24
swain_grand_glyph_02.png 10K2018-Oct-15 19:24
alpha_20.png 32092018-Oct-15 19:24
bw_clouds.png 79052018-Oct-15 19:24
doombots_curse_ryze_base_r_start_enemyryze_base..> 4772018-Oct-15 19:24
fang_spike_red_05.png 35K2018-Oct-15 19:24
darkstarmode_endofround_shockwave_spherescroll.png 12K2018-Oct-15 19:24
sru_riverplane_color_01.png 5262018-Oct-15 19:24
siege_emergencyshield_explosion_shockwave.png 75302018-Oct-15 19:24
nexus_gem.png 42K2018-Oct-15 19:24
color-bellcurve32.png 3002018-Oct-15 19:24
sru_junglebuff_gromp_marker_2x2.png 76242018-Oct-15 19:24
ha_chaos_runebinding.png 24K2018-Oct-15 19:24
sru_chaos_fireline.png 13K2018-Oct-15 19:24
siege_noise_wave.png 87K2018-Oct-15 19:24
doombots_curse_ryze_base_r_teleport_readyryze_b..> 30482018-Oct-15 19:24
global_item_bloodthirster_corona.png 14K2018-Oct-15 19:24
doombotsplayerdarksidedebuff_lensflare.png 57K2018-Oct-15 19:24
siege_laseraffix_targetconejhin_base_e_indicato..> 20K2018-Oct-15 19:24
silver-ring.png 24K2018-Oct-15 19:24
siege_emergencyshield_cosmic_purple.png 57K2018-Oct-15 19:24
swain_grand_buf.png 36552018-Oct-15 19:24
arrow_indicator_01.png 15392018-Oct-15 19:24
ring_blue_06.png 30K2018-Oct-15 19:24
bw_ship_directionalsplash_4x2.png 33K2018-Oct-15 19:24
global_item_elixirofruin_darkglow.png 26K2018-Oct-15 19:24
zilean_base_q_numbers_3x3.png 22K2018-Oct-15 19:24
global_ss_cleanse_distort_normal.png 56K2018-Oct-15 19:21
xenziou_intimidate_03.png 11K2018-Oct-15 19:21
azir_base_w_radialpool.png 440K2018-Oct-15 19:21
xenziou_intimidate_01.png 41K2018-Oct-15 19:21
xenziou_intimidate_color.png 4532018-Oct-15 19:21
xenziou_intimidate_02.png 89K2018-Oct-15 19:21
azir_base_w_blowing_sand.png 58K2018-Oct-15 19:21
ascforcebubble_hit_cleave_spark.png 31K2018-Oct-15 19:21
ascforcebubble_noise_wave.png 296K2018-Oct-15 19:21
chogath_skin05_z_fireramp.png 1742018-Oct-15 19:21
tt_well_caustics.png 81K2018-Oct-15 19:21
azir_base_w_sanddots_tar.png 43K2018-Oct-15 19:21
azir_base_z_sanddots.png 32K2018-Oct-15 19:21
azir_base_w_sandpool_1.png 2M2018-Oct-15 19:21
color_ascforcebubble_energy_rise.png 27372018-Oct-15 19:21
ascforcebubble_flash.png 30K2018-Oct-15 19:21
color_ascforcebubble_ground_trench.png 2592018-Oct-15 19:21
ascforcebubble_energy_rise.png 165K2018-Oct-15 19:20
ascforcebubble_energy_burst.png 91862018-Oct-15 19:20
color_ascforcebubble_blood.png 29352018-Oct-15 19:20
nocturne-ghosttail32.png 25122018-Oct-15 19:20
color-bladesparks.png 5462018-Oct-15 19:20
ascforcebubble_blast_scroll.png 24K2018-Oct-15 19:20